Time,TemperatureF,DewpointF,PressureIn,WindDirection,WindDirectionDegrees,WindSpeedMPH,WindSpeedGustMPH,Humidity,HourlyPrecipIn,Conditions,Clouds,dailyrainin,SolarRadiationWatts/m^2,SoftwareType,DateUTC
2013-01-24 00:00:00,46.0,37.1,30.17,SSW,212,2.2,3.3,71,0.00,,,0.00,0.00,VWS V14.01,2013-01-24 05:00:00,
2013-01-24 00:01:00,46.0,37.1,30.17,South,191,3.3,3.3,71,0.00,,,0.00,0.00,VWS V14.01,2013-01-24 05:01:00,
2013-01-24 00:02:00,46.0,36.7,30.17,SSW,202,1.1,3.3,70,0.00,,,0.00,0.00,VWS V14.01,2013-01-24 05:02:00,
2013-01-24 00:03:00,46.0,36.7,30.17,South,171,4.4,4.4,70,0.00,,,0.00,0.00,VWS V14.01,2013-01-24 05:03:00,
2013-01-24 00:04:00,46.0,36.7,30.17,South,175,1.1,4.4,70,0.00,,,0.00,0.00,VWS V14.01,2013-01-24 05:04:00,
2013-01-24 00:05:00,46.0,37.1,30.17,SW,216,3.3,4.4,71,0.00,,,0.00,0.00,VWS V14.01,2013-01-24 05:05:00,
2013-01-24 00:06:00,45.8,37.0,30.17,SSW,212,3.3,4.4,71,0.00,,,0.00,0.00,VWS V14.01,2013-01-24 05:06:00,
2013-01-24 00:07:00,45.8,37.0,30.17,SSW,207,0.0,3.3,71,0.00,,,0.00,0.00,VWS V14.01,2013-01-24 05:07:00,
2013-01-24 00:08:00,45.8,36.5,30.17,SSE,153,1.1,1.1,70,0.00,,,0.00,0.00,VWS V14.01,2013-01-24 05:08:00,
2013-01-24 00:09:00,45.8,36.5,30.17,SSW,207,5.5,5.5,70,0.00,,,0.00,0.00,VWS V14.01,2013-01-24 05:09:00,
2013-01-24 00:10:00,45.8,36.5,30.17,SSW,207,5.5,5.5,70,0.00,,,0.00,0.00,VWS V14.01,2013-01-24 05:10:00,
2013-01-24 00:11:00,45.8,36.9,30.17,South,177,4.4,5.5,71,0.00,,,0.00,0.00,VWS V14.01,2013-01-24 05:11:00,
2013-01-24 00:12:00,45.8,36.9,30.17,SSW,200,2.2,4.4,71,0.00,,,0.00,0.00,VWS V14.01,2013-01-24 05:12:00,
2013-01-24 00:13:00,45.8,36.9,30.17,SSW,206,2.2,4.4,71,0.00,,,0.00,0.00,VWS V14.01,2013-01-24 05:13:00,
2013-01-24 00:14:00,45.8,36.9,30.17,SSW,206,0.0,4.4,71,0.00,,,0.00,0.00,VWS V14.01,2013-01-24 05:14:00,
2013-01-24 00:15:00,45.8,36.9,30.17,SSW,206,0.0,2.2,71,0.00,,,0.00,0.00,VWS V14.01,2013-01-24 05:15:00,
2013-01-24 00:16:00,45.8,36.9,30.17,SSW,209,3.3,4.4,71,0.00,,,0.00,0.00,VWS V14.01,2013-01-24 05:16:00,
2013-01-24 00:17:00,45.8,36.9,30.17,SW,228,2.2,4.4,71,0.00,,,0.00,0.00,VWS V14.01,2013-01-24 05:17:00,
2013-01-24 00:18:00,45.8,36.9,30.17,SW,216,4.4,4.4,71,0.00,,,0.00,0.00,VWS V14.01,2013-01-24 05:18:00,
2013-01-24 00:19:00,45.8,36.9,30.17,SSW,198,2.2,4.4,71,0.00,,,0.00,0.00,VWS V14.01,2013-01-24 05:19:00,
2013-01-24 00:20:00,45.8,36.9,30.17,South,175,0.0,5.5,71,0.00,,,0.00,0.00,VWS V14.01,2013-01-24 05:20:00,
2013-01-24 00:21:00,45.8,36.9,30.17,SW,225,2.2,2.2,71,0.00,,,0.00,0.00,VWS V14.01,2013-01-24 05:21:00,
2013-01-24 00:22:00,45.8,36.9,30.17,SW,216,3.3,3.3,71,0.00,,,0.00,0.00,VWS V14.01,2013-01-24 05:22:00,
2013-01-24 00:23:00,45.8,37.0,30.17,SSW,200,1.1,2.2,71,0.00,,,0.00,0.00,VWS V14.01,2013-01-24 05:23:00,
2013-01-24 00:24:00,45.8,37.0,30.17,SSW,200,0.0,2.2,71,0.00,,,0.00,0.00,VWS V14.01,2013-01-24 05:24:00,
2013-01-24 00:25:00,45.8,36.9,30.17,SW,214,1.1,2.2,71,0.00,,,0.00,0.00,VWS V14.01,2013-01-24 05:25:00,
2013-01-24 00:26:00,45.8,36.9,30.16,SSW,213,0.0,2.2,71,0.00,,,0.00,0.00,VWS V14.01,2013-01-24 05:26:00,
2013-01-24 00:27:00,45.7,36.8,30.16,WSW,237,1.1,4.4,71,0.00,,,0.00,0.00,VWS V14.01,2013-01-24 05:27:00,
2013-01-24 00:28:00,45.7,36.8,30.16,SW,235,1.1,3.3,71,0.00,,,0.00,0.00,VWS V14.01,2013-01-24 05:28:00,
2013-01-24 00:29:00,45.7,36.8,30.16,SSW,212,3.3,3.3,71,0.00,,,0.00,0.00,VWS V14.01,2013-01-24 05:29:00,
2013-01-24 00:30:00,45.7,36.8,30.16,SW,223,2.2,3.3,71,0.00,,,0.00,0.00,VWS V14.01,2013-01-24 05:30:00,
2013-01-24 00:31:00,45.7,36.8,30.17,SSW,211,1.1,4.4,71,0.00,,,0.00,0.00,VWS V14.01,2013-01-24 05:31:00,
2013-01-24 00:32:00,45.7,36.8,30.17,SW,218,1.1,2.2,71,0.00,,,0.00,0.00,VWS V14.01,2013-01-24 05:32:00,
2013-01-24 00:33:00,45.7,36.8,30.17,SW,216,0.0,0.0,71,0.00,,,0.00,0.00,VWS V14.01,2013-01-24 05:33:00,
2013-01-24 00:34:00,45.7,36.8,30.17,SW,220,1.1,1.1,71,0.00,,,0.00,0.00,VWS V14.01,2013-01-24 05:34:00,
2013-01-24 00:35:00,45.7,36.8,30.17,SSW,208,2.2,4.4,71,0.00,,,0.00,0.00,VWS V14.01,2013-01-24 05:35:00,
2013-01-24 00:36:00,45.7,36.8,30.17,SSW,206,2.2,2.2,71,0.00,,,0.00,0.00,VWS V14.01,2013-01-24 05:36:00,
2013-01-24 00:37:00,45.5,36.7,30.17,SW,218,0.0,2.2,71,0.00,,,0.00,0.00,VWS V14.01,2013-01-24 05:37:00,
2013-01-24 00:38:00,45.5,36.7,30.17,SW,218,2.2,2.2,71,0.00,,,0.00,0.00,VWS V14.01,2013-01-24 05:38:00,
2013-01-24 00:39:00,45.5,36.7,30.17,South,187,2.2,3.3,71,0.00,,,0.00,0.00,VWS V14.01,2013-01-24 05:39:00,
2013-01-24 00:40:00,45.5,36.7,30.17,South,191,2.2,3.3,71,0.00,,,0.00,0.00,VWS V14.01,2013-01-24 05:40:00,
2013-01-24 00:41:00,45.5,37.1,30.17,SSW,193,1.1,3.3,72,0.00,,,0.00,0.00,VWS V14.01,2013-01-24 05:41:00,
2013-01-24 00:42:00,45.5,37.1,30.17,SSW,210,3.3,3.3,72,0.00,,,0.00,0.00,VWS V14.01,2013-01-24 05:42:00,
2013-01-24 00:43:00,45.5,37.1,30.17,SSW,198,2.2,4.4,72,0.00,,,0.00,0.00,VWS V14.01,2013-01-24 05:43:00,
2013-01-24 00:44:00,45.5,37.1,30.17,South,183,2.2,4.4,72,0.00,,,0.00,0.00,VWS V14.01,2013-01-24 05:44:00,
2013-01-24 00:45:00,45.5,37.1,30.17,SSW,193,5.5,5.5,72,0.00,,,0.00,0.00,VWS V14.01,2013-01-24 05:45:00,
2013-01-24 00:46:00,45.5,37.1,30.17,SSW,208,2.2,5.5,72,0.00,,,0.00,0.00,VWS V14.01,2013-01-24 05:46:00,
2013-01-24 00:47:00,45.5,37.1,30.17,SSW,198,0.0,2.2,72,0.00,,,0.00,0.00,VWS V14.01,2013-01-24 05:47:00,
2013-01-24 00:48:00,45.5,37.1,30.16,SSW,197,1.1,2.2,72,0.00,,,0.00,0.00,VWS V14.01,2013-01-24 05:48:00,
2013-01-24 00:49:00,45.5,37.1,30.16,WSW,239,3.3,3.3,72,0.00,,,0.00,0.00,VWS V14.01,2013-01-24 05:49:00,
2013-01-24 00:50:00,45.7,37.2,30.16,SSW,208,2.2,3.3,72,0.00,,,0.00,0.00,VWS V14.01,2013-01-24 05:50:00,
2013-01-24 00:51:00,45.7,37.2,30.16,SW,231,2.2,2.2,72,0.00,,,0.00,0.00,VWS V14.01,2013-01-24 05:51:00,
2013-01-24 00:52:00,45.7,37.2,30.16,SSW,198,1.1,2.2,72,0.00,,,0.00,0.00,VWS V14.01,2013-01-24 05:52:00,
2013-01-24 00:53:00,45.7,37.2,30.16,SSW,194,1.1,2.2,72,0.00,,,0.00,0.00,VWS V14.01,2013-01-24 05:53:00,
2013-01-24 00:54:00,45.7,37.2,30.16,SSW,195,0.0,2.2,72,0.00,,,0.00,0.00,VWS V14.01,2013-01-24 05:54:00,
2013-01-24 00:55:00,45.7,37.2,30.16,SSW,205,1.1,3.3,72,0.00,,,0.00,0.00,VWS V14.01,2013-01-24 05:55:00,
2013-01-24 00:56:00,45.7,37.2,30.16,SSW,213,3.3,5.5,72,0.00,,,0.00,0.00,VWS V14.01,2013-01-24 05:56:00,
2013-01-24 00:57:00,45.7,37.2,30.16,SW,218,2.2,3.3,72,0.00,,,0.00,0.00,VWS V14.01,2013-01-24 05:57:00,
2013-01-24 00:58:00,45.8,37.2,30.16,SSW,210,2.2,2.2,72,0.00,,,0.00,0.00,VWS V14.01,2013-01-24 05:58:00,
2013-01-24 00:59:00,45.8,37.2,30.16,SW,220,1.1,4.4,72,0.00,,,0.00,0.00,VWS V14.01,2013-01-24 05:59:00,
2013-01-24 01:00:00,45.8,37.2,30.16,SW,221,1.1,2.2,72,0.00,,,0.00,0.00,VWS V14.01,2013-01-24 06:00:00,
2013-01-24 01:01:00,45.8,37.2,30.16,South,189,5.5,5.5,72,0.00,,,0.00,0.00,VWS V14.01,2013-01-24 06:01:00,
2013-01-24 01:02:00,45.7,37.2,30.16,SSW,206,2.2,5.5,72,0.00,,,0.00,0.00,VWS V14.01,2013-01-24 06:02:00,
2013-01-24 01:03:00,45.8,37.2,30.16,SW,215,3.3,3.3,72,0.00,,,0.00,0.00,VWS V14.01,2013-01-24 06:03:00,
2013-01-24 01:04:00,45.8,37.2,30.16,SE,141,2.2,3.3,72,0.00,,,0.00,0.00,VWS V14.01,2013-01-24 06:04:00,
2013-01-24 01:05:00,45.8,37.2,30.16,SSW,210,3.3,4.4,72,0.00,,,0.00,0.00,VWS V14.01,2013-01-24 06:05:00,
2013-01-24 01:06:00,45.8,37.2,30.16,South,185,2.2,5.5,72,0.00,,,0.00,0.00,VWS V14.01,2013-01-24 06:06:00,
2013-01-24 01:07:00,45.8,37.2,30.15,South,191,1.1,2.2,72,0.00,,,0.00,0.00,VWS V14.01,2013-01-24 06:07:00,
2013-01-24 01:08:00,45.8,37.2,30.16,SSW,201,0.0,0.0,72,0.00,,,0.00,0.00,VWS V14.01,2013-01-24 06:08:00,
2013-01-24 01:09:00,45.8,37.2,30.16,SSW,201,2.2,2.2,72,0.00,,,0.00,0.00,VWS V14.01,2013-01-24 06:09:00,
2013-01-24 01:10:00,45.7,37.2,30.16,SSW,201,1.1,2.2,72,0.00,,,0.00,0.00,VWS V14.01,2013-01-24 06:10:00,
2013-01-24 01:11:00,45.7,37.2,30.16,WSW,245,3.3,3.3,72,0.00,,,0.00,0.00,VWS V14.01,2013-01-24 06:11:00,
2013-01-24 01:12:00,45.7,37.2,30.16,WSW,245,0.0,3.3,72,0.00,,,0.00,0.00,VWS V14.01,2013-01-24 06:12:00,
2013-01-24 01:13:00,45.7,37.2,30.16,SSW,213,1.1,1.1,72,0.00,,,0.00,0.00,VWS V14.01,2013-01-24 06:13:00,
2013-01-24 01:14:00,45.7,37.2,30.16,SSW,195,2.2,5.5,72,0.00,,,0.00,0.00,VWS V14.01,2013-01-24 06:14:00,
2013-01-24 01:15:00,45.8,37.2,30.16,SW,223,1.1,4.4,72,0.00,,,0.00,0.00,VWS V14.01,2013-01-24 06:15:00,
2013-01-24 01:16:00,45.7,37.2,30.16,South,185,6.6,6.6,72,0.00,,,0.00,0.00,VWS V14.01,2013-01-24 06:16:00,
2013-01-24 01:17:00,45.8,37.2,30.16,SSW,202,2.2,6.6,72,0.00,,,0.00,0.00,VWS V14.01,2013-01-24 06:17:00,
2013-01-24 01:18:00,45.8,37.3,30.16,SSW,202,0.0,1.1,72,0.00,,,0.00,0.00,VWS V14.01,2013-01-24 06:18:00,
2013-01-24 01:19:00,45.8,37.3,30.16,SW,221,2.2,3.3,72,0.00,,,0.00,0.00,VWS V14.01,2013-01-24 06:19:00,
2013-01-24 01:20:00,45.8,37.3,30.16,SSW,202,1.1,7.7,72,0.00,,,0.00,0.00,VWS V14.01,2013-01-24 06:20:00,
2013-01-24 01:21:00,46.0,37.4,30.16,South,175,3.3,5.5,72,0.00,,,0.00,0.00,VWS V14.01,2013-01-24 06:21:00,
2013-01-24 01:22:00,46.0,37.4,30.16,WSW,237,3.3,5.5,72,0.00,,,0.00,0.00,VWS V14.01,2013-01-24 06:22:00,
2013-01-24 01:23:00,46.0,37.5,30.16,South,191,3.3,3.3,72,0.00,,,0.00,0.00,VWS V14.01,2013-01-24 06:23:00,
2013-01-24 01:24:00,46.0,37.5,30.16,SSW,210,2.2,3.3,72,0.00,,,0.00,0.00,VWS V14.01,2013-01-24 06:24:00,
2013-01-24 01:25:00,46.2,37.6,30.16,SSW,194,0.0,4.4,72,0.00,,,0.00,0.00,VWS V14.01,2013-01-24 06:25:00,
2013-01-24 01:26:00,46.2,37.6,30.16,South,187,2.2,5.5,72,0.00,,,0.00,0.00,VWS V14.01,2013-01-24 06:26:00,
2013-01-24 01:27:00,46.2,37.7,30.16,SSW,203,1.1,2.2,72,0.00,,,0.00,0.00,VWS V14.01,2013-01-24 06:27:00,
2013-01-24 01:28:00,46.2,37.7,30.16,SW,223,0.0,0.0,72,0.00,,,0.00,0.00,VWS V14.01,2013-01-24 06:28:00,
2013-01-24 01:29:00,46.2,37.7,30.16,WNW,289,4.4,4.4,72,0.00,,,0.00,0.00,VWS V14.01,2013-01-24 06:29:00,
2013-01-24 01:30:00,46.2,37.7,30.16,SSW,198,4.4,5.5,72,0.00,,,0.00,0.00,VWS V14.01,2013-01-24 06:30:00,
2013-01-24 01:31:00,46.3,37.8,30.16,SW,219,4.4,4.4,72,0.00,,,0.00,0.00,VWS V14.01,2013-01-24 06:31:00,
2013-01-24 01:32:00,46.3,37.8,30.16,SW,229,1.1,5.5,72,0.00,,,0.00,0.00,VWS V14.01,2013-01-24 06:32:00,
2013-01-24 01:33:00,46.3,37.8,30.16,SW,227,2.2,2.2,72,0.00,,,0.00,0.00,VWS V14.01,2013-01-24 06:33:00,
2013-01-24 01:34:00,46.3,37.8,30.16,SSE,150,3.3,6.6,72,0.00,,,0.00,0.00,VWS V14.01,2013-01-24 06:34:00,
2013-01-24 01:35:00,46.3,37.8,30.16,SSW,210,3.3,6.6,72,0.00,,,0.00,0.00,VWS V14.01,2013-01-24 06:35:00,
2013-01-24 01:37:00,46.5,37.9,30.15,SW,229,3.3,6.6,72,0.00,,,0.00,0.00,VWS V14.01,2013-01-24 06:37:00,
2013-01-24 01:38:00,46.5,37.9,30.15,West,262,7.7,7.7,72,0.00,,,0.00,0.00,VWS V14.01,2013-01-24 06:38:00,
2013-01-24 01:39:00,46.5,38.0,30.15,SW,229,1.1,7.7,72,0.00,,,0.00,0.00,VWS V14.01,2013-01-24 06:39:00,
2013-01-24 01:40:00,46.5,38.0,30.15,SSW,200,7.7,12.1,72,0.00,,,0.00,0.00,VWS V14.01,2013-01-24 06:40:00,
2013-01-24 01:41:00,46.7,38.1,30.15,SSW,192,4.4,7.7,72,0.00,,,0.00,0.00,VWS V14.01,2013-01-24 06:41:00,
2013-01-24 01:42:00,46.8,38.2,30.15,South,183,6.6,6.6,72,0.00,,,0.00,0.00,VWS V14.01,2013-01-24 06:42:00,
2013-01-24 01:43:00,46.8,38.3,30.15,SW,225,3.3,5.5,72,0.00,,,0.00,0.00,VWS V14.01,2013-01-24 06:43:00,
2013-01-24 01:44:00,46.8,38.3,30.15,SSW,210,2.2,5.5,72,0.00,,,0.00,0.00,VWS V14.01,2013-01-24 06:44:00,
2013-01-24 01:45:00,47.0,38.0,30.15,SW,219,1.1,3.3,71,0.00,,,0.00,0.00,VWS V14.01,2013-01-24 06:45:00,
2013-01-24 01:46:00,47.0,38.0,30.15,SSW,200,7.7,7.7,71,0.00,,,0.00,0.00,VWS V14.01,2013-01-24 06:46:00,
2013-01-24 01:47:00,47.0,38.2,30.15,SSW,193,3.3,7.7,71,0.00,,,0.00,0.00,VWS V14.01,2013-01-24 06:47:00,
2013-01-24 01:48:00,47.0,38.2,30.15,SSW,210,1.1,6.6,71,0.00,,,0.00,0.00,VWS V14.01,2013-01-24 06:48:00,
2013-01-24 01:49:00,47.0,38.2,30.15,SSW,193,2.2,6.6,71,0.00,,,0.00,0.00,VWS V14.01,2013-01-24 06:49:00,
2013-01-24 01:50:00,47.2,38.2,30.15,South,187,3.3,6.6,71,0.00,,,0.00,0.00,VWS V14.01,2013-01-24 06:50:00,
2013-01-24 01:51:00,47.2,38.3,30.15,South,177,4.4,4.4,71,0.00,,,0.00,0.00,VWS V14.01,2013-01-24 06:51:00,
2013-01-24 01:52:00,47.2,38.3,30.15,SW,214,3.3,4.4,71,0.00,,,0.00,0.00,VWS V14.01,2013-01-24 06:52:00,
2013-01-24 01:53:00,47.2,38.3,30.15,SW,225,5.5,7.7,71,0.00,,,0.00,0.00,VWS V14.01,2013-01-24 06:53:00,
2013-01-24 01:54:00,47.2,38.3,30.15,SW,216,3.3,7.7,71,0.00,,,0.00,0.00,VWS V14.01,2013-01-24 06:54:00,
2013-01-24 01:55:00,47.2,38.3,30.15,SW,233,4.4,5.5,71,0.00,,,0.00,0.00,VWS V14.01,2013-01-24 06:55:00,
2013-01-24 01:56:00,47.3,38.4,30.15,SW,234,6.6,7.7,71,0.00,,,0.00,0.00,VWS V14.01,2013-01-24 06:56:00,
2013-01-24 01:57:00,47.3,38.4,30.15,SSW,197,2.2,6.6,71,0.00,,,0.00,0.00,VWS V14.01,2013-01-24 06:57:00,
2013-01-24 01:58:00,47.3,38.4,30.15,South,189,4.4,4.4,71,0.00,,,0.00,0.00,VWS V14.01,2013-01-24 06:58:00,
2013-01-24 01:59:00,47.3,38.4,30.15,WSW,247,8.8,8.8,71,0.00,,,0.00,0.00,VWS V14.01,2013-01-24 06:59:00,
2013-01-24 02:00:00,47.3,38.4,30.15,SSW,205,2.2,6.6,71,0.00,,,0.00,0.00,VWS V14.01,2013-01-24 07:00:00,
2013-01-24 02:01:00,47.3,38.4,30.15,WSW,238,8.8,8.8,71,0.00,,,0.00,0.00,VWS V14.01,2013-01-24 07:01:00,
2013-01-24 02:02:00,47.5,38.5,30.15,SSW,207,2.2,8.8,71,0.00,,,0.00,0.00,VWS V14.01,2013-01-24 07:02:00,
2013-01-24 02:03:00,47.5,38.5,30.15,SW,229,4.4,7.7,71,0.00,,,0.00,0.00,VWS V14.01,2013-01-24 07:03:00,
2013-01-24 02:04:00,47.5,38.5,30.15,SSW,213,4.4,7.7,71,0.00,,,0.00,0.00,VWS V14.01,2013-01-24 07:04:00,
2013-01-24 02:05:00,47.5,38.5,30.15,WSW,251,5.5,12.1,71,0.00,,,0.00,0.00,VWS V14.01,2013-01-24 07:05:00,
2013-01-24 02:06:00,47.5,39.0,30.15,South,191,5.5,6.6,72,0.00,,,0.00,0.00,VWS V14.01,2013-01-24 07:06:00,
2013-01-24 02:07:00,47.5,38.6,30.14,SSW,209,4.4,5.5,71,0.00,,,0.00,0.00,VWS V14.01,2013-01-24 07:07:00,
2013-01-24 02:08:00,47.5,38.6,30.14,SW,216,2.2,4.4,71,0.00,,,0.00,0.00,VWS V14.01,2013-01-24 07:08:00,
2013-01-24 02:09:00,47.5,38.6,30.14,SSW,201,7.7,7.7,71,0.00,,,0.00,0.00,VWS V14.01,2013-01-24 07:09:00,
2013-01-24 02:10:00,47.5,38.6,30.14,SSW,210,3.3,7.7,71,0.00,,,0.00,0.00,VWS V14.01,2013-01-24 07:10:00,
2013-01-24 02:11:00,47.7,38.7,30.14,WSW,244,5.5,9.9,71,0.00,,,0.00,0.00,VWS V14.01,2013-01-24 07:11:00,
2013-01-24 02:13:00,47.8,38.8,30.14,SSW,196,3.3,6.6,71,0.00,,,0.00,0.00,VWS V14.01,2013-01-24 07:13:00,
2013-01-24 02:14:00,47.8,38.9,30.14,SSW,210,2.2,6.6,71,0.00,,,0.00,0.00,VWS V14.01,2013-01-24 07:14:00,
2013-01-24 02:15:00,47.8,38.9,30.14,SW,229,5.5,8.8,71,0.00,,,0.00,0.00,VWS V14.01,2013-01-24 07:15:00,
2013-01-24 02:16:00,48.0,39.0,30.14,WSW,237,0.0,5.5,71,0.00,,,0.00,0.00,VWS V14.01,2013-01-24 07:16:00,
2013-01-24 02:18:00,48.0,39.1,30.14,SSW,207,2.2,2.2,71,0.00,,,0.00,0.00,VWS V14.01,2013-01-24 07:18:00,
2013-01-24 02:19:00,48.0,39.1,30.14,SSW,197,5.5,8.8,71,0.00,,,0.00,0.00,VWS V14.01,2013-01-24 07:19:00,
2013-01-24 02:20:00,48.2,39.2,30.14,SSW,195,5.5,6.6,71,0.00,,,0.00,0.00,VWS V14.01,2013-01-24 07:20:00,
2013-01-24 02:21:00,48.2,39.2,30.14,WSW,245,5.5,7.7,71,0.00,,,0.00,0.00,VWS V14.01,2013-01-24 07:21:00,
2013-01-24 02:22:00,48.2,39.3,30.14,SW,229,4.4,7.7,71,0.00,,,0.00,0.00,VWS V14.01,2013-01-24 07:22:00,
2013-01-24 02:23:00,48.2,39.3,30.14,SSW,204,7.7,7.7,71,0.00,,,0.00,0.00,VWS V14.01,2013-01-24 07:23:00,
2013-01-24 02:24:00,48.2,39.3,30.14,SW,233,5.5,7.7,71,0.00,,,0.00,0.00,VWS V14.01,2013-01-24 07:24:00,
2013-01-24 02:25:00,48.3,39.4,30.14,South,191,5.5,5.5,71,0.00,,,0.00,0.00,VWS V14.01,2013-01-24 07:25:00,
2013-01-24 02:26:00,48.5,39.5,30.14,SSW,196,4.4,7.7,71,0.00,,,0.00,0.00,VWS V14.01,2013-01-24 07:26:00,
2013-01-24 02:27:00,48.5,39.5,30.14,WNW,283,3.3,4.4,71,0.00,,,0.00,0.00,VWS V14.01,2013-01-24 07:27:00,
2013-01-24 02:28:00,48.5,39.6,30.13,SW,222,4.4,4.4,71,0.00,,,0.00,0.00,VWS V14.01,2013-01-24 07:28:00,
2013-01-24 02:29:00,48.5,39.6,30.13,SSW,198,7.7,7.7,71,0.00,,,0.00,0.00,VWS V14.01,2013-01-24 07:29:00,
2013-01-24 02:30:00,48.7,39.7,30.13,SE,130,2.2,7.7,71,0.00,,,0.00,0.00,VWS V14.01,2013-01-24 07:30:00,
2013-01-24 02:31:00,48.8,39.8,30.13,SSW,208,4.4,7.7,71,0.00,,,0.00,0.00,VWS V14.01,2013-01-24 07:31:00,
2013-01-24 02:32:00,48.8,39.8,30.13,SSW,199,5.5,7.7,71,0.00,,,0.00,0.00,VWS V14.01,2013-01-24 07:32:00,
2013-01-24 02:33:00,48.8,39.9,30.13,WSW,247,4.4,11.0,71,0.00,,,0.00,0.00,VWS V14.01,2013-01-24 07:33:00,
2013-01-24 02:34:00,48.8,39.9,30.13,WSW,238,3.3,11.0,71,0.00,,,0.00,0.00,VWS V14.01,2013-01-24 07:34:00,
2013-01-24 02:35:00,49.0,40.0,30.13,SW,228,2.2,6.6,71,0.00,,,0.00,0.00,VWS V14.01,2013-01-24 07:35:00,
2013-01-24 02:36:00,49.0,40.0,30.13,SSW,211,5.5,6.6,71,0.00,,,0.00,0.00,VWS V14.01,2013-01-24 07:36:00,
2013-01-24 02:37:00,49.0,40.1,30.14,SSW,207,0.0,8.8,71,0.00,,,0.00,0.00,VWS V14.01,2013-01-24 07:37:00,
2013-01-24 02:38:00,49.0,40.1,30.14,SSW,200,3.3,3.3,71,0.00,,,0.00,0.00,VWS V14.01,2013-01-24 07:38:00,
2013-01-24 02:39:00,49.0,39.7,30.14,SSW,204,6.6,9.9,70,0.00,,,0.00,0.00,VWS V14.01,2013-01-24 07:39:00,
2013-01-24 02:40:00,49.0,39.7,30.13,SSW,204,4.4,7.7,70,0.00,,,0.00,0.00,VWS V14.01,2013-01-24 07:40:00,
2013-01-24 02:41:00,49.2,40.2,30.13,SW,214,7.7,7.7,71,0.00,,,0.00,0.00,VWS V14.01,2013-01-24 07:41:00,
2013-01-24 02:42:00,49.2,40.2,30.13,South,182,3.3,7.7,71,0.00,,,0.00,0.00,VWS V14.01,2013-01-24 07:42:00,
2013-01-24 02:43:00,49.2,40.2,30.13,SW,215,2.2,5.5,71,0.00,,,0.00,0.00,VWS V14.01,2013-01-24 07:43:00,
2013-01-24 02:44:00,49.2,40.2,30.13,SSE,161,3.3,5.5,71,0.00,,,0.00,0.00,VWS V14.01,2013-01-24 07:44:00,
2013-01-24 02:45:00,49.2,40.3,30.13,WSW,246,2.2,7.7,71,0.00,,,0.00,0.00,VWS V14.01,2013-01-24 07:45:00,
2013-01-24 02:46:00,49.2,40.3,30.13,SSW,196,6.6,6.6,71,0.00,,,0.00,0.00,VWS V14.01,2013-01-24 07:46:00,
2013-01-24 02:47:00,49.3,40.4,30.13,SW,227,4.4,6.6,71,0.00,,,0.00,0.00,VWS V14.01,2013-01-24 07:47:00,
2013-01-24 02:48:00,49.3,40.4,30.13,South,191,4.4,7.7,71,0.00,,,0.00,0.00,VWS V14.01,2013-01-24 07:48:00,
2013-01-24 02:49:00,49.3,40.4,30.13,SSW,193,2.2,13.2,71,0.00,,,0.00,0.00,VWS V14.01,2013-01-24 07:49:00,
2013-01-24 02:50:00,49.5,40.5,30.13,SSW,211,4.4,5.5,71,0.00,,,0.00,0.00,VWS V14.01,2013-01-24 07:50:00,
2013-01-24 02:51:00,49.5,40.5,30.13,SSW,212,4.4,4.4,71,0.00,,,0.00,0.00,VWS V14.01,2013-01-24 07:51:00,
2013-01-24 02:52:00,49.5,40.5,30.13,SSW,198,2.2,9.9,71,0.00,,,0.00,0.00,VWS V14.01,2013-01-24 07:52:00,
2013-01-24 02:53:00,49.5,40.5,30.13,SW,224,3.3,3.3,71,0.00,,,0.00,0.00,VWS V14.01,2013-01-24 07:53:00,
2013-01-24 02:54:00,49.5,40.5,30.13,SSW,213,2.2,7.7,71,0.00,,,0.00,0.00,VWS V14.01,2013-01-24 07:54:00,
2013-01-24 02:55:00,49.5,40.5,30.13,SW,222,4.4,8.8,71,0.00,,,0.00,0.00,VWS V14.01,2013-01-24 07:55:00,
2013-01-24 02:56:00,49.5,40.5,30.13,South,187,3.3,7.7,71,0.00,,,0.00,0.00,VWS V14.01,2013-01-24 07:56:00,
2013-01-24 02:57:00,49.5,40.5,30.13,SW,216,7.7,9.9,71,0.00,,,0.00,0.00,VWS V14.01,2013-01-24 07:57:00,
2013-01-24 02:58:00,49.7,40.6,30.13,SW,231,3.3,5.5,71,0.00,,,0.00,0.00,VWS V14.01,2013-01-24 07:58:00,
2013-01-24 02:59:00,49.7,40.6,30.13,South,185,7.7,7.7,71,0.00,,,0.00,0.00,VWS V14.01,2013-01-24 07:59:00,
2013-01-24 03:00:00,49.7,40.6,30.13,SSW,202,2.2,6.6,71,0.00,,,0.00,0.00,VWS V14.01,2013-01-24 08:00:00,
2013-01-24 03:01:00,49.7,40.6,30.13,WSW,238,6.6,7.7,71,0.00,,,0.00,0.00,VWS V14.01,2013-01-24 08:01:00,
2013-01-24 03:02:00,49.7,40.6,30.13,SSW,207,3.3,8.8,71,0.00,,,0.00,0.00,VWS V14.01,2013-01-24 08:02:00,
2013-01-24 03:03:00,49.8,40.7,30.12,SSW,204,4.4,4.4,71,0.00,,,0.00,0.00,VWS V14.01,2013-01-24 08:03:00,
2013-01-24 03:04:00,49.8,40.7,30.12,WSW,239,1.1,4.4,71,0.00,,,0.00,0.00,VWS V14.01,2013-01-24 08:04:00,
2013-01-24 03:05:00,49.8,40.7,30.13,SSW,209,5.5,5.5,71,0.00,,,0.00,0.00,VWS V14.01,2013-01-24 08:05:00,
2013-01-24 03:06:00,49.8,40.7,30.12,SW,235,3.3,5.5,71,0.00,,,0.00,0.00,VWS V14.01,2013-01-24 08:06:00,
2013-01-24 03:07:00,49.8,40.7,30.13,South,185,5.5,5.5,71,0.00,,,0.00,0.00,VWS V14.01,2013-01-24 08:07:00,
2013-01-24 03:08:00,49.8,40.7,30.12,SSW,208,3.3,8.8,71,0.00,,,0.00,0.00,VWS V14.01,2013-01-24 08:08:00,
2013-01-24 03:09:00,49.8,40.7,30.12,South,179,3.3,8.8,71,0.00,,,0.00,0.00,VWS V14.01,2013-01-24 08:09:00,
2013-01-24 03:11:00,49.7,40.6,30.12,SSW,195,8.8,8.8,71,0.00,,,0.00,0.00,VWS V14.01,2013-01-24 08:11:00,
2013-01-24 03:12:00,49.7,40.6,30.12,South,170,3.3,8.8,71,0.00,,,0.00,0.00,VWS V14.01,2013-01-24 08:12:00,
2013-01-24 03:13:00,49.7,40.6,30.12,SW,225,2.2,5.5,71,0.00,,,0.00,0.00,VWS V14.01,2013-01-24 08:13:00,
2013-01-24 03:14:00,49.7,40.6,30.12,SW,216,7.7,8.8,71,0.00,,,0.00,0.00,VWS V14.01,2013-01-24 08:14:00,
2013-01-24 03:16:00,49.7,40.6,30.12,SSW,211,3.3,6.6,71,0.00,,,0.00,0.00,VWS V14.01,2013-01-24 08:16:00,
2013-01-24 03:17:00,49.7,40.6,30.12,SW,222,4.4,7.7,71,0.00,,,0.00,0.00,VWS V14.01,2013-01-24 08:17:00,
2013-01-24 03:18:00,49.7,40.6,30.12,SSW,211,6.6,8.8,71,0.00,,,0.00,0.00,VWS V14.01,2013-01-24 08:18:00,
2013-01-24 03:19:00,49.7,40.6,30.12,SSW,204,6.6,8.8,71,0.00,,,0.00,0.00,VWS V14.01,2013-01-24 08:19:00,
2013-01-24 03:20:00,49.7,40.6,30.12,SSE,148,4.4,9.9,71,0.00,,,0.00,0.00,VWS V14.01,2013-01-24 08:20:00,
2013-01-24 03:21:00,49.7,40.6,30.11,WSW,238,3.3,5.5,71,0.00,,,0.00,0.00,VWS V14.01,2013-01-24 08:21:00,
2013-01-24 03:22:00,49.7,40.6,30.12,SW,216,6.6,6.6,71,0.00,,,0.00,0.00,VWS V14.01,2013-01-24 08:22:00,
2013-01-24 03:23:00,49.7,40.6,30.11,SSW,206,2.2,6.6,71,0.00,,,0.00,0.00,VWS V14.01,2013-01-24 08:23:00,
2013-01-24 03:25:00,49.7,40.6,30.11,WSW,242,3.3,3.3,71,0.00,,,0.00,0.00,VWS V14.01,2013-01-24 08:25:00,
2013-01-24 03:26:00,49.7,40.6,30.12,SSW,207,1.1,4.4,71,0.00,,,0.00,0.00,VWS V14.01,2013-01-24 08:26:00,
2013-01-24 03:28:00,49.5,40.5,30.12,SW,220,6.6,6.6,71,0.00,,,0.00,0.00,VWS V14.01,2013-01-24 08:28:00,
2013-01-24 03:29:00,49.5,40.5,30.12,SW,235,3.3,7.7,71,0.00,,,0.00,0.00,VWS V14.01,2013-01-24 08:29:00,
2013-01-24 03:30:00,49.5,40.5,30.12,SW,214,2.2,6.6,71,0.00,,,0.00,0.00,VWS V14.01,2013-01-24 08:30:00,
2013-01-24 03:31:00,49.5,40.8,30.12,West,278,1.1,6.6,72,0.00,,,0.00,0.00,VWS V14.01,2013-01-24 08:31:00,
2013-01-24 03:32:00,49.5,40.9,30.12,SW,232,4.4,7.7,72,0.00,,,0.00,0.00,VWS V14.01,2013-01-24 08:32:00,
2013-01-24 03:33:00,49.5,40.9,30.12,SSE,168,1.1,3.3,72,0.00,,,0.00,0.00,VWS V14.01,2013-01-24 08:33:00,
2013-01-24 03:34:00,49.5,40.9,30.12,WSW,240,2.2,3.3,72,0.00,,,0.00,0.00,VWS V14.01,2013-01-24 08:34:00,
2013-01-24 03:35:00,49.5,40.9,30.12,SSW,199,4.4,5.5,72,0.00,,,0.00,0.00,VWS V14.01,2013-01-24 08:35:00,
2013-01-24 03:36:00,49.5,40.9,30.12,SSW,209,0.0,4.4,72,0.00,,,0.00,0.00,VWS V14.01,2013-01-24 08:36:00,
2013-01-24 03:37:00,49.5,40.9,30.12,SSW,205,1.1,1.1,72,0.00,,,0.00,0.00,VWS V14.01,2013-01-24 08:37:00,
2013-01-24 03:38:00,49.5,40.8,30.12,SW,215,5.5,5.5,72,0.00,,,0.00,0.00,VWS V14.01,2013-01-24 08:38:00,
2013-01-24 03:39:00,49.5,40.8,30.12,SSE,161,4.4,5.5,72,0.00,,,0.00,0.00,VWS V14.01,2013-01-24 08:39:00,
2013-01-24 03:40:00,49.5,40.8,30.12,SSW,208,0.0,4.4,72,0.00,,,0.00,0.00,VWS V14.01,2013-01-24 08:40:00,
2013-01-24 03:41:00,49.5,40.8,30.11,SSW,196,1.1,2.2,72,0.00,,,0.00,0.00,VWS V14.01,2013-01-24 08:41:00,
2013-01-24 03:42:00,49.5,40.8,30.11,SW,236,1.1,4.4,72,0.00,,,0.00,0.00,VWS V14.01,2013-01-24 08:42:00,
2013-01-24 03:43:00,49.5,40.8,30.11,SSW,204,0.0,1.1,72,0.00,,,0.00,0.00,VWS V14.01,2013-01-24 08:43:00,
2013-01-24 03:44:00,49.3,40.7,30.11,SSW,204,0.0,1.1,72,0.00,,,0.00,0.00,VWS V14.01,2013-01-24 08:44:00,
2013-01-24 03:45:00,49.3,41.1,30.11,WSW,239,3.3,4.4,73,0.00,,,0.00,0.00,VWS V14.01,2013-01-24 08:45:00,
2013-01-24 03:46:00,49.3,41.1,30.11,SSW,213,4.4,4.4,73,0.00,,,0.00,0.00,VWS V14.01,2013-01-24 08:46:00,
2013-01-24 03:47:00,49.3,40.7,30.11,South,186,3.3,13.2,72,0.00,,,0.00,0.00,VWS V14.01,2013-01-24 08:47:00,
2013-01-24 03:48:00,49.3,40.7,30.11,WSW,245,1.1,3.3,72,0.00,,,0.00,0.00,VWS V14.01,2013-01-24 08:48:00,
2013-01-24 03:49:00,49.3,40.7,30.11,WSW,245,2.2,3.3,72,0.00,,,0.00,0.00,VWS V14.01,2013-01-24 08:49:00,
2013-01-24 03:50:00,49.3,40.7,30.11,SW,230,2.2,5.5,72,0.00,,,0.00,0.00,VWS V14.01,2013-01-24 08:50:00,
2013-01-24 03:51:00,49.3,40.7,30.11,South,181,8.8,9.9,72,0.00,,,0.00,0.00,VWS V14.01,2013-01-24 08:51:00,
2013-01-24 03:52:00,49.5,41.2,30.11,WNW,284,6.6,13.2,73,0.00,,,0.00,0.00,VWS V14.01,2013-01-24 08:52:00,
2013-01-24 03:53:00,49.5,41.3,30.11,SW,233,3.3,5.5,73,0.00,,,0.00,0.00,VWS V14.01,2013-01-24 08:53:00,
2013-01-24 03:54:00,49.5,41.3,30.11,SW,219,0.0,5.5,73,0.00,,,0.00,0.00,VWS V14.01,2013-01-24 08:54:00,
2013-01-24 03:55:00,49.5,41.3,30.11,WSW,238,2.2,5.5,73,0.00,,,0.00,0.00,VWS V14.01,2013-01-24 08:55:00,
2013-01-24 03:56:00,49.7,41.4,30.10,SSW,205,2.2,4.4,73,0.00,,,0.00,0.00,VWS V14.01,2013-01-24 08:56:00,
2013-01-24 03:57:00,49.7,41.4,30.11,SW,215,3.3,5.5,73,0.00,,,0.00,0.00,VWS V14.01,2013-01-24 08:57:00,
2013-01-24 03:58:00,49.7,41.0,30.10,SSW,194,0.0,4.4,72,0.00,,,0.00,0.00,VWS V14.01,2013-01-24 08:58:00,
2013-01-24 03:59:00,49.7,41.0,30.10,SSW,193,3.3,4.4,72,0.00,,,0.00,0.00,VWS V14.01,2013-01-24 08:59:00,
2013-01-24 04:00:00,49.7,41.0,30.10,SW,216,13.2,14.3,72,0.00,,,0.00,0.00,VWS V14.01,2013-01-24 09:00:00,
2013-01-24 04:01:00,49.8,41.1,30.10,SW,235,2.2,13.2,72,0.00,,,0.00,0.00,VWS V14.01,2013-01-24 09:01:00,
2013-01-24 04:02:00,49.8,41.1,30.10,WSW,243,2.2,3.3,72,0.00,,,0.00,0.00,VWS V14.01,2013-01-24 09:02:00,
2013-01-24 04:03:00,49.8,41.5,30.10,SSW,204,2.2,4.4,73,0.00,,,0.00,0.00,VWS V14.01,2013-01-24 09:03:00,
2013-01-24 04:04:00,49.8,41.2,30.10,SW,231,5.5,5.5,72,0.00,,,0.00,0.00,VWS V14.01,2013-01-24 09:04:00,
2013-01-24 04:05:00,49.8,41.2,30.10,SSW,210,2.2,5.5,72,0.00,,,0.00,0.00,VWS V14.01,2013-01-24 09:05:00,
2013-01-24 04:06:00,49.8,41.2,30.10,West,275,4.4,6.6,72,0.00,,,0.00,0.00,VWS V14.01,2013-01-24 09:06:00,
2013-01-24 04:07:00,49.8,41.2,30.10,SW,235,3.3,9.9,72,0.00,,,0.00,0.00,VWS V14.01,2013-01-24 09:07:00,
2013-01-24 04:08:00,50.0,41.3,30.10,SSW,206,2.2,3.3,72,0.00,,,0.00,0.00,VWS V14.01,2013-01-24 09:08:00,
2013-01-24 04:09:00,50.0,41.3,30.10,SSW,202,1.1,3.3,72,0.00,,,0.00,0.00,VWS V14.01,2013-01-24 09:09:00,
2013-01-24 04:10:00,50.0,41.3,30.10,SW,219,4.4,4.4,72,0.00,,,0.00,0.00,VWS V14.01,2013-01-24 09:10:00,
2013-01-24 04:11:00,50.0,41.3,30.10,SW,221,11.0,11.0,72,0.00,,,0.00,0.00,VWS V14.01,2013-01-24 09:11:00,
2013-01-24 04:12:00,50.0,41.3,30.10,SW,232,9.9,12.1,72,0.00,,,0.00,0.00,VWS V14.01,2013-01-24 09:12:00,
2013-01-24 04:13:00,50.0,41.3,30.10,SW,228,6.6,6.6,72,0.00,,,0.00,0.00,VWS V14.01,2013-01-24 09:13:00,
2013-01-24 04:14:00,50.0,41.3,30.10,SSW,212,5.5,7.7,72,0.00,,,0.00,0.00,VWS V14.01,2013-01-24 09:14:00,
2013-01-24 04:15:00,50.0,41.4,30.10,South,189,3.3,5.5,72,0.00,,,0.00,0.00,VWS V14.01,2013-01-24 09:15:00,
2013-01-24 04:16:00,50.0,41.4,30.10,South,186,3.3,4.4,72,0.00,,,0.00,0.00,VWS V14.01,2013-01-24 09:16:00,
2013-01-24 04:17:00,50.0,41.4,30.10,SSW,198,4.4,6.6,72,0.00,,,0.00,0.00,VWS V14.01,2013-01-24 09:17:00,
2013-01-24 04:18:00,50.0,41.4,30.10,South,186,5.5,7.7,72,0.00,,,0.00,0.00,VWS V14.01,2013-01-24 09:18:00,
2013-01-24 04:19:00,50.0,41.4,30.10,SW,217,3.3,7.7,72,0.00,,,0.00,0.00,VWS V14.01,2013-01-24 09:19:00,
2013-01-24 04:20:00,50.0,41.4,30.10,WSW,237,1.1,3.3,72,0.00,,,0.00,0.00,VWS V14.01,2013-01-24 09:20:00,
2013-01-24 04:21:00,50.0,41.3,30.10,SW,224,5.5,7.7,72,0.00,,,0.00,0.00,VWS V14.01,2013-01-24 09:21:00,
2013-01-24 04:22:00,50.0,41.4,30.10,SSW,211,4.4,8.8,72,0.00,,,0.00,0.00,VWS V14.01,2013-01-24 09:22:00,
2013-01-24 04:23:00,50.0,41.3,30.10,SW,225,2.2,4.4,72,0.00,,,0.00,0.00,VWS V14.01,2013-01-24 09:23:00,
2013-01-24 04:24:00,50.0,41.3,30.10,SW,221,2.2,4.4,72,0.00,,,0.00,0.00,VWS V14.01,2013-01-24 09:24:00,
2013-01-24 04:25:00,50.0,41.3,30.10,West,277,3.3,8.8,72,0.00,,,0.00,0.00,VWS V14.01,2013-01-24 09:25:00,
2013-01-24 04:26:00,50.0,41.3,30.10,SSW,205,3.3,7.7,72,0.00,,,0.00,0.00,VWS V14.01,2013-01-24 09:26:00,
2013-01-24 04:27:00,50.0,41.3,30.09,SSW,202,2.2,4.4,72,0.00,,,0.00,0.00,VWS V14.01,2013-01-24 09:27:00,
2013-01-24 04:28:00,50.0,41.3,30.09,South,178,4.4,4.4,72,0.00,,,0.00,0.00,VWS V14.01,2013-01-24 09:28:00,
2013-01-24 04:29:00,50.0,41.3,30.09,South,190,6.6,6.6,72,0.00,,,0.00,0.00,VWS V14.01,2013-01-24 09:29:00,
2013-01-24 04:30:00,50.0,41.3,30.09,SW,231,7.7,7.7,72,0.00,,,0.00,0.00,VWS V14.01,2013-01-24 09:30:00,
2013-01-24 04:31:00,49.8,41.2,30.09,West,277,1.1,7.7,72,0.00,,,0.00,0.00,VWS V14.01,2013-01-24 09:31:00,
2013-01-24 04:32:00,49.8,41.2,30.09,SSW,209,4.4,5.5,72,0.00,,,0.00,0.00,VWS V14.01,2013-01-24 09:32:00,
2013-01-24 04:33:00,49.8,41.5,30.09,West,278,3.3,3.3,73,0.00,,,0.00,0.00,VWS V14.01,2013-01-24 09:33:00,
2013-01-24 04:34:00,49.8,41.5,30.09,SE,142,4.4,4.4,73,0.00,,,0.00,0.00,VWS V14.01,2013-01-24 09:34:00,
2013-01-24 04:35:00,49.8,41.5,30.09,SSW,203,2.2,6.6,73,0.00,,,0.00,0.00,VWS V14.01,2013-01-24 09:35:00,
2013-01-24 04:36:00,49.8,41.5,30.09,WSW,238,2.2,2.2,73,0.00,,,0.00,0.00,VWS V14.01,2013-01-24 09:36:00,
2013-01-24 04:37:00,49.8,41.5,30.09,SSW,201,7.7,8.8,73,0.00,,,0.00,0.00,VWS V14.01,2013-01-24 09:37:00,
2013-01-24 04:38:00,49.8,41.5,30.09,South,191,1.1,6.6,73,0.00,,,0.00,0.00,VWS V14.01,2013-01-24 09:38:00,
2013-01-24 04:39:00,49.8,41.5,30.09,SW,219,4.4,6.6,73,0.00,,,0.00,0.00,VWS V14.01,2013-01-24 09:39:00,
2013-01-24 04:40:00,49.8,41.5,30.09,SSW,203,3.3,7.7,73,0.00,,,0.00,0.00,VWS V14.01,2013-01-24 09:40:00,
2013-01-24 04:41:00,49.8,41.5,30.09,SW,233,6.6,6.6,73,0.00,,,0.00,0.00,VWS V14.01,2013-01-24 09:41:00,
2013-01-24 04:42:00,49.8,41.5,30.09,SSW,195,5.5,6.6,73,0.00,,,0.00,0.00,VWS V14.01,2013-01-24 09:42:00,
2013-01-24 04:43:00,49.8,41.5,30.09,WNW,283,1.1,3.3,73,0.00,,,0.00,0.00,VWS V14.01,2013-01-24 09:43:00,
2013-01-24 04:44:00,49.8,41.5,30.09,SSW,197,1.1,3.3,73,0.00,,,0.00,0.00,VWS V14.01,2013-01-24 09:44:00,
2013-01-24 04:45:00,49.8,41.5,30.09,SSE,156,3.3,6.6,73,0.00,,,0.00,0.00,VWS V14.01,2013-01-24 09:45:00,
2013-01-24 04:46:00,49.8,41.5,30.09,SSW,200,4.4,6.6,73,0.00,,,0.00,0.00,VWS V14.01,2013-01-24 09:46:00,
2013-01-24 04:47:00,49.8,41.5,30.09,South,174,5.5,6.6,73,0.00,,,0.00,0.00,VWS V14.01,2013-01-24 09:47:00,
2013-01-24 04:48:00,49.8,41.5,30.09,SSW,212,4.4,4.4,73,0.00,,,0.00,0.00,VWS V14.01,2013-01-24 09:48:00,
2013-01-24 04:49:00,49.8,41.5,30.09,WSW,247,4.4,4.4,73,0.00,,,0.00,0.00,VWS V14.01,2013-01-24 09:49:00,
2013-01-24 04:50:00,49.8,41.5,30.09,WSW,253,3.3,5.5,73,0.00,,,0.00,0.00,VWS V14.01,2013-01-24 09:50:00,
2013-01-24 04:51:00,49.8,41.5,30.09,SW,223,3.3,6.6,73,0.00,,,0.00,0.00,VWS V14.01,2013-01-24 09:51:00,
2013-01-24 04:52:00,49.8,41.5,30.09,SW,221,2.2,3.3,73,0.00,,,0.00,0.00,VWS V14.01,2013-01-24 09:52:00,
2013-01-24 04:53:00,49.8,41.5,30.09,SSW,195,6.6,6.6,73,0.00,,,0.00,0.00,VWS V14.01,2013-01-24 09:53:00,
2013-01-24 04:54:00,49.8,41.5,30.09,SW,229,3.3,6.6,73,0.00,,,0.00,0.00,VWS V14.01,2013-01-24 09:54:00,
2013-01-24 04:55:00,49.8,41.5,30.09,SSW,203,0.0,4.4,73,0.00,,,0.00,0.00,VWS V14.01,2013-01-24 09:55:00,
2013-01-24 04:56:00,49.8,41.5,30.09,South,186,4.4,6.6,73,0.00,,,0.00,0.00,VWS V14.01,2013-01-24 09:56:00,
2013-01-24 04:57:00,49.8,41.5,30.09,WSW,243,4.4,6.6,73,0.00,,,0.00,0.00,VWS V14.01,2013-01-24 09:57:00,
2013-01-24 04:58:00,49.8,41.5,30.09,WSW,251,1.1,5.5,73,0.00,,,0.00,0.00,VWS V14.01,2013-01-24 09:58:00,
2013-01-24 04:59:00,49.8,41.5,30.09,SSW,212,8.8,8.8,73,0.00,,,0.00,0.00,VWS V14.01,2013-01-24 09:59:00,
2013-01-24 05:00:00,50.0,41.7,30.09,WSW,248,9.9,9.9,73,0.00,,,0.00,0.00,VWS V14.01,2013-01-24 10:00:00,
2013-01-24 05:01:00,50.0,41.7,30.09,WSW,239,3.3,13.2,73,0.00,,,0.00,0.00,VWS V14.01,2013-01-24 10:01:00,
2013-01-24 05:02:00,50.0,42.0,30.09,SW,216,3.3,4.4,74,0.00,,,0.00,0.00,VWS V14.01,2013-01-24 10:02:00,
2013-01-24 05:03:00,50.0,41.7,30.09,SW,235,4.4,4.4,73,0.00,,,0.00,0.00,VWS V14.01,2013-01-24 10:03:00,
2013-01-24 05:04:00,50.0,41.7,30.09,SW,222,3.3,5.5,73,0.00,,,0.00,0.00,VWS V14.01,2013-01-24 10:04:00,
2013-01-24 05:05:00,50.0,41.8,30.09,West,268,1.1,5.5,73,0.00,,,0.00,0.00,VWS V14.01,2013-01-24 10:05:00,
2013-01-24 05:06:00,50.0,41.8,30.09,SW,216,3.3,5.5,73,0.00,,,0.00,0.00,VWS V14.01,2013-01-24 10:06:00,
2013-01-24 05:07:00,50.0,41.8,30.09,SW,215,2.2,4.4,73,0.00,,,0.00,0.00,VWS V14.01,2013-01-24 10:07:00,
2013-01-24 05:08:00,50.0,41.8,30.09,West,266,2.2,5.5,73,0.00,,,0.00,0.00,VWS V14.01,2013-01-24 10:08:00,
2013-01-24 05:09:00,50.0,41.8,30.09,SSE,167,3.3,5.5,73,0.00,,,0.00,0.00,VWS V14.01,2013-01-24 10:09:00,
2013-01-24 05:10:00,50.0,42.1,30.09,South,179,6.6,6.6,74,0.00,,,0.00,0.00,VWS V14.01,2013-01-24 10:10:00,
2013-01-24 05:11:00,50.0,42.1,30.09,SSW,212,3.3,6.6,74,0.00,,,0.00,0.00,VWS V14.01,2013-01-24 10:11:00,
2013-01-24 05:12:00,50.0,41.8,30.09,WSW,240,5.5,7.7,73,0.00,,,0.00,0.00,VWS V14.01,2013-01-24 10:12:00,
2013-01-24 05:13:00,50.2,42.2,30.09,SSW,205,7.7,7.7,74,0.00,,,0.00,0.00,VWS V14.01,2013-01-24 10:13:00,
2013-01-24 05:14:00,50.2,42.2,30.09,SW,220,5.5,7.7,74,0.00,,,0.00,0.00,VWS V14.01,2013-01-24 10:14:00,
2013-01-24 05:15:00,50.2,41.8,30.09,WSW,251,5.5,7.7,73,0.00,,,0.00,0.00,VWS V14.01,2013-01-24 10:15:00,
2013-01-24 05:16:00,50.2,41.8,30.09,WSW,239,5.5,5.5,73,0.00,,,0.00,0.00,VWS V14.01,2013-01-24 10:16:00,
2013-01-24 05:17:00,50.2,41.8,30.09,SSW,202,8.8,8.8,73,0.00,,,0.00,0.00,VWS V14.01,2013-01-24 10:17:00,
2013-01-24 05:18:00,50.2,41.9,30.09,SSW,198,4.4,5.5,73,0.00,,,0.00,0.00,VWS V14.01,2013-01-24 10:18:00,
2013-01-24 05:19:00,50.2,41.9,30.09,WSW,255,8.8,8.8,73,0.00,,,0.00,0.00,VWS V14.01,2013-01-24 10:19:00,
2013-01-24 05:20:00,50.2,41.9,30.09,SW,216,1.1,8.8,73,0.00,,,0.00,0.00,VWS V14.01,2013-01-24 10:20:00,
2013-01-24 05:21:00,50.3,42.0,30.09,WSW,240,5.5,5.5,73,0.00,,,0.00,0.00,VWS V14.01,2013-01-24 10:21:00,
2013-01-24 05:22:00,50.3,42.0,30.09,SSW,204,1.1,5.5,73,0.00,,,0.00,0.00,VWS V14.01,2013-01-24 10:22:00,
2013-01-24 05:23:00,50.3,42.0,30.09,SW,234,4.4,6.6,73,0.00,,,0.00,0.00,VWS V14.01,2013-01-24 10:23:00,
2013-01-24 05:24:00,50.3,42.0,30.09,SW,220,5.5,6.6,73,0.00,,,0.00,0.00,VWS V14.01,2013-01-24 10:24:00,
2013-01-24 05:25:00,50.3,42.0,30.09,West,262,2.2,12.1,73,0.00,,,0.00,0.00,VWS V14.01,2013-01-24 10:25:00,
2013-01-24 05:26:00,50.3,42.0,30.09,SSW,210,2.2,5.5,73,0.00,,,0.00,0.00,VWS V14.01,2013-01-24 10:26:00,
2013-01-24 05:27:00,50.5,42.1,30.09,WSW,241,2.2,9.9,73,0.00,,,0.00,0.00,VWS V14.01,2013-01-24 10:27:00,
2013-01-24 05:28:00,50.5,42.1,30.09,SSW,193,4.4,8.8,73,0.00,,,0.00,0.00,VWS V14.01,2013-01-24 10:28:00,
2013-01-24 05:29:00,50.5,42.1,30.09,WSW,245,3.3,8.8,73,0.00,,,0.00,0.00,VWS V14.01,2013-01-24 10:29:00,
2013-01-24 05:30:00,50.5,42.1,30.09,SE,126,1.1,3.3,73,0.00,,,0.00,0.00,VWS V14.01,2013-01-24 10:30:00,
2013-01-24 05:31:00,50.5,42.1,30.09,SW,230,4.4,4.4,73,0.00,,,0.00,0.00,VWS V14.01,2013-01-24 10:31:00,
2013-01-24 05:32:00,50.5,42.1,30.09,WSW,252,2.2,7.7,73,0.00,,,0.00,0.00,VWS V14.01,2013-01-24 10:32:00,
2013-01-24 05:33:00,50.5,42.1,30.09,WNW,302,7.7,8.8,73,0.00,,,0.00,0.00,VWS V14.01,2013-01-24 10:33:00,
2013-01-24 05:34:00,50.5,42.1,30.09,West,261,3.3,8.8,73,0.00,,,0.00,0.00,VWS V14.01,2013-01-24 10:34:00,
2013-01-24 05:35:00,50.5,42.1,30.09,SSW,200,1.1,6.6,73,0.00,,,0.00,0.00,VWS V14.01,2013-01-24 10:35:00,
2013-01-24 05:36:00,50.5,42.1,30.09,WSW,239,4.4,5.5,73,0.00,,,0.00,0.00,VWS V14.01,2013-01-24 10:36:00,
2013-01-24 05:37:00,50.5,42.1,30.09,NNW,348,2.2,6.6,73,0.00,,,0.00,0.00,VWS V14.01,2013-01-24 10:37:00,
2013-01-24 05:38:00,50.5,42.1,30.09,South,183,5.5,5.5,73,0.00,,,0.00,0.00,VWS V14.01,2013-01-24 10:38:00,
2013-01-24 05:39:00,50.5,42.1,30.09,WSW,239,2.2,5.5,73,0.00,,,0.00,0.00,VWS V14.01,2013-01-24 10:39:00,
2013-01-24 05:40:00,50.5,42.1,30.09,SSW,204,3.3,7.7,73,0.00,,,0.00,0.00,VWS V14.01,2013-01-24 10:40:00,
2013-01-24 05:41:00,50.5,42.1,30.09,NW,304,5.5,5.5,73,0.00,,,0.00,0.00,VWS V14.01,2013-01-24 10:41:00,
2013-01-24 05:42:00,50.5,42.5,30.09,West,261,5.5,9.9,74,0.00,,,0.00,0.00,VWS V14.01,2013-01-24 10:42:00,
2013-01-24 05:43:00,50.5,42.5,30.09,WNW,283,3.3,4.4,74,0.00,,,0.00,0.00,VWS V14.01,2013-01-24 10:43:00,
2013-01-24 05:44:00,50.5,42.5,30.09,SW,235,5.5,6.6,74,0.00,,,0.00,0.00,VWS V14.01,2013-01-24 10:44:00,
2013-01-24 05:45:00,50.5,42.5,30.09,SW,235,1.1,7.7,74,0.00,,,0.00,0.00,VWS V14.01,2013-01-24 10:45:00,
2013-01-24 05:46:00,50.5,42.5,30.09,SSW,212,5.5,8.8,74,0.00,,,0.00,0.00,VWS V14.01,2013-01-24 10:46:00,
2013-01-24 05:47:00,50.5,42.5,30.09,SW,228,4.4,11.0,74,0.00,,,0.00,0.00,VWS V14.01,2013-01-24 10:47:00,
2013-01-24 05:48:00,50.5,42.6,30.09,WSW,255,1.1,4.4,74,0.00,,,0.00,0.00,VWS V14.01,2013-01-24 10:48:00,
2013-01-24 05:49:00,50.5,42.6,30.09,WSW,241,3.3,4.4,74,0.00,,,0.00,0.00,VWS V14.01,2013-01-24 10:49:00,
2013-01-24 05:50:00,50.5,42.6,30.09,WSW,237,3.3,4.4,74,0.00,,,0.00,0.00,VWS V14.01,2013-01-24 10:50:00,
2013-01-24 05:51:00,50.5,42.6,30.10,WSW,250,2.2,7.7,74,0.00,,,0.00,0.00,VWS V14.01,2013-01-24 10:51:00,
2013-01-24 05:52:00,50.5,42.6,30.09,WSW,256,6.6,8.8,74,0.00,,,0.00,0.00,VWS V14.01,2013-01-24 10:52:00,
2013-01-24 05:53:00,50.5,42.6,30.09,WSW,237,8.8,9.9,74,0.00,,,0.00,0.00,VWS V14.01,2013-01-24 10:53:00,
2013-01-24 05:54:00,50.7,42.7,30.09,West,277,2.2,9.9,74,0.00,,,0.00,0.00,VWS V14.01,2013-01-24 10:54:00,
2013-01-24 05:55:00,50.7,42.7,30.09,SW,220,6.6,6.6,74,0.00,,,0.00,0.00,VWS V14.01,2013-01-24 10:55:00,
2013-01-24 05:56:00,50.7,42.7,30.10,SW,236,3.3,9.9,74,0.00,,,0.00,0.00,VWS V14.01,2013-01-24 10:56:00,
2013-01-24 05:57:00,50.7,42.7,30.09,SW,235,0.0,3.3,74,0.00,,,0.00,0.00,VWS V14.01,2013-01-24 10:57:00,
2013-01-24 05:58:00,50.8,42.8,30.10,West,278,3.3,6.6,74,0.00,,,0.00,0.00,VWS V14.01,2013-01-24 10:58:00,
2013-01-24 05:59:00,50.8,42.8,30.10,SW,229,3.3,6.6,74,0.00,,,0.00,0.00,VWS V14.01,2013-01-24 10:59:00,
2013-01-24 06:00:00,50.8,42.8,30.09,SSW,212,5.5,6.6,74,0.00,,,0.00,0.00,VWS V14.01,2013-01-24 11:00:00,
2013-01-24 06:01:00,50.8,42.8,30.10,SW,234,3.3,5.5,74,0.00,,,0.00,0.00,VWS V14.01,2013-01-24 11:01:00,
2013-01-24 06:02:00,50.8,42.8,30.10,SSW,208,3.3,12.1,74,0.00,,,0.00,0.00,VWS V14.01,2013-01-24 11:02:00,
2013-01-24 06:03:00,50.8,42.9,30.10,SSW,202,3.3,7.7,74,0.00,,,0.00,0.00,VWS V14.01,2013-01-24 11:03:00,
2013-01-24 06:04:00,50.8,42.9,30.10,NW,313,4.4,7.7,74,0.00,,,0.00,0.00,VWS V14.01,2013-01-24 11:04:00,
2013-01-24 06:06:00,50.8,43.2,30.10,South,187,3.3,8.8,75,0.00,,,0.00,0.00,VWS V14.01,2013-01-24 11:06:00,
2013-01-24 06:07:00,50.8,42.9,30.10,WNW,285,2.2,6.6,74,0.00,,,0.00,0.00,VWS V14.01,2013-01-24 11:07:00,
2013-01-24 06:08:00,51.0,43.0,30.10,WNW,295,1.1,9.9,74,0.00,,,0.00,0.00,VWS V14.01,2013-01-24 11:08:00,
2013-01-24 06:09:00,51.0,43.0,30.10,WSW,239,2.2,9.9,74,0.00,,,0.00,0.00,VWS V14.01,2013-01-24 11:09:00,
2013-01-24 06:10:00,51.0,43.0,30.10,WSW,237,0.0,2.2,74,0.00,,,0.00,0.00,VWS V14.01,2013-01-24 11:10:00,
2013-01-24 06:11:00,51.0,43.0,30.10,SW,235,3.3,6.6,74,0.00,,,0.00,0.00,VWS V14.01,2013-01-24 11:11:00,
2013-01-24 06:12:00,51.0,43.0,30.10,West,274,0.0,3.3,74,0.00,,,0.00,0.00,VWS V14.01,2013-01-24 11:12:00,
2013-01-24 06:13:00,50.8,43.2,30.10,WNW,301,2.2,7.7,75,0.00,,,0.00,0.00,VWS V14.01,2013-01-24 11:13:00,
2013-01-24 06:14:00,50.8,43.2,30.10,WSW,247,5.5,7.7,75,0.00,,,0.00,0.00,VWS V14.01,2013-01-24 11:14:00,
2013-01-24 06:15:00,50.8,43.2,30.11,SW,231,8.8,8.8,75,0.00,,,0.00,0.00,VWS V14.01,2013-01-24 11:15:00,
2013-01-24 06:16:00,50.8,43.2,30.11,WSW,239,3.3,8.8,75,0.00,,,0.00,0.00,VWS V14.01,2013-01-24 11:16:00,
2013-01-24 06:17:00,50.8,43.2,30.11,WSW,258,2.2,4.4,75,0.00,,,0.00,0.00,VWS V14.01,2013-01-24 11:17:00,
2013-01-24 06:18:00,50.8,43.2,30.10,West,260,4.4,8.8,75,0.00,,,0.00,0.00,VWS V14.01,2013-01-24 11:18:00,
2013-01-24 06:19:00,50.8,43.2,30.10,West,268,5.5,8.8,75,0.00,,,0.00,0.00,VWS V14.01,2013-01-24 11:19:00,
2013-01-24 06:20:00,51.0,43.3,30.10,WSW,252,1.1,5.5,75,0.00,,,0.00,0.00,VWS V14.01,2013-01-24 11:20:00,
2013-01-24 06:21:00,51.0,43.3,30.10,SW,220,3.3,4.4,75,0.00,,,0.00,0.00,VWS V14.01,2013-01-24 11:21:00,
2013-01-24 06:22:00,50.8,43.2,30.10,SSE,160,1.1,3.3,75,0.00,,,0.00,0.00,VWS V14.01,2013-01-24 11:22:00,
2013-01-24 06:23:00,50.8,43.2,30.10,NW,312,1.1,6.6,75,0.00,,,0.00,0.00,VWS V14.01,2013-01-24 11:23:00,
2013-01-24 06:24:00,51.0,43.3,30.10,SW,234,2.2,6.6,75,0.00,,,0.00,0.00,VWS V14.01,2013-01-24 11:24:00,
2013-01-24 06:25:00,51.0,43.3,30.10,SW,219,1.1,2.2,75,0.00,,,0.00,0.00,VWS V14.01,2013-01-24 11:25:00,
2013-01-24 06:26:00,50.8,43.2,30.11,WSW,237,0.0,6.6,75,0.00,,,0.00,0.00,VWS V14.01,2013-01-24 11:26:00,
2013-01-24 06:27:00,50.8,43.2,30.10,SW,216,0.0,3.3,75,0.00,,,0.00,0.00,VWS V14.01,2013-01-24 11:27:00,
2013-01-24 06:28:00,50.8,43.6,30.11,WSW,242,7.7,7.7,76,0.00,,,0.00,0.00,VWS V14.01,2013-01-24 11:28:00,
2013-01-24 06:29:00,50.8,43.6,30.11,SW,236,3.3,7.7,76,0.00,,,0.00,0.00,VWS V14.01,2013-01-24 11:29:00,
2013-01-24 06:30:00,50.8,43.6,30.11,WSW,254,3.3,6.6,76,0.00,,,0.00,0.00,VWS V14.01,2013-01-24 11:30:00,
2013-01-24 06:31:00,50.8,43.6,30.11,West,262,3.3,5.5,76,0.00,,,0.00,0.00,VWS V14.01,2013-01-24 11:31:00,
2013-01-24 06:32:00,50.8,43.6,30.11,SW,218,6.6,6.6,76,0.00,,,0.00,0.00,VWS V14.01,2013-01-24 11:32:00,
2013-01-24 06:33:00,50.8,43.6,30.11,NW,306,1.1,5.5,76,0.00,,,0.00,0.00,VWS V14.01,2013-01-24 11:33:00,
2013-01-24 06:34:00,50.8,43.6,30.11,WNW,302,0.0,5.5,76,0.00,,,0.00,0.00,VWS V14.01,2013-01-24 11:34:00,
2013-01-24 06:35:00,50.8,43.6,30.11,WSW,240,1.1,4.4,76,0.00,,,0.00,0.00,VWS V14.01,2013-01-24 11:35:00,
2013-01-24 06:36:00,50.8,43.6,30.11,WNW,285,2.2,4.4,76,0.00,,,0.00,0.00,VWS V14.01,2013-01-24 11:36:00,
2013-01-24 06:37:00,50.8,43.6,30.11,SW,222,1.1,3.3,76,0.00,,,0.00,0.00,VWS V14.01,2013-01-24 11:37:00,
2013-01-24 06:38:00,50.8,43.6,30.11,SSW,211,2.2,2.2,76,0.00,,,0.00,0.00,VWS V14.01,2013-01-24 11:38:00,
2013-01-24 06:39:00,50.8,43.6,30.11,East,90,1.1,2.2,76,0.00,,,0.00,0.00,VWS V14.01,2013-01-24 11:39:00,
2013-01-24 06:40:00,50.8,43.5,30.11,SW,219,3.3,3.3,76,0.00,,,0.00,0.00,VWS V14.01,2013-01-24 11:40:00,
2013-01-24 06:41:00,50.8,43.5,30.11,SSW,212,2.2,6.6,76,0.00,,,0.00,0.00,VWS V14.01,2013-01-24 11:41:00,
2013-01-24 06:42:00,50.7,43.4,30.11,SW,232,3.3,3.3,76,0.00,,,0.00,0.00,VWS V14.01,2013-01-24 11:42:00,
2013-01-24 06:43:00,50.7,43.4,30.10,WNW,285,3.3,4.4,76,0.00,,,0.00,0.00,VWS V14.01,2013-01-24 11:43:00,
2013-01-24 06:44:00,50.7,43.4,30.10,WNW,285,0.0,4.4,76,0.00,,,0.00,0.00,VWS V14.01,2013-01-24 11:44:00,
2013-01-24 06:45:00,50.5,43.3,30.11,SW,227,3.3,3.3,76,0.00,,,0.00,0.00,VWS V14.01,2013-01-24 11:45:00,
2013-01-24 06:46:00,50.5,43.3,30.11,SW,234,5.5,6.6,76,0.00,,,0.00,0.00,VWS V14.01,2013-01-24 11:46:00,
2013-01-24 06:47:00,50.5,43.3,30.10,South,191,3.3,5.5,76,0.00,,,0.00,0.00,VWS V14.01,2013-01-24 11:47:00,
2013-01-24 06:48:00,50.5,43.2,30.10,SW,225,4.4,4.4,76,0.00,,,0.00,0.00,VWS V14.01,2013-01-24 11:48:00,
2013-01-24 06:49:00,50.5,43.2,30.10,WNW,300,0.0,4.4,76,0.00,,,0.00,0.00,VWS V14.01,2013-01-24 11:49:00,
2013-01-24 06:50:00,50.5,43.2,30.10,WSW,238,6.6,9.9,76,0.00,,,0.00,0.00,VWS V14.01,2013-01-24 11:50:00,
2013-01-24 06:51:00,50.5,43.5,30.10,SSW,204,3.3,6.6,77,0.00,,,0.00,0.00,VWS V14.01,2013-01-24 11:51:00,
2013-01-24 06:52:00,50.5,43.5,30.10,SW,233,2.2,3.3,77,0.00,,,0.00,0.00,VWS V14.01,2013-01-24 11:52:00,
2013-01-24 06:53:00,50.3,43.4,30.10,SW,214,0.0,3.3,77,0.00,,,0.00,0.00,VWS V14.01,2013-01-24 11:53:00,
2013-01-24 06:54:00,50.3,43.4,30.10,SW,229,2.2,3.3,77,0.00,,,0.00,0.00,VWS V14.01,2013-01-24 11:54:00,
2013-01-24 06:55:00,50.3,43.4,30.10,WSW,249,2.2,3.3,77,0.00,,,0.00,0.00,VWS V14.01,2013-01-24 11:55:00,
2013-01-24 06:56:00,50.2,43.3,30.10,SW,215,4.4,5.5,77,0.00,,,0.00,0.00,VWS V14.01,2013-01-24 11:56:00,
2013-01-24 06:57:00,50.2,43.3,30.10,SW,216,1.1,6.6,77,0.00,,,0.00,0.00,VWS V14.01,2013-01-24 11:57:00,
2013-01-24 06:58:00,50.2,43.2,30.11,SSE,159,9.9,9.9,77,0.00,,,0.00,0.00,VWS V14.01,2013-01-24 11:58:00,
2013-01-24 06:59:00,50.2,43.2,30.11,SSW,212,2.2,9.9,77,0.00,,,0.00,0.00,VWS V14.01,2013-01-24 11:59:00,
2013-01-24 07:00:00,50.2,43.2,30.10,SW,235,2.2,5.5,77,0.00,,,0.00,0.00,VWS V14.01,2013-01-24 12:00:00,
2013-01-24 07:01:00,50.2,43.2,30.10,WSW,254,2.2,5.5,77,0.00,,,0.00,0.00,VWS V14.01,2013-01-24 12:01:00,
2013-01-24 07:02:00,50.2,43.2,30.11,WSW,246,3.3,4.4,77,0.00,,,0.00,0.00,VWS V14.01,2013-01-24 12:02:00,
2013-01-24 07:03:00,50.0,43.1,30.11,SSW,205,3.3,5.5,77,0.00,,,0.00,0.00,VWS V14.01,2013-01-24 12:03:00,
2013-01-24 07:04:00,50.0,43.1,30.11,SSW,206,2.2,5.5,77,0.00,,,0.00,0.00,VWS V14.01,2013-01-24 12:04:00,
2013-01-24 07:05:00,50.0,43.1,30.11,SW,231,4.4,7.7,77,0.00,,,0.00,0.00,VWS V14.01,2013-01-24 12:05:00,
2013-01-24 07:06:00,50.0,43.5,30.11,West,268,4.4,4.4,78,0.00,,,0.00,0.00,VWS V14.01,2013-01-24 12:06:00,
2013-01-24 07:07:00,50.0,43.5,30.11,SW,225,1.1,4.4,78,0.00,,,0.00,0.00,VWS V14.01,2013-01-24 12:07:00,
2013-01-24 07:08:00,50.0,43.4,30.10,SSE,156,2.2,4.4,78,0.00,,,0.00,0.00,VWS V14.01,2013-01-24 12:08:00,
2013-01-24 07:09:00,50.0,43.4,30.10,SSE,162,0.0,4.4,78,0.00,,,0.00,0.00,VWS V14.01,2013-01-24 12:09:00,
2013-01-24 07:10:00,50.0,43.4,30.10,SW,226,2.2,5.5,78,0.00,,,0.00,0.00,VWS V14.01,2013-01-24 12:10:00,
2013-01-24 07:11:00,49.8,43.3,30.10,SSW,202,4.4,4.4,78,0.00,,,0.00,0.00,VWS V14.01,2013-01-24 12:11:00,
2013-01-24 07:12:00,49.8,43.3,30.10,SSE,167,5.5,6.6,78,0.00,,,0.00,0.00,VWS V14.01,2013-01-24 12:12:00,
2013-01-24 07:13:00,49.8,43.2,30.10,SW,227,3.3,7.7,78,0.00,,,0.00,0.00,VWS V14.01,2013-01-24 12:13:00,
2013-01-24 07:14:00,49.8,43.2,30.10,SW,214,1.1,7.7,78,0.00,,,0.00,0.00,VWS V14.01,2013-01-24 12:14:00,
2013-01-24 07:15:00,49.8,43.2,30.10,SW,231,2.2,4.4,78,0.00,,,0.00,0.00,VWS V14.01,2013-01-24 12:15:00,
2013-01-24 07:16:00,49.8,43.2,30.10,SW,227,2.2,5.5,78,0.00,,,0.00,0.00,VWS V14.01,2013-01-24 12:16:00,
2013-01-24 07:17:00,49.8,43.2,30.10,SW,218,0.0,2.2,78,0.00,,,0.00,0.00,VWS V14.01,2013-01-24 12:17:00,
2013-01-24 07:18:00,49.7,43.1,30.10,West,259,0.0,2.2,78,0.00,,,0.00,0.00,VWS V14.01,2013-01-24 12:18:00,
2013-01-24 07:19:00,49.7,43.1,30.10,WSW,240,4.4,4.4,78,0.00,,,0.00,0.00,VWS V14.01,2013-01-24 12:19:00,
2013-01-24 07:20:00,49.7,43.1,30.10,SSW,204,3.3,7.7,78,0.00,,,0.00,0.00,VWS V14.01,2013-01-24 12:20:00,
2013-01-24 07:21:00,49.7,43.4,30.10,SW,219,2.2,7.7,79,0.00,,,0.00,0.00,VWS V14.01,2013-01-24 12:21:00,
2013-01-24 07:22:00,49.5,43.3,30.10,SSW,212,2.2,2.2,79,0.00,,,0.00,0.00,VWS V14.01,2013-01-24 12:22:00,
2013-01-24 07:23:00,49.5,43.3,30.10,SW,214,0.0,0.0,79,0.00,,,0.00,0.00,VWS V14.01,2013-01-24 12:23:00,
2013-01-24 07:24:00,49.5,43.3,30.10,SSW,206,4.4,5.5,79,0.00,,,0.00,0.00,VWS V14.01,2013-01-24 12:24:00,
2013-01-24 07:25:00,49.5,43.3,30.10,SW,217,2.2,6.6,79,0.00,,,0.00,5.00,VWS V14.01,2013-01-24 12:25:00,
2013-01-24 07:26:00,49.5,43.3,30.10,SSW,202,3.3,5.5,79,0.00,,,0.00,5.00,VWS V14.01,2013-01-24 12:26:00,
2013-01-24 07:27:00,49.5,43.3,30.10,SW,230,4.4,5.5,79,0.00,,,0.00,5.00,VWS V14.01,2013-01-24 12:27:00,
2013-01-24 07:28:00,49.5,43.3,30.10,WSW,256,0.0,5.5,79,0.00,,,0.00,7.00,VWS V14.01,2013-01-24 12:28:00,
2013-01-24 07:29:00,49.5,43.2,30.10,SSW,209,3.3,5.5,79,0.00,,,0.00,7.00,VWS V14.01,2013-01-24 12:29:00,
2013-01-24 07:30:00,49.5,43.3,30.10,WSW,248,0.0,4.4,79,0.00,,,0.00,7.00,VWS V14.01,2013-01-24 12:30:00,
2013-01-24 07:31:00,49.5,43.3,30.10,WSW,256,0.0,5.5,79,0.00,,,0.00,7.00,VWS V14.01,2013-01-24 12:31:00,
2013-01-24 07:32:00,49.5,43.3,30.10,WSW,244,2.2,3.3,79,0.00,,,0.00,7.00,VWS V14.01,2013-01-24 12:32:00,
2013-01-24 07:33:00,49.5,43.2,30.11,WSW,244,3.3,4.4,79,0.00,,,0.00,9.00,VWS V14.01,2013-01-24 12:33:00,
2013-01-24 07:34:00,49.5,43.3,30.11,WSW,243,0.0,4.4,79,0.00,,,0.00,9.00,VWS V14.01,2013-01-24 12:34:00,
2013-01-24 07:35:00,49.5,43.2,30.11,West,264,1.1,1.1,79,0.00,,,0.00,9.00,VWS V14.01,2013-01-24 12:35:00,
2013-01-24 07:36:00,49.5,43.2,30.11,SSW,207,3.3,4.4,79,0.00,,,0.00,9.00,VWS V14.01,2013-01-24 12:36:00,
2013-01-24 07:37:00,49.5,43.5,30.11,WSW,249,1.1,6.6,80,0.00,,,0.00,11.00,VWS V14.01,2013-01-24 12:37:00,
2013-01-24 07:38:00,49.5,43.5,30.11,WSW,245,5.5,8.8,80,0.00,,,0.00,11.00,VWS V14.01,2013-01-24 12:38:00,
2013-01-24 07:39:00,49.5,43.5,30.11,WSW,246,0.0,8.8,80,0.00,,,0.00,11.00,VWS V14.01,2013-01-24 12:39:00,
2013-01-24 07:40:00,49.5,43.5,30.11,SW,229,2.2,3.3,80,0.00,,,0.00,11.00,VWS V14.01,2013-01-24 12:40:00,
2013-01-24 07:41:00,49.5,43.5,30.11,SSW,207,5.5,5.5,80,0.00,,,0.00,11.00,VWS V14.01,2013-01-24 12:41:00,
2013-01-24 07:42:00,49.5,43.7,30.11,SSW,206,2.2,5.5,80,0.00,,,0.00,11.00,VWS V14.01,2013-01-24 12:42:00,
2013-01-24 07:43:00,49.5,43.6,30.11,SSW,198,2.2,2.2,80,0.00,,,0.00,12.00,VWS V14.01,2013-01-24 12:43:00,
2013-01-24 07:44:00,49.5,43.7,30.11,WSW,258,3.3,5.5,80,0.00,,,0.00,12.00,VWS V14.01,2013-01-24 12:44:00,
2013-01-24 07:45:00,49.5,43.7,30.11,SW,225,2.2,3.3,80,0.00,,,0.00,14.00,VWS V14.01,2013-01-24 12:45:00,
2013-01-24 07:46:00,49.5,43.7,30.11,SW,233,4.4,6.6,80,0.00,,,0.00,14.00,VWS V14.01,2013-01-24 12:46:00,
2013-01-24 07:47:00,49.5,43.7,30.11,WNW,284,1.1,4.4,80,0.00,,,0.00,14.00,VWS V14.01,2013-01-24 12:47:00,
2013-01-24 07:48:00,49.5,43.6,30.11,WSW,254,2.2,3.3,80,0.00,,,0.00,14.00,VWS V14.01,2013-01-24 12:48:00,
2013-01-24 07:49:00,49.5,43.7,30.11,SSW,202,3.3,5.5,80,0.00,,,0.00,16.00,VWS V14.01,2013-01-24 12:49:00,
2013-01-24 07:50:00,49.5,43.7,30.11,SW,222,2.2,3.3,80,0.00,,,0.00,16.00,VWS V14.01,2013-01-24 12:50:00,
2013-01-24 07:51:00,49.5,43.7,30.11,WNW,291,3.3,4.4,80,0.00,,,0.00,16.00,VWS V14.01,2013-01-24 12:51:00,
2013-01-24 07:52:00,49.5,43.7,30.11,WSW,243,7.7,8.8,80,0.00,,,0.00,16.00,VWS V14.01,2013-01-24 12:52:00,
2013-01-24 07:53:00,49.5,43.6,30.11,SSW,212,5.5,5.5,80,0.00,,,0.00,18.00,VWS V14.01,2013-01-24 12:53:00,
2013-01-24 07:54:00,49.5,43.7,30.11,SSW,212,4.4,6.6,80,0.00,,,0.00,18.00,VWS V14.01,2013-01-24 12:54:00,
2013-01-24 07:55:00,49.5,43.7,30.11,SW,222,2.2,4.4,80,0.00,,,0.00,18.00,VWS V14.01,2013-01-24 12:55:00,
2013-01-24 07:56:00,49.5,43.7,30.11,West,272,3.3,4.4,80,0.00,,,0.00,18.00,VWS V14.01,2013-01-24 12:56:00,
2013-01-24 07:57:00,49.7,43.7,30.11,West,279,2.2,3.3,80,0.00,,,0.00,18.00,VWS V14.01,2013-01-24 12:57:00,
2013-01-24 07:58:00,49.7,43.7,30.11,SW,217,3.3,3.3,80,0.00,,,0.00,19.00,VWS V14.01,2013-01-24 12:58:00,
2013-01-24 07:59:00,49.7,43.7,30.11,SW,217,0.0,3.3,80,0.00,,,0.00,19.00,VWS V14.01,2013-01-24 12:59:00,
2013-01-24 08:00:00,49.7,43.7,30.12,WSW,240,5.5,7.7,80,0.00,,,0.00,19.00,VWS V14.01,2013-01-24 13:00:00,
2013-01-24 08:01:00,49.7,43.7,30.12,West,262,1.1,6.6,80,0.00,,,0.00,19.00,VWS V14.01,2013-01-24 13:01:00,
2013-01-24 08:02:00,49.7,43.7,30.12,SW,223,6.6,7.7,80,0.00,,,0.00,21.00,VWS V14.01,2013-01-24 13:02:00,
2013-01-24 08:03:00,49.7,43.7,30.12,SSW,207,6.6,7.7,80,0.00,,,0.00,21.00,VWS V14.01,2013-01-24 13:03:00,
2013-01-24 08:04:00,49.8,43.8,30.12,WSW,251,4.4,7.7,80,0.00,,,0.00,21.00,VWS V14.01,2013-01-24 13:04:00,
2013-01-24 08:05:00,49.8,43.8,30.12,SW,229,0.0,5.5,80,0.00,,,0.00,21.00,VWS V14.01,2013-01-24 13:05:00,
2013-01-24 08:06:00,49.8,43.8,30.12,SW,229,5.5,9.9,80,0.00,,,0.00,21.00,VWS V14.01,2013-01-24 13:06:00,
2013-01-24 08:07:00,49.8,43.8,30.12,SSW,205,4.4,5.5,80,0.00,,,0.00,23.00,VWS V14.01,2013-01-24 13:07:00,
2013-01-24 08:08:00,49.8,43.9,30.12,SW,229,2.2,4.4,80,0.00,,,0.00,23.00,VWS V14.01,2013-01-24 13:08:00,
2013-01-24 08:09:00,49.8,43.9,30.12,SSW,204,2.2,6.6,80,0.00,,,0.00,23.00,VWS V14.01,2013-01-24 13:09:00,
2013-01-24 08:10:00,49.8,43.9,30.12,SSW,203,2.2,11.0,80,0.00,,,0.00,23.00,VWS V14.01,2013-01-24 13:10:00,
2013-01-24 08:11:00,50.0,44.0,30.12,SW,218,5.5,5.5,80,0.00,,,0.00,25.00,VWS V14.01,2013-01-24 13:11:00,
2013-01-24 08:12:00,50.0,44.0,30.12,WSW,251,2.2,9.9,80,0.00,,,0.00,25.00,VWS V14.01,2013-01-24 13:12:00,
2013-01-24 08:13:00,50.0,44.1,30.12,West,266,0.0,3.3,80,0.00,,,0.00,25.00,VWS V14.01,2013-01-24 13:13:00,
2013-01-24 08:14:00,50.0,44.1,30.12,West,273,0.0,3.3,80,0.00,,,0.00,25.00,VWS V14.01,2013-01-24 13:14:00,
2013-01-24 08:15:00,50.2,44.2,30.12,SSW,210,5.5,5.5,80,0.00,,,0.00,25.00,VWS V14.01,2013-01-24 13:15:00,
2013-01-24 08:16:00,50.2,44.2,30.12,SW,227,2.2,5.5,80,0.00,,,0.00,26.00,VWS V14.01,2013-01-24 13:16:00,
2013-01-24 08:17:00,50.2,44.2,30.12,SW,216,3.3,3.3,80,0.00,,,0.00,26.00,VWS V14.01,2013-01-24 13:17:00,
2013-01-24 08:18:00,50.2,44.3,30.12,South,176,3.3,9.9,80,0.00,,,0.00,26.00,VWS V14.01,2013-01-24 13:18:00,
2013-01-24 08:19:00,50.2,44.3,30.12,SW,228,1.1,9.9,80,0.00,,,0.00,26.00,VWS V14.01,2013-01-24 13:19:00,
2013-01-24 08:20:00,50.2,44.3,30.12,SW,220,1.1,4.4,80,0.00,,,0.00,26.00,VWS V14.01,2013-01-24 13:20:00,
2013-01-24 08:21:00,50.3,44.4,30.12,SW,220,1.1,1.1,80,0.00,,,0.00,26.00,VWS V14.01,2013-01-24 13:21:00,
2013-01-24 08:22:00,50.3,44.4,30.12,WNW,291,2.2,7.7,80,0.00,,,0.00,28.00,VWS V14.01,2013-01-24 13:22:00,
2013-01-24 08:23:00,50.5,44.5,30.12,South,191,1.1,2.2,80,0.00,,,0.00,28.00,VWS V14.01,2013-01-24 13:23:00,
2013-01-24 08:24:00,50.5,44.5,30.12,WSW,239,3.3,7.7,80,0.00,,,0.00,28.00,VWS V14.01,2013-01-24 13:24:00,
2013-01-24 08:25:00,50.5,44.5,30.12,SW,232,2.2,5.5,80,0.00,,,0.00,28.00,VWS V14.01,2013-01-24 13:25:00,
2013-01-24 08:26:00,50.5,44.6,30.12,WSW,253,5.5,9.9,80,0.00,,,0.00,30.00,VWS V14.01,2013-01-24 13:26:00,
2013-01-24 08:27:00,50.7,44.7,30.12,WSW,253,0.0,5.5,80,0.00,,,0.00,30.00,VWS V14.01,2013-01-24 13:27:00,
2013-01-24 08:28:00,50.8,44.8,30.12,South,181,3.3,3.3,80,0.00,,,0.00,30.00,VWS V14.01,2013-01-24 13:28:00,
2013-01-24 08:29:00,50.8,44.8,30.12,SW,230,1.1,3.3,80,0.00,,,0.00,30.00,VWS V14.01,2013-01-24 13:29:00,
2013-01-24 08:30:00,50.8,44.9,30.12,WSW,246,7.7,7.7,80,0.00,,,0.00,32.00,VWS V14.01,2013-01-24 13:30:00,
2013-01-24 08:31:00,51.0,45.0,30.12,SW,222,6.6,7.7,80,0.00,,,0.00,32.00,VWS V14.01,2013-01-24 13:31:00,
2013-01-24 08:32:00,51.0,45.1,30.12,WNW,285,7.7,8.8,80,0.00,,,0.00,32.00,VWS V14.01,2013-01-24 13:32:00,
2013-01-24 08:33:00,51.2,45.2,30.12,SW,214,3.3,3.3,80,0.00,,,0.00,32.00,VWS V14.01,2013-01-24 13:33:00,
2013-01-24 08:34:00,51.2,44.9,30.12,SW,229,4.4,4.4,79,0.00,,,0.00,32.00,VWS V14.01,2013-01-24 13:34:00,
2013-01-24 08:35:00,51.2,45.0,30.12,West,267,4.4,6.6,79,0.00,,,0.00,32.00,VWS V14.01,2013-01-24 13:35:00,
2013-01-24 08:36:00,51.3,45.1,30.12,WSW,252,2.2,9.9,79,0.00,,,0.00,32.00,VWS V14.01,2013-01-24 13:36:00,
2013-01-24 08:37:00,51.5,45.2,30.12,NW,310,2.2,7.7,79,0.00,,,0.00,32.00,VWS V14.01,2013-01-24 13:37:00,
2013-01-24 08:38:00,51.5,45.3,30.12,WNW,286,3.3,5.5,79,0.00,,,0.00,33.00,VWS V14.01,2013-01-24 13:38:00,
2013-01-24 08:39:00,51.5,45.3,30.12,SW,230,6.6,6.6,79,0.00,,,0.00,33.00,VWS V14.01,2013-01-24 13:39:00,
2013-01-24 08:40:00,51.7,45.4,30.12,WSW,250,3.3,6.6,79,0.00,,,0.00,33.00,VWS V14.01,2013-01-24 13:40:00,
2013-01-24 08:41:00,51.8,45.5,30.12,NNW,343,3.3,8.8,79,0.00,,,0.00,33.00,VWS V14.01,2013-01-24 13:41:00,
2013-01-24 08:42:00,51.8,45.5,30.12,WSW,248,3.3,7.7,79,0.00,,,0.00,32.00,VWS V14.01,2013-01-24 13:42:00,
2013-01-24 08:43:00,52.0,45.7,30.12,NW,314,3.3,3.3,79,0.00,,,0.00,33.00,VWS V14.01,2013-01-24 13:43:00,
2013-01-24 08:44:00,52.0,45.7,30.12,WSW,237,2.2,4.4,79,0.00,,,0.00,33.00,VWS V14.01,2013-01-24 13:44:00,
2013-01-24 08:45:00,52.0,45.8,30.12,SW,222,6.6,6.6,79,0.00,,,0.00,33.00,VWS V14.01,2013-01-24 13:45:00,
2013-01-24 08:46:00,52.2,45.8,30.13,WSW,256,2.2,11.0,79,0.00,,,0.00,33.00,VWS V14.01,2013-01-24 13:46:00,
2013-01-24 08:47:00,52.2,45.8,30.13,SW,216,4.4,7.7,79,0.00,,,0.00,33.00,VWS V14.01,2013-01-24 13:47:00,
2013-01-24 08:48:00,52.2,45.6,30.13,WSW,242,2.2,4.4,78,0.00,,,0.00,33.00,VWS V14.01,2013-01-24 13:48:00,
2013-01-24 08:49:00,52.2,45.6,30.13,WNW,295,0.0,4.4,78,0.00,,,0.00,33.00,VWS V14.01,2013-01-24 13:49:00,
2013-01-24 08:50:00,52.3,45.7,30.13,SW,217,3.3,7.7,78,0.00,,,0.00,35.00,VWS V14.01,2013-01-24 13:50:00,
2013-01-24 08:51:00,52.5,45.8,30.13,WSW,253,1.1,3.3,78,0.00,,,0.00,35.00,VWS V14.01,2013-01-24 13:51:00,
2013-01-24 08:52:00,52.5,45.9,30.13,WSW,241,1.1,3.3,78,0.00,,,0.00,35.00,VWS V14.01,2013-01-24 13:52:00,
2013-01-24 08:53:00,52.7,46.0,30.12,SW,234,1.1,2.2,78,0.00,,,0.00,35.00,VWS V14.01,2013-01-24 13:53:00,
2013-01-24 08:54:00,52.7,46.0,30.12,SW,218,0.0,2.2,78,0.00,,,0.00,35.00,VWS V14.01,2013-01-24 13:54:00,
2013-01-24 08:55:00,52.8,46.1,30.13,SSW,208,5.5,6.6,78,0.00,,,0.00,35.00,VWS V14.01,2013-01-24 13:55:00,
2013-01-24 08:56:00,52.8,46.2,30.12,West,268,6.6,6.6,78,0.00,,,0.00,35.00,VWS V14.01,2013-01-24 13:56:00,
2013-01-24 08:57:00,53.0,46.3,30.13,West,275,6.6,6.6,78,0.00,,,0.00,35.00,VWS V14.01,2013-01-24 13:57:00,
2013-01-24 08:58:00,53.0,46.4,30.13,WSW,242,3.3,7.7,78,0.00,,,0.00,37.00,VWS V14.01,2013-01-24 13:58:00,
2013-01-24 08:59:00,53.0,46.0,30.13,WSW,237,6.6,7.7,77,0.00,,,0.00,37.00,VWS V14.01,2013-01-24 13:59:00,
2013-01-24 09:00:00,53.2,46.5,30.13,West,268,0.0,7.7,78,0.00,,,0.00,37.00,VWS V14.01,2013-01-24 14:00:00,
2013-01-24 09:01:00,53.2,46.2,30.13,WSW,241,2.2,2.2,77,0.00,,,0.00,37.00,VWS V14.01,2013-01-24 14:01:00,
2013-01-24 09:02:00,53.3,46.7,30.13,WSW,250,2.2,6.6,78,0.00,,,0.00,39.00,VWS V14.01,2013-01-24 14:02:00,
2013-01-24 09:03:00,53.5,46.4,30.13,West,267,3.3,6.6,77,0.00,,,0.00,39.00,VWS V14.01,2013-01-24 14:03:00,
2013-01-24 09:04:00,53.5,46.4,30.13,West,270,6.6,6.6,77,0.00,,,0.00,39.00,VWS V14.01,2013-01-24 14:04:00,
2013-01-24 09:05:00,53.5,46.5,30.13,WNW,297,1.1,6.6,77,0.00,,,0.00,40.00,VWS V14.01,2013-01-24 14:05:00,
2013-01-24 09:06:00,53.7,46.6,30.13,SW,233,0.0,3.3,77,0.00,,,0.00,40.00,VWS V14.01,2013-01-24 14:06:00,
2013-01-24 09:07:00,53.8,46.7,30.13,SW,228,2.2,5.5,77,0.00,,,0.00,40.00,VWS V14.01,2013-01-24 14:07:00,
2013-01-24 09:08:00,53.8,46.5,30.14,WSW,250,3.3,4.4,76,0.00,,,0.00,40.00,VWS V14.01,2013-01-24 14:08:00,
2013-01-24 09:09:00,53.8,46.8,30.14,NW,316,0.0,4.4,77,0.00,,,0.00,40.00,VWS V14.01,2013-01-24 14:09:00,
2013-01-24 09:10:00,54.0,46.7,30.14,SW,218,6.6,6.6,76,0.00,,,0.00,40.00,VWS V14.01,2013-01-24 14:10:00,
2013-01-24 09:11:00,54.2,46.8,30.14,NNW,348,2.2,6.6,76,0.00,,,0.00,39.00,VWS V14.01,2013-01-24 14:11:00,
2013-01-24 09:12:00,54.2,46.8,30.14,SW,224,4.4,9.9,76,0.00,,,0.00,40.00,VWS V14.01,2013-01-24 14:12:00,
2013-01-24 09:13:00,54.3,47.0,30.14,South,173,4.4,7.7,76,0.00,,,0.00,40.00,VWS V14.01,2013-01-24 14:13:00,
2013-01-24 09:14:00,54.3,47.0,30.14,SW,223,2.2,7.7,76,0.00,,,0.00,40.00,VWS V14.01,2013-01-24 14:14:00,
2013-01-24 09:15:00,54.3,46.6,30.14,SW,234,1.1,6.6,75,0.00,,,0.00,40.00,VWS V14.01,2013-01-24 14:15:00,
2013-01-24 09:16:00,54.5,46.7,30.14,SSW,204,5.5,5.5,75,0.00,,,0.00,40.00,VWS V14.01,2013-01-24 14:16:00,
2013-01-24 09:17:00,54.5,46.7,30.14,West,270,4.4,7.7,75,0.00,,,0.00,40.00,VWS V14.01,2013-01-24 14:17:00,
2013-01-24 09:18:00,54.5,46.8,30.14,South,187,4.4,4.4,75,0.00,,,0.00,40.00,VWS V14.01,2013-01-24 14:18:00,
2013-01-24 09:19:00,54.5,46.8,30.14,WNW,299,3.3,6.6,75,0.00,,,0.00,42.00,VWS V14.01,2013-01-24 14:19:00,
2013-01-24 09:20:00,54.7,46.9,30.14,WSW,237,3.3,4.4,75,0.00,,,0.00,40.00,VWS V14.01,2013-01-24 14:20:00,
2013-01-24 09:21:00,54.7,46.9,30.14,SW,233,4.4,6.6,75,0.00,,,0.00,40.00,VWS V14.01,2013-01-24 14:21:00,
2013-01-24 09:22:00,54.8,47.0,30.14,WNW,288,2.2,4.4,75,0.00,,,0.00,40.00,VWS V14.01,2013-01-24 14:22:00,
2013-01-24 09:23:00,54.8,47.1,30.14,SW,222,2.2,5.5,75,0.00,,,0.00,40.00,VWS V14.01,2013-01-24 14:23:00,
2013-01-24 09:24:00,54.8,47.1,30.14,SW,235,1.1,5.5,75,0.00,,,0.00,40.00,VWS V14.01,2013-01-24 14:24:00,
2013-01-24 09:25:00,55.0,47.2,30.14,West,274,1.1,6.6,75,0.00,,,0.00,40.00,VWS V14.01,2013-01-24 14:25:00,
2013-01-24 09:26:00,55.0,46.8,30.14,West,264,3.3,8.8,74,0.00,,,0.00,42.00,VWS V14.01,2013-01-24 14:26:00,
2013-01-24 09:27:00,55.0,46.9,30.14,NW,309,2.2,3.3,74,0.00,,,0.00,42.00,VWS V14.01,2013-01-24 14:27:00,
2013-01-24 09:28:00,55.2,47.0,30.15,WSW,244,2.2,4.4,74,0.00,,,0.00,42.00,VWS V14.01,2013-01-24 14:28:00,
2013-01-24 09:29:00,55.2,47.1,30.15,NW,305,1.1,4.4,74,0.00,,,0.00,42.00,VWS V14.01,2013-01-24 14:29:00,
2013-01-24 09:30:00,55.3,47.2,30.15,WNW,285,0.0,6.6,74,0.00,,,0.00,42.00,VWS V14.01,2013-01-24 14:30:00,
2013-01-24 09:31:00,55.5,47.3,30.15,WSW,243,2.2,4.4,74,0.00,,,0.00,42.00,VWS V14.01,2013-01-24 14:31:00,
2013-01-24 09:32:00,55.5,47.4,30.15,NNW,328,6.6,6.6,74,0.00,,,0.00,42.00,VWS V14.01,2013-01-24 14:32:00,
2013-01-24 09:33:00,55.7,47.5,30.15,West,262,2.2,3.3,74,0.00,,,0.00,44.00,VWS V14.01,2013-01-24 14:33:00,
2013-01-24 09:34:00,55.7,47.5,30.15,West,269,4.4,5.5,74,0.00,,,0.00,46.00,VWS V14.01,2013-01-24 14:34:00,
2013-01-24 09:35:00,55.8,47.6,30.15,WSW,252,6.6,7.7,74,0.00,,,0.00,44.00,VWS V14.01,2013-01-24 14:35:00,
2013-01-24 09:36:00,55.8,47.3,30.15,WSW,257,1.1,6.6,73,0.00,,,0.00,47.00,VWS V14.01,2013-01-24 14:36:00,
2013-01-24 09:37:00,56.0,47.4,30.15,WSW,252,2.2,5.5,73,0.00,,,0.00,54.00,VWS V14.01,2013-01-24 14:37:00,
2013-01-24 09:38:00,56.0,47.5,30.15,SW,230,0.0,4.4,73,0.00,,,0.00,47.00,VWS V14.01,2013-01-24 14:38:00,
2013-01-24 09:39:00,56.0,47.5,30.15,SW,233,2.2,4.4,73,0.00,,,0.00,47.00,VWS V14.01,2013-01-24 14:39:00,
2013-01-24 09:40:00,56.2,47.6,30.15,SW,231,3.3,4.4,73,0.00,,,0.00,51.00,VWS V14.01,2013-01-24 14:40:00,
2013-01-24 09:41:00,56.2,47.7,30.14,SW,235,6.6,6.6,73,0.00,,,0.00,51.00,VWS V14.01,2013-01-24 14:41:00,
2013-01-24 09:42:00,56.3,47.5,30.15,SW,229,4.4,6.6,72,0.00,,,0.00,49.00,VWS V14.01,2013-01-24 14:42:00,
2013-01-24 09:43:00,56.5,47.5,30.14,SW,223,3.3,4.4,72,0.00,,,0.00,49.00,VWS V14.01,2013-01-24 14:43:00,
2013-01-24 09:44:00,56.5,47.6,30.14,West,279,6.6,6.6,72,0.00,,,0.00,49.00,VWS V14.01,2013-01-24 14:44:00,
2013-01-24 09:45:00,56.5,47.3,30.14,West,266,6.6,8.8,71,0.00,,,0.00,69.00,VWS V14.01,2013-01-24 14:45:00,
2013-01-24 09:46:00,56.5,47.3,30.14,South,187,3.3,6.6,71,0.00,,,0.00,162.00,VWS V14.01,2013-01-24 14:46:00,
2013-01-24 09:47:00,56.5,47.3,30.14,SW,229,4.4,5.5,71,0.00,,,0.00,200.00,VWS V14.01,2013-01-24 14:47:00,
2013-01-24 09:48:00,56.8,47.5,30.14,SW,228,2.2,3.3,71,0.00,,,0.00,200.00,VWS V14.01,2013-01-24 14:48:00,
2013-01-24 09:49:00,56.8,47.5,30.14,WSW,240,7.7,7.7,71,0.00,,,0.00,63.00,VWS V14.01,2013-01-24 14:49:00,
2013-01-24 09:50:00,56.8,47.6,30.14,West,265,3.3,7.7,71,0.00,,,0.00,63.00,VWS V14.01,2013-01-24 14:50:00,
2013-01-24 09:51:00,57.0,47.7,30.14,NNW,331,3.3,3.3,71,0.00,,,0.00,364.00,VWS V14.01,2013-01-24 14:51:00,
2013-01-24 09:52:00,57.0,47.8,30.14,WSW,240,4.4,6.6,71,0.00,,,0.00,371.00,VWS V14.01,2013-01-24 14:52:00,
2013-01-24 09:53:00,57.2,47.5,30.14,WSW,252,4.4,4.4,70,0.00,,,0.00,348.00,VWS V14.01,2013-01-24 14:53:00,
2013-01-24 09:54:00,57.2,47.6,30.14,SSW,212,2.2,8.8,70,0.00,,,0.00,376.00,VWS V14.01,2013-01-24 14:54:00,
2013-01-24 09:55:00,57.3,47.7,30.15,WSW,241,4.4,9.9,70,0.00,,,0.00,378.00,VWS V14.01,2013-01-24 14:55:00,
2013-01-24 09:56:00,57.3,47.7,30.15,WSW,257,1.1,12.1,70,0.00,,,0.00,378.00,VWS V14.01,2013-01-24 14:56:00,
2013-01-24 09:57:00,57.5,47.8,30.15,WSW,247,2.2,5.5,70,0.00,,,0.00,378.00,VWS V14.01,2013-01-24 14:57:00,
2013-01-24 09:58:00,57.5,47.8,30.15,WNW,295,4.4,5.5,70,0.00,,,0.00,387.00,VWS V14.01,2013-01-24 14:58:00,
2013-01-24 09:59:00,57.7,47.6,30.15,NNE,13,2.2,6.6,69,0.00,,,0.00,387.00,VWS V14.01,2013-01-24 14:59:00,
2013-01-24 10:00:00,57.8,47.7,30.15,NNW,348,8.8,11.0,69,0.00,,,0.00,390.00,VWS V14.01,2013-01-24 15:00:00,
2013-01-24 10:01:00,57.8,47.4,30.15,WNW,283,3.3,11.0,68,0.00,,,0.00,396.00,VWS V14.01,2013-01-24 15:01:00,
2013-01-24 10:02:00,57.8,47.4,30.15,NW,321,3.3,3.3,68,0.00,,,0.00,396.00,VWS V14.01,2013-01-24 15:02:00,
2013-01-24 10:03:00,58.0,47.6,30.15,SW,224,3.3,3.3,68,0.00,,,0.00,392.00,VWS V14.01,2013-01-24 15:03:00,
2013-01-24 10:04:00,58.2,47.7,30.15,WSW,252,0.0,4.4,68,0.00,,,0.00,396.00,VWS V14.01,2013-01-24 15:04:00,
2013-01-24 10:05:00,58.5,48.3,30.15,NW,320,7.7,9.9,69,0.00,,,0.00,403.00,VWS V14.01,2013-01-24 15:05:00,
2013-01-24 10:06:00,58.5,47.6,30.15,NW,322,3.3,7.7,67,0.00,,,0.00,406.00,VWS V14.01,2013-01-24 15:06:00,
2013-01-24 10:07:00,58.7,47.7,30.15,SSW,210,6.6,7.7,67,0.00,,,0.00,404.00,VWS V14.01,2013-01-24 15:07:00,
2013-01-24 10:08:00,58.8,47.0,30.16,West,274,2.2,11.0,65,0.00,,,0.00,410.00,VWS V14.01,2013-01-24 15:08:00,
2013-01-24 10:09:00,58.8,47.4,30.16,SSW,210,1.1,11.0,66,0.00,,,0.00,410.00,VWS V14.01,2013-01-24 15:09:00,
2013-01-24 10:10:00,58.8,47.5,30.16,WNW,296,1.1,4.4,66,0.00,,,0.00,417.00,VWS V14.01,2013-01-24 15:10:00,
2013-01-24 10:11:00,59.0,47.6,30.16,WSW,247,5.5,8.8,66,0.00,,,0.00,415.00,VWS V14.01,2013-01-24 15:11:00,
2013-01-24 10:12:00,59.0,47.7,30.16,SW,222,1.1,8.8,66,0.00,,,0.00,417.00,VWS V14.01,2013-01-24 15:12:00,
2013-01-24 10:13:00,59.2,47.4,30.16,North,353,3.3,8.8,65,0.00,,,0.00,427.00,VWS V14.01,2013-01-24 15:13:00,
2013-01-24 10:14:00,59.2,47.1,30.16,SW,218,4.4,8.8,64,0.00,,,0.00,427.00,VWS V14.01,2013-01-24 15:14:00,
2013-01-24 10:15:00,59.2,47.0,30.16,SSE,166,3.3,6.6,64,0.00,,,0.00,432.00,VWS V14.01,2013-01-24 15:15:00,
2013-01-24 10:16:00,59.2,47.0,30.15,West,278,4.4,5.5,64,0.00,,,0.00,431.00,VWS V14.01,2013-01-24 15:16:00,
2013-01-24 10:17:00,59.2,47.0,30.16,West,273,5.5,5.5,64,0.00,,,0.00,427.00,VWS V14.01,2013-01-24 15:17:00,
2013-01-24 10:18:00,59.2,47.1,30.15,NW,314,0.0,5.5,64,0.00,,,0.00,427.00,VWS V14.01,2013-01-24 15:18:00,
2013-01-24 10:19:00,59.2,47.5,30.15,SSW,206,3.3,5.5,65,0.00,,,0.00,429.00,VWS V14.01,2013-01-24 15:19:00,
2013-01-24 10:20:00,59.5,47.7,30.15,WNW,289,1.1,4.4,65,0.00,,,0.00,445.00,VWS V14.01,2013-01-24 15:20:00,
2013-01-24 10:21:00,59.7,47.9,30.15,WNW,283,1.1,8.8,65,0.00,,,0.00,443.00,VWS V14.01,2013-01-24 15:21:00,
2013-01-24 10:22:00,59.8,47.6,30.15,WNW,289,3.3,3.3,64,0.00,,,0.00,439.00,VWS V14.01,2013-01-24 15:22:00,
2013-01-24 10:23:00,59.8,47.2,30.14,SW,222,3.3,3.3,63,0.00,,,0.00,445.00,VWS V14.01,2013-01-24 15:23:00,
2013-01-24 10:24:00,59.8,46.8,30.14,WSW,252,4.4,4.4,62,0.00,,,0.00,452.00,VWS V14.01,2013-01-24 15:24:00,
2013-01-24 10:25:00,59.8,47.2,30.14,WSW,253,0.0,4.4,63,0.00,,,0.00,445.00,VWS V14.01,2013-01-24 15:25:00,
2013-01-24 10:26:00,60.0,47.8,30.14,South,189,2.2,3.3,64,0.00,,,0.00,446.00,VWS V14.01,2013-01-24 15:26:00,
2013-01-24 10:27:00,60.0,47.3,30.15,WSW,250,4.4,7.7,63,0.00,,,0.00,461.00,VWS V14.01,2013-01-24 15:27:00,
2013-01-24 10:28:00,60.0,46.6,30.14,WSW,257,3.3,11.0,61,0.00,,,0.00,466.00,VWS V14.01,2013-01-24 15:28:00,
2013-01-24 10:29:00,60.0,46.6,30.14,West,264,4.4,11.0,61,0.00,,,0.00,464.00,VWS V14.01,2013-01-24 15:29:00,
2013-01-24 10:30:00,60.0,47.4,30.15,WSW,246,2.2,4.4,63,0.00,,,0.00,464.00,VWS V14.01,2013-01-24 15:30:00,
2013-01-24 10:31:00,60.2,47.1,30.15,WSW,249,3.3,4.4,62,0.00,,,0.00,459.00,VWS V14.01,2013-01-24 15:31:00,
2013-01-24 10:32:00,60.2,47.1,30.15,West,277,0.0,4.4,62,0.00,,,0.00,468.00,VWS V14.01,2013-01-24 15:32:00,
2013-01-24 10:33:00,60.2,47.1,30.15,WNW,284,4.4,5.5,62,0.00,,,0.00,466.00,VWS V14.01,2013-01-24 15:33:00,
2013-01-24 10:34:00,60.2,47.1,30.15,West,277,4.4,5.5,62,0.00,,,0.00,473.00,VWS V14.01,2013-01-24 15:34:00,
2013-01-24 10:35:00,60.3,47.3,30.15,WSW,239,5.5,5.5,62,0.00,,,0.00,473.00,VWS V14.01,2013-01-24 15:35:00,
2013-01-24 10:36:00,60.3,47.3,30.15,SW,221,5.5,5.5,62,0.00,,,0.00,482.00,VWS V14.01,2013-01-24 15:36:00,
2013-01-24 10:37:00,60.3,46.9,30.15,NNE,25,3.3,5.5,61,0.00,,,0.00,482.00,VWS V14.01,2013-01-24 15:37:00,
2013-01-24 10:38:00,60.5,47.0,30.15,WSW,247,3.3,3.3,61,0.00,,,0.00,480.00,VWS V14.01,2013-01-24 15:38:00,
2013-01-24 10:39:00,60.7,47.6,30.15,WNW,302,4.4,7.7,62,0.00,,,0.00,478.00,VWS V14.01,2013-01-24 15:39:00,
2013-01-24 10:40:00,60.8,47.2,30.15,South,170,3.3,9.9,61,0.00,,,0.00,485.00,VWS V14.01,2013-01-24 15:40:00,
2013-01-24 10:41:00,60.7,46.7,30.16,WSW,248,3.3,11.0,60,0.00,,,0.00,485.00,VWS V14.01,2013-01-24 15:41:00,
2013-01-24 10:42:00,60.5,46.6,30.15,SW,227,6.6,6.6,60,0.00,,,0.00,489.00,VWS V14.01,2013-01-24 15:42:00,
2013-01-24 10:43:00,60.5,46.5,30.16,SW,234,7.7,7.7,60,0.00,,,0.00,496.00,VWS V14.01,2013-01-24 15:43:00,
2013-01-24 10:44:00,60.5,46.5,30.16,WSW,250,4.4,7.7,60,0.00,,,0.00,496.00,VWS V14.01,2013-01-24 15:44:00,
2013-01-24 10:45:00,60.3,46.4,30.16,NW,304,2.2,6.6,60,0.00,,,0.00,490.00,VWS V14.01,2013-01-24 15:45:00,
2013-01-24 10:46:00,60.3,46.4,30.16,NW,318,12.1,12.1,60,0.00,,,0.00,490.00,VWS V14.01,2013-01-24 15:46:00,
2013-01-24 10:47:00,60.5,46.5,30.15,WNW,297,7.7,12.1,60,0.00,,,0.00,501.00,VWS V14.01,2013-01-24 15:47:00,
2013-01-24 10:48:00,60.5,46.6,30.16,SE,139,2.2,2.2,60,0.00,,,0.00,499.00,VWS V14.01,2013-01-24 15:48:00,
2013-01-24 10:49:00,60.7,46.7,30.16,WSW,240,3.3,6.6,60,0.00,,,0.00,499.00,VWS V14.01,2013-01-24 15:49:00,
2013-01-24 10:50:00,60.8,46.8,30.15,West,280,2.2,3.3,60,0.00,,,0.00,510.00,VWS V14.01,2013-01-24 15:50:00,
2013-01-24 10:51:00,61.0,47.5,30.15,WSW,239,6.6,6.6,61,0.00,,,0.00,512.00,VWS V14.01,2013-01-24 15:51:00,
2013-01-24 10:52:00,61.2,46.7,30.16,SW,218,1.1,6.6,59,0.00,,,0.00,513.00,VWS V14.01,2013-01-24 15:52:00,
2013-01-24 10:53:00,61.2,46.4,30.16,WSW,248,6.6,6.6,58,0.00,,,0.00,512.00,VWS V14.01,2013-01-24 15:53:00,
2013-01-24 10:54:00,61.2,45.9,30.16,NW,322,5.5,9.9,57,0.00,,,0.00,510.00,VWS V14.01,2013-01-24 15:54:00,
2013-01-24 10:55:00,61.2,46.3,30.16,NW,305,11.0,12.1,58,0.00,,,0.00,515.00,VWS V14.01,2013-01-24 15:55:00,
2013-01-24 10:56:00,61.0,46.2,30.16,West,268,5.5,12.1,58,0.00,,,0.00,520.00,VWS V14.01,2013-01-24 15:56:00,
2013-01-24 10:57:00,61.0,46.2,30.16,NNW,336,2.2,6.6,58,0.00,,,0.00,524.00,VWS V14.01,2013-01-24 15:57:00,
2013-01-24 10:58:00,61.2,45.8,30.16,NW,313,4.4,5.5,57,0.00,,,0.00,524.00,VWS V14.01,2013-01-24 15:58:00,
2013-01-24 10:59:00,61.2,45.8,30.16,West,260,5.5,13.2,57,0.00,,,0.00,522.00,VWS V14.01,2013-01-24 15:59:00,
2013-01-24 11:00:00,61.2,45.8,30.15,NNW,328,4.4,7.7,57,0.00,,,0.00,526.00,VWS V14.01,2013-01-24 16:00:00,
2013-01-24 11:01:00,61.2,45.9,30.15,NNW,341,7.7,16.5,57,0.00,,,0.00,526.00,VWS V14.01,2013-01-24 16:01:00,
2013-01-24 11:02:00,61.3,45.5,30.15,SSW,212,5.5,7.7,56,0.00,,,0.00,536.00,VWS V14.01,2013-01-24 16:02:00,
2013-01-24 11:03:00,61.5,45.6,30.15,WSW,245,3.3,4.4,56,0.00,,,0.00,534.00,VWS V14.01,2013-01-24 16:03:00,
2013-01-24 11:04:00,61.5,46.2,30.15,SW,225,4.4,4.4,57,0.00,,,0.00,541.00,VWS V14.01,2013-01-24 16:04:00,
2013-01-24 11:05:00,61.8,46.4,30.15,West,274,8.8,8.8,57,0.00,,,0.00,543.00,VWS V14.01,2013-01-24 16:05:00,
2013-01-24 11:06:00,61.8,45.5,30.15,WSW,241,4.4,8.8,55,0.00,,,0.00,545.00,VWS V14.01,2013-01-24 16:06:00,
2013-01-24 11:07:00,62.0,45.2,30.15,WSW,252,1.1,9.9,54,0.00,,,0.00,548.00,VWS V14.01,2013-01-24 16:07:00,
2013-01-24 11:08:00,62.0,44.7,30.15,NW,314,2.2,7.7,53,0.00,,,0.00,548.00,VWS V14.01,2013-01-24 16:08:00,
2013-01-24 11:09:00,62.0,45.2,30.15,NNE,21,6.6,14.3,54,0.00,,,0.00,550.00,VWS V14.01,2013-01-24 16:09:00,
2013-01-24 11:10:00,62.0,44.7,30.15,WNW,299,2.2,6.6,53,0.00,,,0.00,550.00,VWS V14.01,2013-01-24 16:10:00,
2013-01-24 11:11:00,62.2,45.8,30.15,WNW,285,8.8,8.8,55,0.00,,,0.00,555.00,VWS V14.01,2013-01-24 16:11:00,
2013-01-24 11:12:00,62.2,44.8,30.15,WNW,296,3.3,8.8,53,0.00,,,0.00,561.00,VWS V14.01,2013-01-24 16:12:00,
2013-01-24 11:13:00,62.3,45.5,30.15,WSW,256,3.3,3.3,54,0.00,,,0.00,559.00,VWS V14.01,2013-01-24 16:13:00,
2013-01-24 11:14:00,62.5,45.7,30.15,SSW,198,2.2,12.1,54,0.00,,,0.00,559.00,VWS V14.01,2013-01-24 16:14:00,
2013-01-24 11:15:00,62.7,45.8,30.15,WSW,254,2.2,5.5,54,0.00,,,0.00,568.00,VWS V14.01,2013-01-24 16:15:00,
2013-01-24 11:16:00,62.8,45.4,30.15,NNE,21,4.4,9.9,53,0.00,,,0.00,566.00,VWS V14.01,2013-01-24 16:16:00,
2013-01-24 11:17:00,62.7,45.3,30.15,NW,308,3.3,7.7,53,0.00,,,0.00,566.00,VWS V14.01,2013-01-24 16:17:00,
2013-01-24 11:18:00,62.8,45.9,30.15,SW,222,4.4,5.5,54,0.00,,,0.00,566.00,VWS V14.01,2013-01-24 16:18:00,
2013-01-24 11:19:00,62.8,45.5,30.15,North,8,4.4,6.6,53,0.00,,,0.00,566.00,VWS V14.01,2013-01-24 16:19:00,
2013-01-24 11:20:00,63.0,45.6,30.15,West,280,3.3,5.5,53,0.00,,,0.00,575.00,VWS V14.01,2013-01-24 16:20:00,
2013-01-24 11:21:00,63.0,45.2,30.14,WSW,258,2.2,4.4,52,0.00,,,0.00,568.00,VWS V14.01,2013-01-24 16:21:00,
2013-01-24 11:22:00,63.0,45.2,30.15,WNW,297,2.2,4.4,52,0.00,,,0.00,575.00,VWS V14.01,2013-01-24 16:22:00,
2013-01-24 11:23:00,63.0,45.2,30.14,SSW,209,2.2,2.2,52,0.00,,,0.00,571.00,VWS V14.01,2013-01-24 16:23:00,
2013-01-24 11:24:00,63.2,45.3,30.14,North,8,3.3,4.4,52,0.00,,,0.00,573.00,VWS V14.01,2013-01-24 16:24:00,
2013-01-24 11:25:00,63.3,44.4,30.14,WSW,250,1.1,3.3,50,0.00,,,0.00,580.00,VWS V14.01,2013-01-24 16:25:00,
2013-01-24 11:26:00,63.5,45.1,30.14,West,274,7.7,7.7,51,0.00,,,0.00,584.00,VWS V14.01,2013-01-24 16:26:00,
2013-01-24 11:27:00,63.5,44.1,30.14,NW,325,1.1,7.7,49,0.00,,,0.00,587.00,VWS V14.01,2013-01-24 16:27:00,
2013-01-24 11:28:00,63.7,44.7,30.14,SW,224,12.1,12.1,50,0.00,,,0.00,585.00,VWS V14.01,2013-01-24 16:28:00,
2013-01-24 11:29:00,63.7,44.7,30.14,West,279,5.5,12.1,50,0.00,,,0.00,587.00,VWS V14.01,2013-01-24 16:29:00,
2013-01-24 11:30:00,63.7,44.2,30.14,WNW,297,5.5,9.9,49,0.00,,,0.00,587.00,VWS V14.01,2013-01-24 16:30:00,
2013-01-24 11:31:00,63.8,44.2,30.14,WSW,258,7.7,8.8,49,0.00,,,0.00,594.00,VWS V14.01,2013-01-24 16:31:00,
2013-01-24 11:32:00,63.7,43.6,30.14,WNW,293,6.6,11.0,48,0.00,,,0.00,587.00,VWS V14.01,2013-01-24 16:32:00,
2013-01-24 11:33:00,63.5,43.5,30.14,WNW,300,15.4,15.4,48,0.00,,,0.00,599.00,VWS V14.01,2013-01-24 16:33:00,
2013-01-24 11:34:00,63.5,43.4,30.14,SW,233,6.6,15.4,48,0.00,,,0.00,592.00,VWS V14.01,2013-01-24 16:34:00,
2013-01-24 11:35:00,63.3,43.3,30.14,NW,312,9.9,9.9,48,0.00,,,0.00,589.00,VWS V14.01,2013-01-24 16:35:00,
2013-01-24 11:36:00,63.2,43.2,30.14,WNW,287,1.1,12.1,48,0.00,,,0.00,585.00,VWS V14.01,2013-01-24 16:36:00,
2013-01-24 11:37:00,63.3,43.9,30.14,NNW,331,3.3,12.1,49,0.00,,,0.00,589.00,VWS V14.01,2013-01-24 16:37:00,
2013-01-24 11:38:00,63.5,44.0,30.14,WSW,254,3.3,7.7,49,0.00,,,0.00,585.00,VWS V14.01,2013-01-24 16:38:00,
2013-01-24 11:39:00,63.5,44.0,30.14,NNW,333,4.4,7.7,49,0.00,,,0.00,596.00,VWS V14.01,2013-01-24 16:39:00,
2013-01-24 11:40:00,63.5,44.0,30.13,WNW,296,5.5,6.6,49,0.00,,,0.00,594.00,VWS V14.01,2013-01-24 16:40:00,
2013-01-24 11:41:00,63.5,43.4,30.14,West,262,5.5,7.7,48,0.00,,,0.00,596.00,VWS V14.01,2013-01-24 16:41:00,
2013-01-24 11:42:00,63.5,44.0,30.14,NW,322,4.4,5.5,49,0.00,,,0.00,601.00,VWS V14.01,2013-01-24 16:42:00,
2013-01-24 11:43:00,63.7,44.2,30.14,WSW,245,7.7,7.7,49,0.00,,,0.00,598.00,VWS V14.01,2013-01-24 16:43:00,
2013-01-24 11:44:00,63.8,44.2,30.14,NNW,333,1.1,7.7,49,0.00,,,0.00,601.00,VWS V14.01,2013-01-24 16:44:00,
2013-01-24 11:45:00,63.8,44.3,30.13,NW,312,6.6,7.7,49,0.00,,,0.00,601.00,VWS V14.01,2013-01-24 16:45:00,
2013-01-24 11:46:00,63.8,43.8,30.13,WNW,291,5.5,7.7,48,0.00,,,0.00,598.00,VWS V14.01,2013-01-24 16:46:00,
2013-01-24 11:47:00,63.8,43.7,30.13,North,6,8.8,8.8,48,0.00,,,0.00,610.00,VWS V14.01,2013-01-24 16:47:00,
2013-01-24 11:48:00,63.8,43.7,30.13,SSE,162,3.3,3.3,48,0.00,,,0.00,617.00,VWS V14.01,2013-01-24 16:48:00,
2013-01-24 11:49:00,63.8,43.8,30.13,NE,40,1.1,6.6,48,0.00,,,0.00,608.00,VWS V14.01,2013-01-24 16:49:00,
2013-01-24 11:50:00,63.8,43.8,30.13,SW,231,2.2,4.4,48,0.00,,,0.00,615.00,VWS V14.01,2013-01-24 16:50:00,
2013-01-24 11:51:00,64.1,44.5,30.13,SW,227,3.3,6.6,49,0.00,,,0.00,617.00,VWS V14.01,2013-01-24 16:51:00,
2013-01-24 11:52:00,64.2,43.0,30.13,West,277,2.2,12.1,46,0.00,,,0.00,617.00,VWS V14.01,2013-01-24 16:52:00,
2013-01-24 11:53:00,64.3,44.3,30.13,SW,227,2.2,7.7,48,0.00,,,0.00,613.00,VWS V14.01,2013-01-24 16:53:00,
2013-01-24 11:54:00,64.3,43.7,30.13,SW,234,6.6,7.7,47,0.00,,,0.00,613.00,VWS V14.01,2013-01-24 16:54:00,
2013-01-24 11:55:00,64.4,43.2,30.13,NW,324,5.5,13.2,46,0.00,,,0.00,610.00,VWS V14.01,2013-01-24 16:55:00,
2013-01-24 11:56:00,64.3,43.2,30.13,WNW,289,3.3,7.7,46,0.00,,,0.00,612.00,VWS V14.01,2013-01-24 16:56:00,
2013-01-24 11:57:00,64.2,42.5,30.13,SSW,204,1.1,7.7,45,0.00,,,0.00,612.00,VWS V14.01,2013-01-24 16:57:00,
2013-01-24 11:58:00,64.2,43.0,30.13,SSW,195,2.2,4.4,46,0.00,,,0.00,617.00,VWS V14.01,2013-01-24 16:58:00,
2013-01-24 11:59:00,64.3,43.2,30.13,NW,304,6.6,9.9,46,0.00,,,0.00,615.00,VWS V14.01,2013-01-24 16:59:00,
2013-01-24 12:00:00,64.3,42.6,30.13,WNW,291,5.5,12.1,45,0.00,,,0.00,610.00,VWS V14.01,2013-01-24 17:00:00,
2013-01-24 12:01:00,64.3,42.6,30.13,West,262,2.2,5.5,45,0.00,,,0.00,610.00,VWS V14.01,2013-01-24 17:01:00,
2013-01-24 12:02:00,64.4,42.7,30.13,SSW,195,6.6,6.6,45,0.00,,,0.00,608.00,VWS V14.01,2013-01-24 17:02:00,
2013-01-24 12:03:00,64.3,42.0,30.14,SW,218,2.2,5.5,44,0.00,,,0.00,608.00,VWS V14.01,2013-01-24 17:03:00,
2013-01-24 12:04:00,64.4,43.2,30.14,North,7,1.1,5.5,46,0.00,,,0.00,612.00,VWS V14.01,2013-01-24 17:04:00,
2013-01-24 12:05:00,64.6,43.3,30.13,NNW,335,5.5,8.8,46,0.00,,,0.00,603.00,VWS V14.01,2013-01-24 17:05:00,
2013-01-24 12:06:00,64.7,42.8,30.13,West,281,4.4,6.6,45,0.00,,,0.00,605.00,VWS V14.01,2013-01-24 17:06:00,
2013-01-24 12:07:00,64.8,42.4,30.13,SW,225,3.3,6.6,44,0.00,,,0.00,629.00,VWS V14.01,2013-01-24 17:07:00,
2013-01-24 12:08:00,64.9,41.9,30.13,SW,234,7.7,11.0,43,0.00,,,0.00,629.00,VWS V14.01,2013-01-24 17:08:00,
2013-01-24 12:09:00,64.9,41.9,30.13,WNW,293,1.1,11.0,43,0.00,,,0.00,624.00,VWS V14.01,2013-01-24 17:09:00,
2013-01-24 12:10:00,65.1,42.6,30.13,NNW,341,4.4,5.5,44,0.00,,,0.00,619.00,VWS V14.01,2013-01-24 17:10:00,
2013-01-24 12:11:00,65.2,42.7,30.12,WNW,282,2.2,7.7,44,0.00,,,0.00,626.00,VWS V14.01,2013-01-24 17:11:00,
2013-01-24 12:12:00,65.2,42.8,30.12,West,279,2.2,8.8,44,0.00,,,0.00,610.00,VWS V14.01,2013-01-24 17:12:00,
2013-01-24 12:13:00,65.3,42.3,30.12,SW,227,1.1,2.2,43,0.00,,,0.00,628.00,VWS V14.01,2013-01-24 17:13:00,
2013-01-24 12:14:00,65.3,42.3,30.12,WNW,293,1.1,2.2,43,0.00,,,0.00,626.00,VWS V14.01,2013-01-24 17:14:00,
2013-01-24 12:15:00,65.4,43.0,30.12,WNW,296,7.7,7.7,44,0.00,,,0.00,626.00,VWS V14.01,2013-01-24 17:15:00,
2013-01-24 12:16:00,65.4,42.4,30.12,NW,306,3.3,7.7,43,0.00,,,0.00,619.00,VWS V14.01,2013-01-24 17:16:00,
2013-01-24 12:17:00,65.4,41.8,30.12,North,358,5.5,5.5,42,0.00,,,0.00,610.00,VWS V14.01,2013-01-24 17:17:00,
2013-01-24 12:18:00,65.3,41.7,30.12,North,3,0.0,3.3,42,0.00,,,0.00,612.00,VWS V14.01,2013-01-24 17:18:00,
2013-01-24 12:19:00,65.4,41.8,30.12,WNW,292,6.6,7.7,42,0.00,,,0.00,624.00,VWS V14.01,2013-01-24 17:19:00,
2013-01-24 12:20:00,65.4,41.8,30.11,WSW,256,3.3,6.6,42,0.00,,,0.00,617.00,VWS V14.01,2013-01-24 17:20:00,
2013-01-24 12:21:00,65.6,41.9,30.12,NNW,332,12.1,12.1,42,0.00,,,0.00,615.00,VWS V14.01,2013-01-24 17:21:00,
2013-01-24 12:22:00,65.8,42.0,30.11,WSW,246,1.1,12.1,42,0.00,,,0.00,621.00,VWS V14.01,2013-01-24 17:22:00,
2013-01-24 12:23:00,65.7,41.3,30.11,North,7,4.4,5.5,41,0.00,,,0.00,617.00,VWS V14.01,2013-01-24 17:23:00,
2013-01-24 12:24:00,65.8,42.0,30.11,NE,44,11.0,11.0,42,0.00,,,0.00,621.00,VWS V14.01,2013-01-24 17:24:00,
2013-01-24 12:25:00,65.7,40.7,30.11,NW,308,5.5,11.0,40,0.00,,,0.00,622.00,VWS V14.01,2013-01-24 17:25:00,
2013-01-24 12:26:00,65.7,41.3,30.11,WNW,286,6.6,8.8,41,0.00,,,0.00,622.00,VWS V14.01,2013-01-24 17:26:00,
2013-01-24 12:27:00,65.7,41.3,30.11,North,6,3.3,7.7,41,0.00,,,0.00,626.00,VWS V14.01,2013-01-24 17:27:00,
2013-01-24 12:28:00,65.7,41.3,30.11,NNW,342,3.3,6.6,41,0.00,,,0.00,624.00,VWS V14.01,2013-01-24 17:28:00,
2013-01-24 12:29:00,65.7,42.0,30.11,WNW,287,5.5,6.6,42,0.00,,,0.00,624.00,VWS V14.01,2013-01-24 17:29:00,
2013-01-24 12:30:00,65.8,42.7,30.11,SW,231,7.7,7.7,43,0.00,,,0.00,628.00,VWS V14.01,2013-01-24 17:30:00,
2013-01-24 12:31:00,65.9,41.6,30.11,WNW,284,2.2,9.9,41,0.00,,,0.00,612.00,VWS V14.01,2013-01-24 17:31:00,
2013-01-24 12:32:00,65.9,41.0,30.11,West,281,2.2,3.3,40,0.00,,,0.00,606.00,VWS V14.01,2013-01-24 17:32:00,
2013-01-24 12:33:00,65.8,40.9,30.11,WNW,297,2.2,2.2,40,0.00,,,0.00,626.00,VWS V14.01,2013-01-24 17:33:00,
2013-01-24 12:34:00,65.9,41.6,30.11,NNW,348,6.6,7.7,41,0.00,,,0.00,631.00,VWS V14.01,2013-01-24 17:34:00,
2013-01-24 12:35:00,66.2,41.2,30.11,NW,312,15.4,15.4,40,0.00,,,0.00,631.00,VWS V14.01,2013-01-24 17:35:00,
2013-01-24 12:36:00,66.2,40.5,30.11,WNW,303,6.6,15.4,39,0.00,,,0.00,626.00,VWS V14.01,2013-01-24 17:36:00,
2013-01-24 12:37:00,66.2,41.2,30.11,NW,310,5.5,6.6,40,0.00,,,0.00,621.00,VWS V14.01,2013-01-24 17:37:00,
2013-01-24 12:38:00,66.2,41.2,30.12,SW,235,4.4,4.4,40,0.00,,,0.00,629.00,VWS V14.01,2013-01-24 17:38:00,
2013-01-24 12:39:00,66.3,40.7,30.12,West,260,4.4,6.6,39,0.00,,,0.00,631.00,VWS V14.01,2013-01-24 17:39:00,
2013-01-24 12:40:00,66.3,40.7,30.12,NNW,329,2.2,5.5,39,0.00,,,0.00,626.00,VWS V14.01,2013-01-24 17:40:00,
2013-01-24 12:41:00,66.3,41.3,30.12,NNW,333,6.6,6.6,40,0.00,,,0.00,631.00,VWS V14.01,2013-01-24 17:41:00,
2013-01-24 12:42:00,66.4,40.8,30.12,North,353,4.4,8.8,39,0.00,,,0.00,631.00,VWS V14.01,2013-01-24 17:42:00,
2013-01-24 12:43:00,66.4,40.1,30.12,WNW,294,7.7,7.7,38,0.00,,,0.00,631.00,VWS V14.01,2013-01-24 17:43:00,
2013-01-24 12:44:00,66.4,39.4,30.12,WSW,252,6.6,11.0,37,0.00,,,0.00,635.00,VWS V14.01,2013-01-24 17:44:00,
2013-01-24 12:45:00,66.3,40.0,30.12,NW,305,4.4,6.6,38,0.00,,,0.00,629.00,VWS V14.01,2013-01-24 17:45:00,
2013-01-24 12:46:00,66.2,39.9,30.12,SW,225,6.6,16.5,38,0.00,,,0.00,631.00,VWS V14.01,2013-01-24 17:46:00,
2013-01-24 12:47:00,66.2,40.6,30.12,NNW,348,6.6,7.7,39,0.00,,,0.00,629.00,VWS V14.01,2013-01-24 17:47:00,
2013-01-24 12:48:00,66.2,40.5,30.12,SW,226,3.3,6.6,39,0.00,,,0.00,624.00,VWS V14.01,2013-01-24 17:48:00,
2013-01-24 12:49:00,66.2,39.8,30.12,NNW,348,5.5,6.6,38,0.00,,,0.00,622.00,VWS V14.01,2013-01-24 17:49:00,
2013-01-24 12:50:00,66.2,40.6,30.12,WNW,293,8.8,11.0,39,0.00,,,0.00,617.00,VWS V14.01,2013-01-24 17:50:00,
2013-01-24 12:51:00,66.2,40.6,30.12,North,4,4.4,8.8,39,0.00,,,0.00,626.00,VWS V14.01,2013-01-24 17:51:00,
2013-01-24 12:52:00,66.4,40.8,30.12,North,358,2.2,4.4,39,0.00,,,0.00,629.00,VWS V14.01,2013-01-24 17:52:00,
2013-01-24 12:53:00,66.8,41.7,30.11,NNW,328,4.4,4.4,40,0.00,,,0.00,629.00,VWS V14.01,2013-01-24 17:53:00,
2013-01-24 12:54:00,66.8,41.1,30.11,WNW,282,4.4,6.6,39,0.00,,,0.00,624.00,VWS V14.01,2013-01-24 17:54:00,
2013-01-24 12:55:00,66.9,41.2,30.12,WSW,256,6.6,6.6,39,0.00,,,0.00,631.00,VWS V14.01,2013-01-24 17:55:00,
2013-01-24 12:56:00,66.8,39.8,30.11,NW,312,1.1,6.6,37,0.00,,,0.00,629.00,VWS V14.01,2013-01-24 17:56:00,
2013-01-24 12:57:00,66.8,40.4,30.11,SW,229,6.6,6.6,38,0.00,,,0.00,629.00,VWS V14.01,2013-01-24 17:57:00,
2013-01-24 12:58:00,66.8,40.5,30.12,West,270,4.4,7.7,38,0.00,,,0.00,631.00,VWS V14.01,2013-01-24 17:58:00,
2013-01-24 12:59:00,66.8,39.1,30.12,NW,308,6.6,8.8,36,0.00,,,0.00,631.00,VWS V14.01,2013-01-24 17:59:00,
2013-01-24 13:00:00,66.7,39.6,30.12,NNW,341,4.4,8.8,37,0.00,,,0.00,626.00,VWS V14.01,2013-01-24 18:00:00,
2013-01-24 13:01:00,66.7,40.9,30.12,NNW,338,5.5,5.5,39,0.00,,,0.00,624.00,VWS V14.01,2013-01-24 18:01:00,
2013-01-24 13:02:00,66.8,40.5,30.12,North,3,1.1,5.5,38,0.00,,,0.00,622.00,VWS V14.01,2013-01-24 18:02:00,
2013-01-24 13:03:00,67.2,40.7,30.12,West,269,6.6,6.6,38,0.00,,,0.00,619.00,VWS V14.01,2013-01-24 18:03:00,
2013-01-24 13:04:00,67.3,40.9,30.12,NNW,334,6.6,12.1,38,0.00,,,0.00,624.00,VWS V14.01,2013-01-24 18:04:00,
2013-01-24 13:05:00,67.3,40.2,30.12,West,260,8.8,8.8,37,0.00,,,0.00,622.00,VWS V14.01,2013-01-24 18:05:00,
2013-01-24 13:06:00,67.2,39.4,30.12,NNW,348,4.4,8.8,36,0.00,,,0.00,613.00,VWS V14.01,2013-01-24 18:06:00,
2013-01-24 13:07:00,67.2,40.0,30.12,SW,235,3.3,5.5,37,0.00,,,0.00,613.00,VWS V14.01,2013-01-24 18:07:00,
2013-01-24 13:08:00,67.1,40.6,30.12,NW,323,6.6,6.6,38,0.00,,,0.00,621.00,VWS V14.01,2013-01-24 18:08:00,
2013-01-24 13:09:00,67.1,40.6,30.12,NNW,335,3.3,6.6,38,0.00,,,0.00,617.00,VWS V14.01,2013-01-24 18:09:00,
2013-01-24 13:10:00,66.9,39.2,30.12,WNW,295,2.2,5.5,36,0.00,,,0.00,613.00,VWS V14.01,2013-01-24 18:10:00,
2013-01-24 13:11:00,66.8,40.5,30.12,NNW,348,5.5,13.2,38,0.00,,,0.00,612.00,VWS V14.01,2013-01-24 18:11:00,
2013-01-24 13:12:00,66.8,39.7,30.12,SW,221,3.3,9.9,37,0.00,,,0.00,626.00,VWS V14.01,2013-01-24 18:12:00,
2013-01-24 13:13:00,66.8,39.8,30.12,SE,137,2.2,8.8,37,0.00,,,0.00,621.00,VWS V14.01,2013-01-24 18:13:00,
2013-01-24 13:14:00,66.8,39.8,30.12,WNW,300,3.3,8.8,37,0.00,,,0.00,619.00,VWS V14.01,2013-01-24 18:14:00,
2013-01-24 13:15:00,66.9,40.5,30.12,WSW,252,9.9,11.0,38,0.00,,,0.00,613.00,VWS V14.01,2013-01-24 18:15:00,
2013-01-24 13:16:00,66.9,39.8,30.12,NW,321,5.5,9.9,37,0.00,,,0.00,617.00,VWS V14.01,2013-01-24 18:16:00,
2013-01-24 13:17:00,66.7,39.6,30.12,WSW,243,5.5,9.9,37,0.00,,,0.00,615.00,VWS V14.01,2013-01-24 18:17:00,
2013-01-24 13:18:00,66.7,40.3,30.12,NNW,348,7.7,7.7,38,0.00,,,0.00,621.00,VWS V14.01,2013-01-24 18:18:00,
2013-01-24 13:19:00,66.7,40.3,30.12,NW,320,7.7,9.9,38,0.00,,,0.00,619.00,VWS V14.01,2013-01-24 18:19:00,
2013-01-24 13:20:00,66.6,40.2,30.11,North,358,5.5,9.9,38,0.00,,,0.00,619.00,VWS V14.01,2013-01-24 18:20:00,
2013-01-24 13:21:00,66.6,40.8,30.12,North,5,5.5,5.5,39,0.00,,,0.00,615.00,VWS V14.01,2013-01-24 18:21:00,
2013-01-24 13:22:00,66.6,40.2,30.12,NW,306,5.5,12.1,38,0.00,,,0.00,612.00,VWS V14.01,2013-01-24 18:22:00,
2013-01-24 13:23:00,66.7,40.9,30.12,WNW,295,3.3,3.3,39,0.00,,,0.00,612.00,VWS V14.01,2013-01-24 18:23:00,
2013-01-24 13:24:00,66.8,40.5,30.12,North,353,4.4,6.6,38,0.00,,,0.00,612.00,VWS V14.01,2013-01-24 18:24:00,
2013-01-24 13:25:00,67.2,41.4,30.12,NNW,342,3.3,4.4,39,0.00,,,0.00,610.00,VWS V14.01,2013-01-24 18:25:00,
2013-01-24 13:26:00,67.3,40.9,30.12,WNW,299,1.1,6.6,38,0.00,,,0.00,612.00,VWS V14.01,2013-01-24 18:26:00,
2013-01-24 13:27:00,67.6,40.4,30.12,NNW,348,4.4,7.7,37,0.00,,,0.00,612.00,VWS V14.01,2013-01-24 18:27:00,
2013-01-24 13:28:00,67.4,40.3,30.12,NNW,329,4.4,5.5,37,0.00,,,0.00,615.00,VWS V14.01,2013-01-24 18:28:00,
2013-01-24 13:29:00,67.2,39.4,30.12,NNW,335,8.8,8.8,36,0.00,,,0.00,608.00,VWS V14.01,2013-01-24 18:29:00,
2013-01-24 13:30:00,67.1,39.2,30.12,NNW,330,5.5,8.8,36,0.00,,,0.00,612.00,VWS V14.01,2013-01-24 18:30:00,
2013-01-24 13:32:00,66.9,40.5,30.12,West,260,3.3,5.5,38,0.00,,,0.00,610.00,VWS V14.01,2013-01-24 18:32:00,
2013-01-24 13:33:00,66.9,39.8,30.11,SW,231,3.3,3.3,37,0.00,,,0.00,601.00,VWS V14.01,2013-01-24 18:33:00,
2013-01-24 13:34:00,67.2,40.7,30.11,NE,52,8.8,8.8,38,0.00,,,0.00,601.00,VWS V14.01,2013-01-24 18:34:00,
2013-01-24 13:35:00,67.3,40.2,30.11,North,4,7.7,8.8,37,0.00,,,0.00,608.00,VWS V14.01,2013-01-24 18:35:00,
2013-01-24 13:36:00,67.3,39.5,30.11,NNW,331,7.7,7.7,36,0.00,,,0.00,596.00,VWS V14.01,2013-01-24 18:36:00,
2013-01-24 13:37:00,67.3,39.5,30.11,North,4,6.6,8.8,36,0.00,,,0.00,599.00,VWS V14.01,2013-01-24 18:37:00,
2013-01-24 13:38:00,67.2,39.4,30.11,NNW,329,5.5,5.5,36,0.00,,,0.00,599.00,VWS V14.01,2013-01-24 18:38:00,
2013-01-24 13:39:00,67.2,39.3,30.11,NNW,340,4.4,5.5,36,0.00,,,0.00,485.00,VWS V14.01,2013-01-24 18:39:00,
2013-01-24 13:40:00,66.9,39.2,30.12,NNW,331,3.3,7.7,36,0.00,,,0.00,585.00,VWS V14.01,2013-01-24 18:40:00,
2013-01-24 13:41:00,66.8,39.1,30.12,NW,314,7.7,9.9,36,0.00,,,0.00,596.00,VWS V14.01,2013-01-24 18:41:00,
2013-01-24 13:42:00,66.7,38.9,30.12,North,353,9.9,11.0,36,0.00,,,0.00,589.00,VWS V14.01,2013-01-24 18:42:00,
2013-01-24 13:43:00,66.4,39.4,30.12,NE,35,4.4,4.4,37,0.00,,,0.00,557.00,VWS V14.01,2013-01-24 18:43:00,
2013-01-24 13:44:00,66.6,39.5,30.12,NNW,348,9.9,9.9,37,0.00,,,0.00,566.00,VWS V14.01,2013-01-24 18:44:00,
2013-01-24 13:45:00,66.7,39.6,30.12,North,3,6.6,9.9,37,0.00,,,0.00,584.00,VWS V14.01,2013-01-24 18:45:00,
2013-01-24 13:46:00,66.7,39.6,30.12,NNW,348,4.4,11.0,37,0.00,,,0.00,577.00,VWS V14.01,2013-01-24 18:46:00,
2013-01-24 13:47:00,66.8,39.7,30.12,North,358,4.4,9.9,37,0.00,,,0.00,596.00,VWS V14.01,2013-01-24 18:47:00,
2013-01-24 13:48:00,66.8,39.7,30.12,NNW,348,5.5,7.7,37,0.00,,,0.00,589.00,VWS V14.01,2013-01-24 18:48:00,
2013-01-24 13:49:00,66.8,39.7,30.12,WNW,292,6.6,8.8,37,0.00,,,0.00,578.00,VWS V14.01,2013-01-24 18:49:00,
2013-01-24 13:50:00,66.8,39.0,30.12,North,8,4.4,8.8,36,0.00,,,0.00,577.00,VWS V14.01,2013-01-24 18:50:00,
2013-01-24 13:51:00,66.6,38.8,30.12,North,2,7.7,8.8,36,0.00,,,0.00,566.00,VWS V14.01,2013-01-24 18:51:00,
2013-01-24 13:52:00,66.6,38.8,30.12,NNW,348,8.8,8.8,36,0.00,,,0.00,568.00,VWS V14.01,2013-01-24 18:52:00,
2013-01-24 13:53:00,66.3,38.6,30.12,NW,304,3.3,3.3,36,0.00,,,0.00,566.00,VWS V14.01,2013-01-24 18:53:00,
2013-01-24 13:54:00,66.3,39.3,30.12,NNW,341,5.5,5.5,37,0.00,,,0.00,561.00,VWS V14.01,2013-01-24 18:54:00,
2013-01-24 13:55:00,66.4,39.4,30.12,North,353,5.5,11.0,37,0.00,,,0.00,547.00,VWS V14.01,2013-01-24 18:55:00,
2013-01-24 13:56:00,66.6,38.8,30.12,WNW,289,3.3,6.6,36,0.00,,,0.00,527.00,VWS V14.01,2013-01-24 18:56:00,
2013-01-24 13:57:00,66.6,39.5,30.12,NNW,344,4.4,6.6,37,0.00,,,0.00,522.00,VWS V14.01,2013-01-24 18:57:00,
2013-01-24 13:58:00,66.7,38.9,30.12,NNW,348,3.3,3.3,36,0.00,,,0.00,526.00,VWS V14.01,2013-01-24 18:58:00,
2013-01-24 13:59:00,66.7,38.9,30.12,NNW,339,5.5,5.5,36,0.00,,,0.00,519.00,VWS V14.01,2013-01-24 18:59:00,
2013-01-24 14:00:00,66.8,39.7,30.12,North,5,6.6,8.8,37,0.00,,,0.00,520.00,VWS V14.01,2013-01-24 19:00:00,
2013-01-24 14:01:00,66.8,39.7,30.12,NNW,339,5.5,8.8,37,0.00,,,0.00,550.00,VWS V14.01,2013-01-24 19:01:00,
2013-01-24 14:02:00,66.8,39.0,30.12,NW,314,3.3,8.8,36,0.00,,,0.00,548.00,VWS V14.01,2013-01-24 19:02:00,
2013-01-24 14:03:00,66.8,39.0,30.12,WNW,298,4.4,5.5,36,0.00,,,0.00,557.00,VWS V14.01,2013-01-24 19:03:00,
2013-01-24 14:04:00,66.7,39.6,30.12,NW,325,2.2,5.5,37,0.00,,,0.00,543.00,VWS V14.01,2013-01-24 19:04:00,
2013-01-24 14:05:00,66.8,39.7,30.12,NNW,331,0.0,3.3,37,0.00,,,0.00,552.00,VWS V14.01,2013-01-24 19:05:00,
2013-01-24 14:06:00,66.8,39.8,30.12,WNW,301,0.0,8.8,37,0.00,,,0.00,529.00,VWS V14.01,2013-01-24 19:06:00,
2013-01-24 14:07:00,66.9,41.2,30.12,NNE,24,4.4,4.4,39,0.00,,,0.00,547.00,VWS V14.01,2013-01-24 19:07:00,
2013-01-24 14:08:00,67.3,40.2,30.13,NNE,28,8.8,8.8,37,0.00,,,0.00,536.00,VWS V14.01,2013-01-24 19:08:00,
2013-01-24 14:09:00,67.4,40.3,30.13,North,4,4.4,8.8,37,0.00,,,0.00,564.00,VWS V14.01,2013-01-24 19:09:00,
2013-01-24 14:10:00,67.3,40.2,30.12,NE,45,5.5,6.6,37,0.00,,,0.00,543.00,VWS V14.01,2013-01-24 19:10:00,
2013-01-24 14:11:00,67.3,39.5,30.12,North,8,8.8,11.0,36,0.00,,,0.00,543.00,VWS V14.01,2013-01-24 19:11:00,
2013-01-24 14:12:00,67.2,39.3,30.12,North,2,5.5,9.9,36,0.00,,,0.00,538.00,VWS V14.01,2013-01-24 19:12:00,
2013-01-24 14:13:00,66.8,39.1,30.12,NW,304,6.6,8.8,36,0.00,,,0.00,531.00,VWS V14.01,2013-01-24 19:13:00,
2013-01-24 14:14:00,66.7,39.6,30.12,North,9,7.7,8.8,37,0.00,,,0.00,524.00,VWS V14.01,2013-01-24 19:14:00,
2013-01-24 14:15:00,66.6,39.5,30.12,NNW,343,3.3,11.0,37,0.00,,,0.00,529.00,VWS V14.01,2013-01-24 19:15:00,
2013-01-24 14:16:00,66.4,40.1,30.12,North,358,3.3,5.5,38,0.00,,,0.00,543.00,VWS V14.01,2013-01-24 19:16:00,
2013-01-24 14:17:00,66.6,39.5,30.12,NNE,20,3.3,6.6,37,0.00,,,0.00,519.00,VWS V14.01,2013-01-24 19:17:00,
2013-01-24 14:18:00,66.6,38.8,30.12,NNW,348,2.2,2.2,36,0.00,,,0.00,519.00,VWS V14.01,2013-01-24 19:18:00,
2013-01-24 14:19:00,66.7,40.3,30.12,NW,311,5.5,5.5,38,0.00,,,0.00,534.00,VWS V14.01,2013-01-24 19:19:00,
2013-01-24 14:20:00,66.8,39.8,30.12,WNW,297,5.5,5.5,37,0.00,,,0.00,531.00,VWS V14.01,2013-01-24 19:20:00,
2013-01-24 14:21:00,66.9,40.5,30.12,NNE,14,3.3,9.9,38,0.00,,,0.00,512.00,VWS V14.01,2013-01-24 19:21:00,
2013-01-24 14:22:00,67.1,39.9,30.13,North,358,7.7,11.0,37,0.00,,,0.00,497.00,VWS V14.01,2013-01-24 19:22:00,
2013-01-24 14:23:00,66.8,40.5,30.13,North,4,6.6,6.6,38,0.00,,,0.00,482.00,VWS V14.01,2013-01-24 19:23:00,
2013-01-24 14:24:00,66.7,40.9,30.13,North,4,2.2,7.7,39,0.00,,,0.00,497.00,VWS V14.01,2013-01-24 19:24:00,
2013-01-24 14:25:00,66.4,42.0,30.13,North,358,8.8,8.8,41,0.00,,,0.00,485.00,VWS V14.01,2013-01-24 19:25:00,
2013-01-24 14:26:00,66.3,41.3,30.13,North,7,4.4,9.9,40,0.00,,,0.00,485.00,VWS V14.01,2013-01-24 19:26:00,
2013-01-24 14:27:00,66.2,41.8,30.13,NNW,348,7.7,9.9,41,0.00,,,0.00,510.00,VWS V14.01,2013-01-24 19:27:00,
2013-01-24 14:28:00,66.1,42.3,30.13,North,11,3.3,3.3,42,0.00,,,0.00,497.00,VWS V14.01,2013-01-24 19:28:00,
2013-01-24 14:29:00,65.9,41.6,30.13,North,358,1.1,3.3,41,0.00,,,0.00,487.00,VWS V14.01,2013-01-24 19:29:00,
2013-01-24 14:30:00,66.2,42.4,30.13,NW,307,9.9,9.9,42,0.00,,,0.00,483.00,VWS V14.01,2013-01-24 19:30:00,
2013-01-24 14:31:00,66.2,41.9,30.13,NE,46,2.2,9.9,41,0.00,,,0.00,492.00,VWS V14.01,2013-01-24 19:31:00,
2013-01-24 14:32:00,66.3,42.6,30.13,NNW,348,0.0,2.2,42,0.00,,,0.00,494.00,VWS V14.01,2013-01-24 19:32:00,
2013-01-24 14:33:00,66.4,42.0,30.13,North,11,2.2,3.3,41,0.00,,,0.00,517.00,VWS V14.01,2013-01-24 19:33:00,
2013-01-24 14:34:00,66.4,42.0,30.13,NE,35,4.4,4.4,41,0.00,,,0.00,519.00,VWS V14.01,2013-01-24 19:34:00,
2013-01-24 14:35:00,66.4,41.4,30.14,NNE,29,5.5,6.6,40,0.00,,,0.00,501.00,VWS V14.01,2013-01-24 19:35:00,
2013-01-24 14:37:00,66.2,40.6,30.14,ENE,58,2.2,9.9,39,0.00,,,0.00,489.00,VWS V14.01,2013-01-24 19:37:00,
2013-01-24 14:38:00,66.1,40.4,30.14,NNE,27,1.1,1.1,39,0.00,,,0.00,489.00,VWS V14.01,2013-01-24 19:38:00,
2013-01-24 14:39:00,66.2,41.2,30.14,NNE,19,11.0,13.2,40,0.00,,,0.00,462.00,VWS V14.01,2013-01-24 19:39:00,
2013-01-24 14:40:00,66.1,40.4,30.14,North,3,5.5,11.0,39,0.00,,,0.00,461.00,VWS V14.01,2013-01-24 19:40:00,
2013-01-24 14:41:00,65.9,40.3,30.14,NW,318,6.6,6.6,39,0.00,,,0.00,464.00,VWS V14.01,2013-01-24 19:41:00,
2013-01-24 14:42:00,66.1,41.1,30.14,NW,310,3.3,6.6,40,0.00,,,0.00,468.00,VWS V14.01,2013-01-24 19:42:00,
2013-01-24 14:43:00,66.2,41.2,30.13,ENE,77,0.0,1.1,40,0.00,,,0.00,496.00,VWS V14.01,2013-01-24 19:43:00,
2013-01-24 14:44:00,66.3,40.7,30.13,NNW,344,6.6,6.6,39,0.00,,,0.00,466.00,VWS V14.01,2013-01-24 19:44:00,
2013-01-24 14:45:00,66.2,40.6,30.14,NNE,19,4.4,7.7,39,0.00,,,0.00,461.00,VWS V14.01,2013-01-24 19:45:00,
2013-01-24 14:46:00,66.2,40.5,30.14,North,9,3.3,14.3,39,0.00,,,0.00,455.00,VWS V14.01,2013-01-24 19:46:00,
2013-01-24 14:47:00,66.1,40.4,30.14,ENE,57,0.0,4.4,39,0.00,,,0.00,417.00,VWS V14.01,2013-01-24 19:47:00,
2013-01-24 14:48:00,65.9,40.3,30.14,NNE,12,2.2,4.4,39,0.00,,,0.00,425.00,VWS V14.01,2013-01-24 19:48:00,
2013-01-24 14:49:00,65.9,40.3,30.14,NE,34,5.5,5.5,39,0.00,,,0.00,455.00,VWS V14.01,2013-01-24 19:49:00,
2013-01-24 14:50:00,65.9,40.3,30.14,NE,55,2.2,13.2,39,0.00,,,0.00,452.00,VWS V14.01,2013-01-24 19:50:00,
2013-01-24 14:51:00,65.8,40.2,30.14,NNE,13,9.9,9.9,39,0.00,,,0.00,441.00,VWS V14.01,2013-01-24 19:51:00,
2013-01-24 14:52:00,65.8,40.1,30.14,North,358,4.4,15.4,39,0.00,,,0.00,429.00,VWS V14.01,2013-01-24 19:52:00,
2013-01-24 14:53:00,65.7,40.0,30.14,North,9,3.3,4.4,39,0.00,,,0.00,455.00,VWS V14.01,2013-01-24 19:53:00,
2013-01-24 14:54:00,65.7,41.3,30.14,North,6,1.1,3.3,41,0.00,,,0.00,468.00,VWS V14.01,2013-01-24 19:54:00,
2013-01-24 14:55:00,65.8,40.8,30.14,North,358,0.0,4.4,40,0.00,,,0.00,464.00,VWS V14.01,2013-01-24 19:55:00,
2013-01-24 14:56:00,65.9,41.6,30.14,NNE,12,6.6,6.6,41,0.00,,,0.00,461.00,VWS V14.01,2013-01-24 19:56:00,
2013-01-24 14:57:00,65.8,40.2,30.14,NNW,335,3.3,11.0,39,0.00,,,0.00,443.00,VWS V14.01,2013-01-24 19:57:00,
2013-01-24 14:58:00,65.7,40.0,30.14,NNE,27,8.8,8.8,39,0.00,,,0.00,448.00,VWS V14.01,2013-01-24 19:58:00,
2013-01-24 14:59:00,65.6,40.0,30.14,NNW,337,5.5,8.8,39,0.00,,,0.00,441.00,VWS V14.01,2013-01-24 19:59:00,
2013-01-24 15:00:00,65.6,40.0,30.14,NW,316,4.4,8.8,39,0.00,,,0.00,417.00,VWS V14.01,2013-01-24 20:00:00,
2013-01-24 15:01:00,65.4,40.5,30.14,North,5,3.3,5.5,40,0.00,,,0.00,415.00,VWS V14.01,2013-01-24 20:01:00,
2013-01-24 15:02:00,65.6,41.2,30.15,North,358,4.4,4.4,41,0.00,,,0.00,415.00,VWS V14.01,2013-01-24 20:02:00,
2013-01-24 15:03:00,65.7,41.3,30.15,North,358,3.3,3.3,41,0.00,,,0.00,403.00,VWS V14.01,2013-01-24 20:03:00,
2013-01-24 15:04:00,65.7,40.7,30.15,NNW,348,5.5,6.6,40,0.00,,,0.00,424.00,VWS V14.01,2013-01-24 20:04:00,
2013-01-24 15:05:00,65.6,40.6,30.15,North,353,4.4,8.8,40,0.00,,,0.00,406.00,VWS V14.01,2013-01-24 20:05:00,
2013-01-24 15:06:00,65.3,39.8,30.15,NE,37,12.1,12.1,39,0.00,,,0.00,397.00,VWS V14.01,2013-01-24 20:06:00,
2013-01-24 15:07:00,65.2,39.7,30.15,NNW,339,8.8,12.1,39,0.00,,,0.00,399.00,VWS V14.01,2013-01-24 20:07:00,
2013-01-24 15:08:00,65.1,40.2,30.15,NNW,338,8.8,8.8,40,0.00,,,0.00,445.00,VWS V14.01,2013-01-24 20:08:00,
2013-01-24 15:09:00,65.1,39.5,30.15,North,2,8.8,8.8,39,0.00,,,0.00,438.00,VWS V14.01,2013-01-24 20:09:00,
2013-01-24 15:10:00,64.9,39.4,30.15,North,353,5.5,14.3,39,0.00,,,0.00,439.00,VWS V14.01,2013-01-24 20:10:00,
2013-01-24 15:11:00,64.9,39.4,30.16,ESE,121,2.2,6.6,39,0.00,,,0.00,425.00,VWS V14.01,2013-01-24 20:11:00,
2013-01-24 15:12:00,65.1,40.2,30.15,NNE,26,5.5,5.5,40,0.00,,,0.00,408.00,VWS V14.01,2013-01-24 20:12:00,
2013-01-24 15:13:00,65.2,39.6,30.15,NNW,348,4.4,8.8,39,0.00,,,0.00,404.00,VWS V14.01,2013-01-24 20:13:00,
2013-01-24 15:14:00,65.2,40.3,30.15,ENE,59,2.2,7.7,40,0.00,,,0.00,369.00,VWS V14.01,2013-01-24 20:14:00,
2013-01-24 15:15:00,65.3,40.4,30.15,NNE,32,5.5,8.8,40,0.00,,,0.00,367.00,VWS V14.01,2013-01-24 20:15:00,
2013-01-24 15:16:00,65.4,39.9,30.15,NNE,19,3.3,12.1,39,0.00,,,0.00,362.00,VWS V14.01,2013-01-24 20:16:00,
2013-01-24 15:17:00,65.3,39.8,30.15,NE,48,3.3,5.5,39,0.00,,,0.00,373.00,VWS V14.01,2013-01-24 20:17:00,
2013-01-24 15:18:00,65.3,39.8,30.15,WNW,289,5.5,8.8,39,0.00,,,0.00,355.00,VWS V14.01,2013-01-24 20:18:00,
2013-01-24 15:19:00,65.2,39.6,30.15,NNE,12,4.4,9.9,39,0.00,,,0.00,355.00,VWS V14.01,2013-01-24 20:19:00,
2013-01-24 15:20:00,65.1,40.2,30.16,NNE,27,8.8,8.8,40,0.00,,,0.00,357.00,VWS V14.01,2013-01-24 20:20:00,
2013-01-24 15:21:00,65.1,40.2,30.16,North,5,2.2,8.8,40,0.00,,,0.00,374.00,VWS V14.01,2013-01-24 20:21:00,
2013-01-24 15:22:00,64.9,40.1,30.16,NNE,16,7.7,11.0,40,0.00,,,0.00,373.00,VWS V14.01,2013-01-24 20:22:00,
2013-01-24 15:23:00,64.7,40.4,30.16,North,353,8.8,8.8,41,0.00,,,0.00,350.00,VWS V14.01,2013-01-24 20:23:00,
2013-01-24 15:24:00,64.4,40.3,30.16,NNE,24,2.2,12.1,41,0.00,,,0.00,367.00,VWS V14.01,2013-01-24 20:24:00,
2013-01-24 15:25:00,64.1,40.5,30.16,NNE,13,12.1,14.3,42,0.00,,,0.00,329.00,VWS V14.01,2013-01-24 20:25:00,
2013-01-24 15:26:00,63.5,40.7,30.16,NNE,21,2.2,12.1,43,0.00,,,0.00,253.00,VWS V14.01,2013-01-24 20:26:00,
2013-01-24 15:27:00,63.0,40.2,30.16,NNE,17,5.5,9.9,43,0.00,,,0.00,332.00,VWS V14.01,2013-01-24 20:27:00,
2013-01-24 15:28:00,62.7,40.5,30.16,North,11,6.6,12.1,44,0.00,,,0.00,332.00,VWS V14.01,2013-01-24 20:28:00,
2013-01-24 15:29:00,62.2,41.2,30.16,North,10,7.7,7.7,46,0.00,,,0.00,332.00,VWS V14.01,2013-01-24 20:29:00,
2013-01-24 15:30:00,62.0,40.4,30.16,NNW,348,6.6,7.7,45,0.00,,,0.00,301.00,VWS V14.01,2013-01-24 20:30:00,
2013-01-24 15:31:00,61.7,40.7,30.16,NE,47,0.0,14.3,46,0.00,,,0.00,279.00,VWS V14.01,2013-01-24 20:31:00,
2013-01-24 15:32:00,61.5,41.1,30.16,NE,44,6.6,6.6,47,0.00,,,0.00,316.00,VWS V14.01,2013-01-24 20:32:00,
2013-01-24 15:33:00,61.5,41.7,30.17,NNE,20,8.8,8.8,48,0.00,,,0.00,318.00,VWS V14.01,2013-01-24 20:33:00,
2013-01-24 15:34:00,61.3,41.0,30.17,ENE,58,2.2,12.1,47,0.00,,,0.00,336.00,VWS V14.01,2013-01-24 20:34:00,
2013-01-24 15:35:00,61.2,41.4,30.17,ENE,60,2.2,2.2,48,0.00,,,0.00,339.00,VWS V14.01,2013-01-24 20:35:00,
2013-01-24 15:36:00,61.2,41.4,30.17,North,353,6.6,6.6,48,0.00,,,0.00,343.00,VWS V14.01,2013-01-24 20:36:00,
2013-01-24 15:37:00,61.0,41.2,30.17,NNE,23,8.8,9.9,48,0.00,,,0.00,301.00,VWS V14.01,2013-01-24 20:37:00,
2013-01-24 15:38:00,61.0,41.1,30.17,NE,41,2.2,14.3,48,0.00,,,0.00,341.00,VWS V14.01,2013-01-24 20:38:00,
2013-01-24 15:39:00,60.8,41.0,30.17,NNE,22,7.7,8.8,48,0.00,,,0.00,339.00,VWS V14.01,2013-01-24 20:39:00,
2013-01-24 15:40:00,60.7,41.4,30.17,North,4,7.7,9.9,49,0.00,,,0.00,320.00,VWS V14.01,2013-01-24 20:40:00,
2013-01-24 15:41:00,60.5,40.7,30.18,NE,40,4.4,9.9,48,0.00,,,0.00,299.00,VWS V14.01,2013-01-24 20:41:00,
2013-01-24 15:42:00,60.2,40.5,30.18,NNE,25,3.3,4.4,48,0.00,,,0.00,251.00,VWS V14.01,2013-01-24 20:42:00,
2013-01-24 15:43:00,60.2,40.9,30.18,NNE,14,6.6,9.9,49,0.00,,,0.00,264.00,VWS V14.01,2013-01-24 20:43:00,
2013-01-24 15:44:00,60.0,40.2,30.18,North,5,5.5,6.6,48,0.00,,,0.00,257.00,VWS V14.01,2013-01-24 20:44:00,
2013-01-24 15:45:00,59.8,40.0,30.18,NE,51,0.0,5.5,48,0.00,,,0.00,241.00,VWS V14.01,2013-01-24 20:45:00,
2013-01-24 15:46:00,59.8,40.6,30.18,NNE,33,4.4,6.6,49,0.00,,,0.00,220.00,VWS V14.01,2013-01-24 20:46:00,
2013-01-24 15:47:00,59.8,40.6,30.19,NNE,27,6.6,6.6,49,0.00,,,0.00,294.00,VWS V14.01,2013-01-24 20:47:00,
2013-01-24 15:48:00,59.7,40.5,30.19,NNE,17,6.6,6.6,49,0.00,,,0.00,279.00,VWS V14.01,2013-01-24 20:48:00,
2013-01-24 15:49:00,59.7,40.5,30.19,NNE,12,12.1,12.1,49,0.00,,,0.00,272.00,VWS V14.01,2013-01-24 20:49:00,
2013-01-24 15:50:00,59.5,39.9,30.18,NNE,12,4.4,12.1,48,0.00,,,0.00,264.00,VWS V14.01,2013-01-24 20:50:00,
2013-01-24 15:51:00,59.3,39.7,30.19,NE,53,2.2,9.9,48,0.00,,,0.00,253.00,VWS V14.01,2013-01-24 20:51:00,
2013-01-24 15:52:00,59.2,39.5,30.19,NE,42,8.8,8.8,48,0.00,,,0.00,265.00,VWS V14.01,2013-01-24 20:52:00,
2013-01-24 15:53:00,59.0,39.8,30.19,NNE,24,1.1,8.8,49,0.00,,,0.00,269.00,VWS V14.01,2013-01-24 20:53:00,
2013-01-24 15:54:00,58.8,39.1,30.20,North,358,3.3,8.8,48,0.00,,,0.00,274.00,VWS V14.01,2013-01-24 20:54:00,
2013-01-24 15:55:00,58.5,38.9,30.19,NE,54,0.0,4.4,48,0.00,,,0.00,264.00,VWS V14.01,2013-01-24 20:55:00,
2013-01-24 15:56:00,58.5,39.9,30.19,NNE,33,4.4,6.6,50,0.00,,,0.00,218.00,VWS V14.01,2013-01-24 20:56:00,
2013-01-24 15:57:00,58.3,39.3,30.20,NE,34,3.3,4.4,49,0.00,,,0.00,192.00,VWS V14.01,2013-01-24 20:57:00,
2013-01-24 15:58:00,58.3,39.3,30.20,North,353,3.3,5.5,49,0.00,,,0.00,174.00,VWS V14.01,2013-01-24 20:58:00,
2013-01-24 15:59:00,58.2,39.2,30.20,NNE,22,1.1,8.8,49,0.00,,,0.00,185.00,VWS V14.01,2013-01-24 20:59:00,
2013-01-24 16:00:00,58.0,39.5,30.20,NW,322,12.1,12.1,50,0.00,,,0.00,221.00,VWS V14.01,2013-01-24 21:00:00,
2013-01-24 16:01:00,58.0,38.9,30.20,NNE,29,2.2,12.1,49,0.00,,,0.00,225.00,VWS V14.01,2013-01-24 21:01:00,
2013-01-24 16:02:00,57.8,38.8,30.20,NE,39,6.6,6.6,49,0.00,,,0.00,207.00,VWS V14.01,2013-01-24 21:02:00,
2013-01-24 16:03:00,57.8,38.7,30.20,NNE,23,5.5,7.7,49,0.00,,,0.00,195.00,VWS V14.01,2013-01-24 21:03:00,
2013-01-24 16:04:00,57.7,38.7,30.20,NE,39,4.4,11.0,49,0.00,,,0.00,183.00,VWS V14.01,2013-01-24 21:04:00,
2013-01-24 16:05:00,57.5,38.5,30.20,NE,56,4.4,12.1,49,0.00,,,0.00,183.00,VWS V14.01,2013-01-24 21:05:00,
2013-01-24 16:06:00,57.5,38.5,30.20,East,94,8.8,8.8,49,0.00,,,0.00,186.00,VWS V14.01,2013-01-24 21:06:00,
2013-01-24 16:07:00,57.3,38.4,30.20,NNW,339,7.7,8.8,49,0.00,,,0.00,163.00,VWS V14.01,2013-01-24 21:07:00,
2013-01-24 16:08:00,57.0,37.6,30.20,NNW,330,2.2,8.8,48,0.00,,,0.00,155.00,VWS V14.01,2013-01-24 21:08:00,
2013-01-24 16:09:00,56.8,37.9,30.20,NW,318,5.5,8.8,49,0.00,,,0.00,144.00,VWS V14.01,2013-01-24 21:09:00,
2013-01-24 16:10:00,56.8,37.8,30.20,North,10,3.3,5.5,49,0.00,,,0.00,139.00,VWS V14.01,2013-01-24 21:10:00,
2013-01-24 16:11:00,56.8,38.8,30.20,NNE,13,3.3,3.3,51,0.00,,,0.00,135.00,VWS V14.01,2013-01-24 21:11:00,
2013-01-24 16:12:00,56.8,38.3,30.20,ENE,60,3.3,4.4,50,0.00,,,0.00,127.00,VWS V14.01,2013-01-24 21:12:00,
2013-01-24 16:13:00,56.8,37.8,30.20,North,8,9.9,9.9,49,0.00,,,0.00,156.00,VWS V14.01,2013-01-24 21:13:00,
2013-01-24 16:14:00,56.7,37.7,30.20,NNW,348,7.7,9.9,49,0.00,,,0.00,142.00,VWS V14.01,2013-01-24 21:14:00,
2013-01-24 16:15:00,56.5,37.6,30.20,NNW,348,2.2,7.7,49,0.00,,,0.00,132.00,VWS V14.01,2013-01-24 21:15:00,
2013-01-24 16:16:00,56.5,38.2,30.20,North,9,1.1,2.2,50,0.00,,,0.00,142.00,VWS V14.01,2013-01-24 21:16:00,
2013-01-24 16:17:00,56.5,38.7,30.20,NNE,21,1.1,1.1,51,0.00,,,0.00,153.00,VWS V14.01,2013-01-24 21:17:00,
2013-01-24 16:18:00,56.5,38.2,30.21,ENE,58,2.2,5.5,50,0.00,,,0.00,151.00,VWS V14.01,2013-01-24 21:18:00,
2013-01-24 16:19:00,56.7,38.2,30.21,NE,39,2.2,4.4,50,0.00,,,0.00,153.00,VWS V14.01,2013-01-24 21:19:00,
2013-01-24 16:20:00,56.8,38.3,30.21,NE,39,1.1,2.2,50,0.00,,,0.00,137.00,VWS V14.01,2013-01-24 21:20:00,
2013-01-24 16:21:00,56.8,38.3,30.21,NNE,31,3.3,4.4,50,0.00,,,0.00,135.00,VWS V14.01,2013-01-24 21:21:00,
2013-01-24 16:22:00,56.8,38.3,30.21,North,3,1.1,3.3,50,0.00,,,0.00,135.00,VWS V14.01,2013-01-24 21:22:00,
2013-01-24 16:23:00,56.7,38.2,30.21,NE,39,3.3,3.3,50,0.00,,,0.00,134.00,VWS V14.01,2013-01-24 21:23:00,
2013-01-24 16:24:00,56.5,37.6,30.21,NE,37,2.2,3.3,49,0.00,,,0.00,123.00,VWS V14.01,2013-01-24 21:24:00,
2013-01-24 16:25:00,56.5,37.5,30.21,North,358,3.3,4.4,49,0.00,,,0.00,111.00,VWS V14.01,2013-01-24 21:25:00,
2013-01-24 16:26:00,56.5,37.5,30.22,NNW,333,5.5,8.8,49,0.00,,,0.00,104.00,VWS V14.01,2013-01-24 21:26:00,
2013-01-24 16:27:00,56.2,37.4,30.22,ENE,58,4.4,5.5,49,0.00,,,0.00,95.00,VWS V14.01,2013-01-24 21:27:00,
2013-01-24 16:28:00,56.2,37.8,30.23,North,7,4.4,4.4,50,0.00,,,0.00,113.00,VWS V14.01,2013-01-24 21:28:00,
2013-01-24 16:29:00,56.2,37.3,30.23,North,353,4.4,7.7,49,0.00,,,0.00,102.00,VWS V14.01,2013-01-24 21:29:00,
2013-01-24 16:30:00,56.0,37.2,30.22,NNE,22,3.3,4.4,49,0.00,,,0.00,88.00,VWS V14.01,2013-01-24 21:30:00,
2013-01-24 16:31:00,56.0,37.7,30.22,East,86,0.0,3.3,50,0.00,,,0.00,91.00,VWS V14.01,2013-01-24 21:31:00,
2013-01-24 16:32:00,56.0,37.7,30.21,East,88,1.1,1.1,50,0.00,,,0.00,86.00,VWS V14.01,2013-01-24 21:32:00,
2013-01-24 16:33:00,56.0,37.6,30.21,ENE,75,2.2,2.2,50,0.00,,,0.00,84.00,VWS V14.01,2013-01-24 21:33:00,
2013-01-24 16:34:00,56.0,37.1,30.20,North,2,4.4,7.7,49,0.00,,,0.00,79.00,VWS V14.01,2013-01-24 21:34:00,
2013-01-24 16:35:00,55.8,37.0,30.20,NE,39,3.3,5.5,49,0.00,,,0.00,72.00,VWS V14.01,2013-01-24 21:35:00,
2013-01-24 16:36:00,55.8,36.9,30.20,ENE,68,1.1,3.3,49,0.00,,,0.00,81.00,VWS V14.01,2013-01-24 21:36:00,
2013-01-24 16:37:00,55.7,36.8,30.20,NNE,29,3.3,3.3,49,0.00,,,0.00,81.00,VWS V14.01,2013-01-24 21:37:00,
2013-01-24 16:38:00,55.5,36.7,30.20,North,3,4.4,5.5,49,0.00,,,0.00,81.00,VWS V14.01,2013-01-24 21:38:00,
2013-01-24 16:39:00,55.5,37.1,30.20,East,79,1.1,6.6,50,0.00,,,0.00,83.00,VWS V14.01,2013-01-24 21:39:00,
2013-01-24 16:40:00,55.5,36.6,30.21,North,7,3.3,5.5,49,0.00,,,0.00,79.00,VWS V14.01,2013-01-24 21:40:00,
2013-01-24 16:41:00,55.3,36.5,30.21,North,358,5.5,5.5,49,0.00,,,0.00,84.00,VWS V14.01,2013-01-24 21:41:00,
2013-01-24 16:42:00,55.2,35.9,30.22,ENE,67,3.3,7.7,48,0.00,,,0.00,95.00,VWS V14.01,2013-01-24 21:42:00,
2013-01-24 16:43:00,55.0,35.7,30.22,NNE,19,6.6,15.4,48,0.00,,,0.00,88.00,VWS V14.01,2013-01-24 21:43:00,
2013-01-24 16:44:00,55.0,35.6,30.22,East,80,2.2,15.4,48,0.00,,,0.00,76.00,VWS V14.01,2013-01-24 21:44:00,
2013-01-24 16:45:00,54.8,35.5,30.22,North,358,4.4,6.6,48,0.00,,,0.00,74.00,VWS V14.01,2013-01-24 21:45:00,
2013-01-24 16:46:00,54.7,35.4,30.23,NNE,17,2.2,7.7,48,0.00,,,0.00,69.00,VWS V14.01,2013-01-24 21:46:00,
2013-01-24 16:47:00,54.5,35.3,30.23,NNE,13,5.5,7.7,48,0.00,,,0.00,65.00,VWS V14.01,2013-01-24 21:47:00,
2013-01-24 16:48:00,54.5,35.2,30.22,North,7,1.1,8.8,48,0.00,,,0.00,60.00,VWS V14.01,2013-01-24 21:48:00,
2013-01-24 16:49:00,54.3,35.6,30.22,ENE,62,2.2,4.4,49,0.00,,,0.00,67.00,VWS V14.01,2013-01-24 21:49:00,
2013-01-24 16:50:00,54.2,35.5,30.22,ENE,61,2.2,7.7,49,0.00,,,0.00,60.00,VWS V14.01,2013-01-24 21:50:00,
2013-01-24 16:51:00,54.2,34.9,30.23,ENE,72,7.7,7.7,48,0.00,,,0.00,51.00,VWS V14.01,2013-01-24 21:51:00,
2013-01-24 16:52:00,54.0,34.8,30.22,NNE,17,1.1,7.7,48,0.00,,,0.00,47.00,VWS V14.01,2013-01-24 21:52:00,
2013-01-24 16:53:00,54.0,35.2,30.23,North,6,4.4,15.4,49,0.00,,,0.00,47.00,VWS V14.01,2013-01-24 21:53:00,
2013-01-24 16:54:00,53.8,34.6,30.23,NE,54,0.0,4.4,48,0.00,,,0.00,53.00,VWS V14.01,2013-01-24 21:54:00,
2013-01-24 16:55:00,53.8,35.6,30.23,NNE,25,1.1,2.2,50,0.00,,,0.00,51.00,VWS V14.01,2013-01-24 21:55:00,
2013-01-24 16:56:00,53.7,35.0,30.23,NE,54,1.1,2.2,49,0.00,,,0.00,54.00,VWS V14.01,2013-01-24 21:56:00,
2013-01-24 16:57:00,53.7,35.5,30.24,NE,54,5.5,7.7,50,0.00,,,0.00,47.00,VWS V14.01,2013-01-24 21:57:00,
2013-01-24 16:58:00,53.5,34.4,30.24,ENE,58,2.2,16.5,48,0.00,,,0.00,46.00,VWS V14.01,2013-01-24 21:58:00,
2013-01-24 16:59:00,53.5,34.3,30.24,NE,45,5.5,6.6,48,0.00,,,0.00,44.00,VWS V14.01,2013-01-24 21:59:00,
2013-01-24 17:00:00,53.3,34.2,30.24,NNW,340,4.4,7.7,48,0.00,,,0.00,37.00,VWS V14.01,2013-01-24 22:00:00,
2013-01-24 17:01:00,53.2,34.0,30.24,East,91,1.1,4.4,48,0.00,,,0.00,33.00,VWS V14.01,2013-01-24 22:01:00,
2013-01-24 17:02:00,53.0,33.9,30.24,ENE,71,1.1,3.3,48,0.00,,,0.00,32.00,VWS V14.01,2013-01-24 22:02:00,
2013-01-24 17:03:00,53.0,33.8,30.24,NNE,19,7.7,7.7,48,0.00,,,0.00,32.00,VWS V14.01,2013-01-24 22:03:00,
2013-01-24 17:04:00,52.8,33.6,30.24,North,358,12.1,12.1,48,0.00,,,0.00,33.00,VWS V14.01,2013-01-24 22:04:00,
2013-01-24 17:05:00,52.8,33.6,30.24,NE,37,3.3,12.1,48,0.00,,,0.00,35.00,VWS V14.01,2013-01-24 22:05:00,
2013-01-24 17:06:00,52.7,33.5,30.24,East,81,3.3,8.8,48,0.00,,,0.00,33.00,VWS V14.01,2013-01-24 22:06:00,
2013-01-24 17:07:00,52.5,33.4,30.24,NE,50,2.2,9.9,48,0.00,,,0.00,33.00,VWS V14.01,2013-01-24 22:07:00,
2013-01-24 17:08:00,52.3,33.8,30.24,NE,37,5.5,5.5,49,0.00,,,0.00,32.00,VWS V14.01,2013-01-24 22:08:00,
2013-01-24 17:09:00,52.2,33.2,30.24,North,358,6.6,12.1,48,0.00,,,0.00,30.00,VWS V14.01,2013-01-24 22:09:00,
2013-01-24 17:10:00,52.2,33.2,30.24,NE,40,2.2,11.0,48,0.00,,,0.00,28.00,VWS V14.01,2013-01-24 22:10:00,
2013-01-24 17:11:00,52.2,33.1,30.24,NE,37,5.5,8.8,48,0.00,,,0.00,28.00,VWS V14.01,2013-01-24 22:11:00,
2013-01-24 17:12:00,52.0,33.0,30.25,ENE,58,0.0,5.5,48,0.00,,,0.00,32.00,VWS V14.01,2013-01-24 22:12:00,
2013-01-24 17:13:00,52.0,32.9,30.25,NNE,29,0.0,2.2,48,0.00,,,0.00,30.00,VWS V14.01,2013-01-24 22:13:00,
2013-01-24 17:14:00,51.8,32.8,30.25,ENE,78,6.6,6.6,48,0.00,,,0.00,26.00,VWS V14.01,2013-01-24 22:14:00,
2013-01-24 17:15:00,51.8,32.8,30.25,NNE,31,0.0,6.6,48,0.00,,,0.00,25.00,VWS V14.01,2013-01-24 22:15:00,
2013-01-24 17:16:00,51.8,32.7,30.25,North,353,2.2,4.4,48,0.00,,,0.00,23.00,VWS V14.01,2013-01-24 22:16:00,
2013-01-24 17:17:00,51.7,33.1,30.26,NNE,29,0.0,3.3,49,0.00,,,0.00,23.00,VWS V14.01,2013-01-24 22:17:00,
2013-01-24 17:18:00,51.7,33.1,30.26,NE,44,3.3,4.4,49,0.00,,,0.00,21.00,VWS V14.01,2013-01-24 22:18:00,
2013-01-24 17:19:00,51.5,33.0,30.26,NNW,348,1.1,7.7,49,0.00,,,0.00,19.00,VWS V14.01,2013-01-24 22:19:00,
2013-01-24 17:20:00,51.5,32.4,30.26,North,353,1.1,1.1,48,0.00,,,0.00,19.00,VWS V14.01,2013-01-24 22:20:00,
2013-01-24 17:21:00,51.5,32.9,30.26,East,93,1.1,8.8,49,0.00,,,0.00,19.00,VWS V14.01,2013-01-24 22:21:00,
2013-01-24 17:22:00,51.3,32.8,30.26,NE,51,3.3,3.3,49,0.00,,,0.00,18.00,VWS V14.01,2013-01-24 22:22:00,
2013-01-24 17:23:00,51.2,32.8,30.27,NNE,26,7.7,7.7,49,0.00,,,0.00,18.00,VWS V14.01,2013-01-24 22:23:00,
2013-01-24 17:24:00,51.0,32.1,30.27,ENE,62,1.1,13.2,48,0.00,,,0.00,16.00,VWS V14.01,2013-01-24 22:24:00,
2013-01-24 17:25:00,51.0,32.1,30.27,NE,48,9.9,9.9,48,0.00,,,0.00,16.00,VWS V14.01,2013-01-24 22:25:00,
2013-01-24 17:26:00,51.0,31.5,30.27,NW,304,9.9,9.9,47,0.00,,,0.00,14.00,VWS V14.01,2013-01-24 22:26:00,
2013-01-24 17:27:00,50.8,31.9,30.27,North,7,0.0,9.9,48,0.00,,,0.00,14.00,VWS V14.01,2013-01-24 22:27:00,
2013-01-24 17:28:00,50.8,31.8,30.27,NE,48,0.0,3.3,48,0.00,,,0.00,12.00,VWS V14.01,2013-01-24 22:28:00,
2013-01-24 17:29:00,50.7,31.7,30.27,NNE,23,2.2,2.2,48,0.00,,,0.00,12.00,VWS V14.01,2013-01-24 22:29:00,
2013-01-24 17:30:00,50.5,31.5,30.27,NNE,28,1.1,3.3,48,0.00,,,0.00,11.00,VWS V14.01,2013-01-24 22:30:00,
2013-01-24 17:31:00,50.5,31.5,30.27,NNE,17,5.5,5.5,48,0.00,,,0.00,11.00,VWS V14.01,2013-01-24 22:31:00,
2013-01-24 17:32:00,50.2,30.8,30.27,NNE,31,2.2,5.5,47,0.00,,,0.00,11.00,VWS V14.01,2013-01-24 22:32:00,
2013-01-24 17:33:00,50.2,30.8,30.28,NE,37,1.1,6.6,47,0.00,,,0.00,11.00,VWS V14.01,2013-01-24 22:33:00,
2013-01-24 17:34:00,50.2,31.2,30.28,ENE,72,3.3,3.3,48,0.00,,,0.00,9.00,VWS V14.01,2013-01-24 22:34:00,
2013-01-24 17:35:00,50.0,30.6,30.28,East,81,5.5,5.5,47,0.00,,,0.00,9.00,VWS V14.01,2013-01-24 22:35:00,
2013-01-24 17:36:00,50.0,31.0,30.28,NNE,31,0.0,5.5,48,0.00,,,0.00,9.00,VWS V14.01,2013-01-24 22:36:00,
2013-01-24 17:37:00,50.0,31.0,30.28,NNE,31,0.0,1.1,48,0.00,,,0.00,9.00,VWS V14.01,2013-01-24 22:37:00,
2013-01-24 17:38:00,49.8,31.0,30.28,NNE,31,4.4,4.4,48,0.00,,,0.00,7.00,VWS V14.01,2013-01-24 22:38:00,
2013-01-24 17:39:00,49.8,30.9,30.28,SSE,156,3.3,4.4,48,0.00,,,0.00,5.00,VWS V14.01,2013-01-24 22:39:00,
2013-01-24 17:40:00,49.8,31.4,30.28,ENE,72,0.0,6.6,49,0.00,,,0.00,5.00,VWS V14.01,2013-01-24 22:40:00,
2013-01-24 17:41:00,49.7,30.8,30.28,NNE,21,9.9,9.9,48,0.00,,,0.00,0.00,VWS V14.01,2013-01-24 22:41:00,
2013-01-24 17:42:00,49.5,30.2,30.28,NE,43,3.3,9.9,47,0.00,,,0.00,0.00,VWS V14.01,2013-01-24 22:42:00,
2013-01-24 17:43:00,49.5,30.2,30.29,NNE,17,3.3,3.3,47,0.00,,,0.00,0.00,VWS V14.01,2013-01-24 22:43:00,
2013-01-24 17:44:00,49.5,29.5,30.29,North,353,2.2,3.3,46,0.00,,,0.00,0.00,VWS V14.01,2013-01-24 22:44:00,
2013-01-24 17:45:00,49.3,30.0,30.29,North,353,1.1,2.2,47,0.00,,,0.00,0.00,VWS V14.01,2013-01-24 22:45:00,
2013-01-24 17:46:00,49.2,29.9,30.29,NNE,19,4.4,5.5,47,0.00,,,0.00,0.00,VWS V14.01,2013-01-24 22:46:00,
2013-01-24 17:47:00,49.2,29.8,30.29,NNW,344,5.5,5.5,47,0.00,,,0.00,0.00,VWS V14.01,2013-01-24 22:47:00,
2013-01-24 17:48:00,49.2,29.8,30.29,NNW,348,1.1,5.5,47,0.00,,,0.00,0.00,VWS V14.01,2013-01-24 22:48:00,
2013-01-24 17:49:00,49.0,30.2,30.29,NE,47,2.2,3.3,48,0.00,,,0.00,0.00,VWS V14.01,2013-01-24 22:49:00,
2013-01-24 17:50:00,49.0,29.6,30.29,NNE,15,3.3,3.3,47,0.00,,,0.00,0.00,VWS V14.01,2013-01-24 22:50:00,
2013-01-24 17:51:00,49.0,29.6,30.29,ENE,75,0.0,6.6,47,0.00,,,0.00,0.00,VWS V14.01,2013-01-24 22:51:00,
2013-01-24 17:52:00,48.8,29.5,30.29,ENE,73,0.0,1.1,47,0.00,,,0.00,0.00,VWS V14.01,2013-01-24 22:52:00,
2013-01-24 17:53:00,48.8,30.0,30.29,ENE,73,0.0,1.1,48,0.00,,,0.00,0.00,VWS V14.01,2013-01-24 22:53:00,
2013-01-24 17:54:00,48.8,30.0,30.29,NNE,30,3.3,3.3,48,0.00,,,0.00,0.00,VWS V14.01,2013-01-24 22:54:00,
2013-01-24 17:55:00,48.7,29.9,30.29,SSE,164,1.1,3.3,48,0.00,,,0.00,0.00,VWS V14.01,2013-01-24 22:55:00,
2013-01-24 17:56:00,48.5,29.8,30.29,SSW,198,1.1,4.4,48,0.00,,,0.00,0.00,VWS V14.01,2013-01-24 22:56:00,
2013-01-24 17:57:00,48.5,29.8,30.29,ENE,57,3.3,3.3,48,0.00,,,0.00,0.00,VWS V14.01,2013-01-24 22:57:00,
2013-01-24 17:58:00,48.5,29.7,30.30,ENE,57,0.0,5.5,48,0.00,,,0.00,0.00,VWS V14.01,2013-01-24 22:58:00,
2013-01-24 17:59:00,48.3,29.6,30.29,East,96,0.0,2.2,48,0.00,,,0.00,0.00,VWS V14.01,2013-01-24 22:59:00,
2013-01-24 18:00:00,48.3,29.6,30.29,NNE,30,5.5,11.0,48,0.00,,,0.00,0.00,VWS V14.01,2013-01-24 23:00:00,
2013-01-24 18:01:00,48.2,29.0,30.29,NE,52,0.0,5.5,47,0.00,,,0.00,0.00,VWS V14.01,2013-01-24 23:01:00,
2013-01-24 18:02:00,48.2,29.0,30.29,NE,52,0.0,1.1,47,0.00,,,0.00,0.00,VWS V14.01,2013-01-24 23:02:00,
2013-01-24 18:03:00,48.2,28.9,30.29,ENE,77,1.1,2.2,47,0.00,,,0.00,0.00,VWS V14.01,2013-01-24 23:03:00,
2013-01-24 18:04:00,48.2,28.9,30.29,ENE,77,0.0,1.1,47,0.00,,,0.00,0.00,VWS V14.01,2013-01-24 23:04:00,
2013-01-24 18:05:00,48.0,28.8,30.30,NE,52,1.1,4.4,47,0.00,,,0.00,0.00,VWS V14.01,2013-01-24 23:05:00,
2013-01-24 18:06:00,48.0,28.8,30.30,NE,50,4.4,4.4,47,0.00,,,0.00,0.00,VWS V14.01,2013-01-24 23:06:00,
2013-01-24 18:07:00,48.0,28.8,30.30,NE,50,4.4,4.4,47,0.00,,,0.00,0.00,VWS V14.01,2013-01-24 23:07:00,
2013-01-24 18:08:00,48.0,28.7,30.30,NNE,17,3.3,4.4,47,0.00,,,0.00,0.00,VWS V14.01,2013-01-24 23:08:00,
2013-01-24 18:09:00,48.0,28.7,30.30,NNE,23,0.0,4.4,47,0.00,,,0.00,0.00,VWS V14.01,2013-01-24 23:09:00,
2013-01-24 18:10:00,47.8,28.6,30.30,NNE,22,1.1,1.1,47,0.00,,,0.00,0.00,VWS V14.01,2013-01-24 23:10:00,
2013-01-24 18:11:00,47.8,28.6,30.31,NE,34,2.2,4.4,47,0.00,,,0.00,0.00,VWS V14.01,2013-01-24 23:11:00,
2013-01-24 18:12:00,47.8,28.5,30.30,ENE,63,3.3,5.5,47,0.00,,,0.00,0.00,VWS V14.01,2013-01-24 23:12:00,
2013-01-24 18:13:00,47.8,28.0,30.31,NNE,25,0.0,3.3,46,0.00,,,0.00,0.00,VWS V14.01,2013-01-24 23:13:00,
2013-01-24 18:14:00,47.8,28.5,30.31,NNE,25,0.0,1.1,47,0.00,,,0.00,0.00,VWS V14.01,2013-01-24 23:14:00,
2013-01-24 18:15:00,47.7,28.4,30.31,North,358,4.4,5.5,47,0.00,,,0.00,0.00,VWS V14.01,2013-01-24 23:15:00,
2013-01-24 18:16:00,47.7,28.4,30.31,NNE,29,2.2,5.5,47,0.00,,,0.00,0.00,VWS V14.01,2013-01-24 23:16:00,
2013-01-24 18:17:00,47.5,28.3,30.31,NNE,15,2.2,4.4,47,0.00,,,0.00,0.00,VWS V14.01,2013-01-24 23:17:00,
2013-01-24 18:18:00,47.5,28.3,30.31,North,358,0.0,3.3,47,0.00,,,0.00,0.00,VWS V14.01,2013-01-24 23:18:00,
2013-01-24 18:19:00,47.5,28.8,30.31,NNE,12,0.0,1.1,48,0.00,,,0.00,0.00,VWS V14.01,2013-01-24 23:19:00,
2013-01-24 18:20:00,47.5,28.8,30.32,ENE,60,0.0,1.1,48,0.00,,,0.00,0.00,VWS V14.01,2013-01-24 23:20:00,
2013-01-24 18:21:00,47.3,28.7,30.32,ENE,60,0.0,0.0,48,0.00,,,0.00,0.00,VWS V14.01,2013-01-24 23:21:00,
2013-01-24 18:22:00,47.2,28.6,30.32,ENE,61,1.1,2.2,48,0.00,,,0.00,0.00,VWS V14.01,2013-01-24 23:22:00,
2013-01-24 18:23:00,47.2,28.5,30.32,ENE,64,0.0,2.2,48,0.00,,,0.00,0.00,VWS V14.01,2013-01-24 23:23:00,
2013-01-24 18:24:00,47.0,28.4,30.32,NE,35,0.0,2.2,48,0.00,,,0.00,0.00,VWS V14.01,2013-01-24 23:24:00,
2013-01-24 18:25:00,47.0,28.4,30.32,NE,39,0.0,7.7,48,0.00,,,0.00,0.00,VWS V14.01,2013-01-24 23:25:00,
2013-01-24 18:26:00,47.0,28.4,30.32,NE,42,0.0,1.1,48,0.00,,,0.00,0.00,VWS V14.01,2013-01-24 23:26:00,
2013-01-24 18:27:00,47.0,28.8,30.32,NE,42,1.1,1.1,49,0.00,,,0.00,0.00,VWS V14.01,2013-01-24 23:27:00,
2013-01-24 18:28:00,47.0,28.8,30.32,NNE,33,0.0,2.2,49,0.00,,,0.00,0.00,VWS V14.01,2013-01-24 23:28:00,
2013-01-24 18:29:00,46.8,28.7,30.32,NNE,33,0.0,0.0,49,0.00,,,0.00,0.00,VWS V14.01,2013-01-24 23:29:00,
2013-01-24 18:30:00,46.8,28.7,30.32,NNE,32,0.0,1.1,49,0.00,,,0.00,0.00,VWS V14.01,2013-01-24 23:30:00,
2013-01-24 18:31:00,46.8,28.6,30.33,NNE,32,0.0,0.0,49,0.00,,,0.00,0.00,VWS V14.01,2013-01-24 23:31:00,
2013-01-24 18:32:00,46.7,28.5,30.33,NE,56,1.1,2.2,49,0.00,,,0.00,0.00,VWS V14.01,2013-01-24 23:32:00,
2013-01-24 18:33:00,46.7,28.0,30.33,NE,46,1.1,3.3,48,0.00,,,0.00,0.00,VWS V14.01,2013-01-24 23:33:00,
2013-01-24 18:34:00,46.5,27.9,30.33,NE,39,0.0,2.2,48,0.00,,,0.00,0.00,VWS V14.01,2013-01-24 23:34:00,
2013-01-24 18:35:00,46.5,28.4,30.33,NE,39,0.0,1.1,49,0.00,,,0.00,0.00,VWS V14.01,2013-01-24 23:35:00,
2013-01-24 18:36:00,46.5,28.3,30.33,NE,39,0.0,1.1,49,0.00,,,0.00,0.00,VWS V14.01,2013-01-24 23:36:00,
2013-01-24 18:37:00,46.5,28.3,30.33,NE,45,0.0,2.2,49,0.00,,,0.00,0.00,VWS V14.01,2013-01-24 23:37:00,
2013-01-24 18:38:00,46.3,28.7,30.33,NE,45,0.0,0.0,50,0.00,,,0.00,0.00,VWS V14.01,2013-01-24 23:38:00,
2013-01-24 18:39:00,46.2,28.6,30.33,NE,40,1.1,1.1,50,0.00,,,0.00,0.00,VWS V14.01,2013-01-24 23:39:00,
2013-01-24 18:40:00,46.2,28.6,30.33,NE,40,0.0,1.1,50,0.00,,,0.00,0.00,VWS V14.01,2013-01-24 23:40:00,
2013-01-24 18:41:00,46.2,28.6,30.33,NE,40,0.0,0.0,50,0.00,,,0.00,0.00,VWS V14.01,2013-01-24 23:41:00,
2013-01-24 18:42:00,46.0,28.5,30.33,NE,40,0.0,0.0,50,0.00,,,0.00,0.00,VWS V14.01,2013-01-24 23:42:00,
2013-01-24 18:43:00,46.0,28.5,30.33,NE,35,2.2,2.2,50,0.00,,,0.00,0.00,VWS V14.01,2013-01-24 23:43:00,
2013-01-24 18:44:00,46.0,27.9,30.33,NE,37,0.0,3.3,49,0.00,,,0.00,0.00,VWS V14.01,2013-01-24 23:44:00,
2013-01-24 18:45:00,46.0,27.9,30.33,NNE,30,0.0,5.5,49,0.00,,,0.00,0.00,VWS V14.01,2013-01-24 23:45:00,
2013-01-24 18:46:00,46.0,28.4,30.33,ENE,64,1.1,3.3,50,0.00,,,0.00,0.00,VWS V14.01,2013-01-24 23:46:00,
2013-01-24 18:47:00,45.8,28.3,30.33,NNE,27,1.1,2.2,50,0.00,,,0.00,0.00,VWS V14.01,2013-01-24 23:47:00,
2013-01-24 18:48:00,45.8,27.8,30.33,NE,40,1.1,1.1,49,0.00,,,0.00,0.00,VWS V14.01,2013-01-24 23:48:00,
2013-01-24 18:49:00,45.8,27.8,30.33,NE,41,0.0,1.1,49,0.00,,,0.00,0.00,VWS V14.01,2013-01-24 23:49:00,
2013-01-24 18:50:00,46.0,27.9,30.33,NNE,27,1.1,1.1,49,0.00,,,0.00,0.00,VWS V14.01,2013-01-24 23:50:00,
2013-01-24 18:51:00,45.8,27.8,30.33,NNE,27,0.0,1.1,49,0.00,,,0.00,0.00,VWS V14.01,2013-01-24 23:51:00,
2013-01-24 18:52:00,45.8,27.8,30.33,NNE,27,0.0,1.1,49,0.00,,,0.00,0.00,VWS V14.01,2013-01-24 23:52:00,
2013-01-24 18:53:00,45.8,27.8,30.34,East,100,0.0,2.2,49,0.00,,,0.00,0.00,VWS V14.01,2013-01-24 23:53:00,
2013-01-24 18:54:00,45.8,27.8,30.34,NE,39,1.1,1.1,49,0.00,,,0.00,0.00,VWS V14.01,2013-01-24 23:54:00,
2013-01-24 18:55:00,45.8,27.8,30.34,NNE,20,1.1,4.4,49,0.00,,,0.00,0.00,VWS V14.01,2013-01-24 23:55:00,
2013-01-24 18:56:00,45.8,27.7,30.34,North,358,2.2,3.3,49,0.00,,,0.00,0.00,VWS V14.01,2013-01-24 23:56:00,
2013-01-24 18:57:00,45.8,27.7,30.34,NNE,22,0.0,2.2,49,0.00,,,0.00,0.00,VWS V14.01,2013-01-24 23:57:00,
2013-01-24 18:58:00,45.8,28.2,30.34,NNE,22,0.0,1.1,50,0.00,,,0.00,0.00,VWS V14.01,2013-01-24 23:58:00,
2013-01-24 18:59:00,45.7,28.1,30.34,NNE,22,0.0,0.0,50,0.00,,,0.00,0.00,VWS V14.01,2013-01-24 23:59:00,
2013-01-24 19:00:00,45.7,28.1,30.34,NNE,22,0.0,0.0,50,0.00,,,0.00,0.00,VWS V14.01,2013-01-25 00:00:00,
2013-01-24 19:01:00,45.5,27.5,30.34,NNE,23,0.0,2.2,49,0.00,,,0.00,0.00,VWS V14.01,2013-01-25 00:01:00,
2013-01-24 19:02:00,45.5,28.0,30.34,NNE,23,0.0,0.0,50,0.00,,,0.00,0.00,VWS V14.01,2013-01-25 00:02:00,
2013-01-24 19:03:00,45.5,27.9,30.34,NE,50,2.2,3.3,50,0.00,,,0.00,0.00,VWS V14.01,2013-01-25 00:03:00,
2013-01-24 19:04:00,45.5,27.9,30.35,East,79,0.0,2.2,50,0.00,,,0.00,0.00,VWS V14.01,2013-01-25 00:04:00,
2013-01-24 19:05:00,45.3,27.8,30.35,East,79,0.0,0.0,50,0.00,,,0.00,0.00,VWS V14.01,2013-01-25 00:05:00,
2013-01-24 19:06:00,45.2,27.7,30.35,NE,52,0.0,1.1,50,0.00,,,0.00,0.00,VWS V14.01,2013-01-25 00:06:00,
2013-01-24 19:07:00,45.2,27.7,30.35,NE,52,0.0,0.0,50,0.00,,,0.00,0.00,VWS V14.01,2013-01-25 00:07:00,
2013-01-24 19:08:00,45.2,27.6,30.35,NE,52,0.0,0.0,50,0.00,,,0.00,0.00,VWS V14.01,2013-01-25 00:08:00,
2013-01-24 19:09:00,45.2,28.1,30.35,NE,52,0.0,0.0,51,0.00,,,0.00,0.00,VWS V14.01,2013-01-25 00:09:00,
2013-01-24 19:10:00,45.0,28.0,30.35,NE,52,0.0,0.0,51,0.00,,,0.00,0.00,VWS V14.01,2013-01-25 00:10:00,
2013-01-24 19:11:00,44.8,27.8,30.35,ENE,64,1.1,1.1,51,0.00,,,0.00,0.00,VWS V14.01,2013-01-25 00:11:00,
2013-01-24 19:12:00,44.8,27.8,30.35,NE,38,0.0,2.2,51,0.00,,,0.00,0.00,VWS V14.01,2013-01-25 00:12:00,
2013-01-24 19:13:00,44.8,27.8,30.35,NE,38,0.0,1.1,51,0.00,,,0.00,0.00,VWS V14.01,2013-01-25 00:13:00,
2013-01-24 19:14:00,44.7,28.1,30.35,NE,38,0.0,0.0,52,0.00,,,0.00,0.00,VWS V14.01,2013-01-25 00:14:00,
2013-01-24 19:15:00,44.5,28.0,30.35,NE,39,0.0,0.0,52,0.00,,,0.00,0.00,VWS V14.01,2013-01-25 00:15:00,
2013-01-24 19:16:00,44.5,28.0,30.35,NE,39,0.0,0.0,52,0.00,,,0.00,0.00,VWS V14.01,2013-01-25 00:16:00,
2013-01-24 19:17:00,44.5,28.0,30.35,NE,41,1.1,1.1,52,0.00,,,0.00,0.00,VWS V14.01,2013-01-25 00:17:00,
2013-01-24 19:18:00,44.5,28.0,30.35,NE,41,0.0,1.1,52,0.00,,,0.00,0.00,VWS V14.01,2013-01-25 00:18:00,
2013-01-24 19:19:00,44.5,27.9,30.35,NE,41,0.0,0.0,52,0.00,,,0.00,0.00,VWS V14.01,2013-01-25 00:19:00,
2013-01-24 19:20:00,44.3,27.9,30.36,NE,39,0.0,1.1,52,0.00,,,0.00,0.00,VWS V14.01,2013-01-25 00:20:00,
2013-01-24 19:21:00,44.3,28.3,30.36,North,11,1.1,1.1,53,0.00,,,0.00,0.00,VWS V14.01,2013-01-25 00:21:00,
2013-01-24 19:22:00,44.2,27.8,30.36,North,11,0.0,1.1,52,0.00,,,0.00,0.00,VWS V14.01,2013-01-25 00:22:00,
2013-01-24 19:23:00,44.2,28.2,30.36,NNE,28,3.3,3.3,53,0.00,,,0.00,0.00,VWS V14.01,2013-01-25 00:23:00,
2013-01-24 19:24:00,44.2,28.2,30.36,North,2,2.2,2.2,53,0.00,,,0.00,0.00,VWS V14.01,2013-01-25 00:24:00,
2013-01-24 19:25:00,44.2,27.8,30.36,NNW,348,2.2,4.4,52,0.00,,,0.00,0.00,VWS V14.01,2013-01-25 00:25:00,
2013-01-24 19:26:00,44.2,27.8,30.36,ENE,69,3.3,4.4,52,0.00,,,0.00,0.00,VWS V14.01,2013-01-25 00:26:00,
2013-01-24 19:27:00,44.2,27.8,30.36,ENE,57,1.1,5.5,52,0.00,,,0.00,0.00,VWS V14.01,2013-01-25 00:27:00,
2013-01-24 19:28:00,44.2,27.3,30.36,ENE,58,0.0,5.5,51,0.00,,,0.00,0.00,VWS V14.01,2013-01-25 00:28:00,
2013-01-24 19:29:00,44.3,27.4,30.36,NE,54,2.2,3.3,51,0.00,,,0.00,0.00,VWS V14.01,2013-01-25 00:29:00,
2013-01-24 19:30:00,44.3,27.4,30.37,NE,43,4.4,4.4,51,0.00,,,0.00,0.00,VWS V14.01,2013-01-25 00:30:00,
2013-01-24 19:31:00,44.3,27.4,30.37,NNE,31,0.0,4.4,51,0.00,,,0.00,0.00,VWS V14.01,2013-01-25 00:31:00,
2013-01-24 19:32:00,44.3,27.4,30.37,NNE,32,0.0,1.1,51,0.00,,,0.00,0.00,VWS V14.01,2013-01-25 00:32:00,
2013-01-24 19:33:00,44.3,26.9,30.37,NE,35,0.0,0.0,50,0.00,,,0.00,0.00,VWS V14.01,2013-01-25 00:33:00,
2013-01-24 19:34:00,44.3,26.9,30.37,SE,144,1.1,7.7,50,0.00,,,0.00,0.00,VWS V14.01,2013-01-25 00:34:00,
2013-01-24 19:35:00,44.2,26.8,30.37,NE,46,1.1,4.4,50,0.00,,,0.00,0.00,VWS V14.01,2013-01-25 00:35:00,
2013-01-24 19:36:00,44.2,26.8,30.37,NE,42,0.0,2.2,50,0.00,,,0.00,0.00,VWS V14.01,2013-01-25 00:36:00,
2013-01-24 19:37:00,44.2,26.8,30.37,NE,43,0.0,1.1,50,0.00,,,0.00,0.00,VWS V14.01,2013-01-25 00:37:00,
2013-01-24 19:38:00,44.2,26.7,30.37,North,358,2.2,3.3,50,0.00,,,0.00,0.00,VWS V14.01,2013-01-25 00:38:00,
2013-01-24 19:39:00,44.2,26.2,30.37,NE,40,2.2,5.5,49,0.00,,,0.00,0.00,VWS V14.01,2013-01-25 00:39:00,
2013-01-24 19:40:00,44.2,26.2,30.37,ENE,62,0.0,2.2,49,0.00,,,0.00,0.00,VWS V14.01,2013-01-25 00:40:00,
2013-01-24 19:41:00,44.2,25.7,30.38,ENE,67,3.3,7.7,48,0.00,,,0.00,0.00,VWS V14.01,2013-01-25 00:41:00,
2013-01-24 19:42:00,44.0,25.6,30.37,NE,48,0.0,3.3,48,0.00,,,0.00,0.00,VWS V14.01,2013-01-25 00:42:00,
2013-01-24 19:43:00,44.0,25.6,30.38,SSE,149,1.1,3.3,48,0.00,,,0.00,0.00,VWS V14.01,2013-01-25 00:43:00,
2013-01-24 19:44:00,44.0,25.5,30.37,ENE,64,0.0,5.5,48,0.00,,,0.00,0.00,VWS V14.01,2013-01-25 00:44:00,
2013-01-24 19:45:00,44.0,25.5,30.37,NE,41,0.0,5.5,48,0.00,,,0.00,0.00,VWS V14.01,2013-01-25 00:45:00,
2013-01-24 19:46:00,44.0,25.5,30.37,NNE,23,5.5,5.5,48,0.00,,,0.00,0.00,VWS V14.01,2013-01-25 00:46:00,
2013-01-24 19:47:00,44.0,25.0,30.38,East,85,2.2,8.8,47,0.00,,,0.00,0.00,VWS V14.01,2013-01-25 00:47:00,
2013-01-24 19:48:00,44.0,25.0,30.38,NNE,17,2.2,5.5,47,0.00,,,0.00,0.00,VWS V14.01,2013-01-25 00:48:00,
2013-01-24 19:49:00,43.8,24.9,30.38,NNE,25,2.2,3.3,47,0.00,,,0.00,0.00,VWS V14.01,2013-01-25 00:49:00,
2013-01-24 19:50:00,43.8,24.9,30.38,NE,44,3.3,6.6,47,0.00,,,0.00,0.00,VWS V14.01,2013-01-25 00:50:00,
2013-01-24 19:51:00,43.8,24.9,30.38,ENE,58,0.0,3.3,47,0.00,,,0.00,0.00,VWS V14.01,2013-01-25 00:51:00,
2013-01-24 19:52:00,43.8,24.9,30.38,ESE,108,1.1,3.3,47,0.00,,,0.00,0.00,VWS V14.01,2013-01-25 00:52:00,
2013-01-24 19:53:00,43.8,24.9,30.38,NE,45,1.1,3.3,47,0.00,,,0.00,0.00,VWS V14.01,2013-01-25 00:53:00,
2013-01-24 19:54:00,43.8,24.9,30.38,NE,37,4.4,9.9,47,0.00,,,0.00,0.00,VWS V14.01,2013-01-25 00:54:00,
2013-01-24 19:55:00,43.8,24.3,30.38,NE,39,0.0,4.4,46,0.00,,,0.00,0.00,VWS V14.01,2013-01-25 00:55:00,
2013-01-24 19:56:00,43.7,24.2,30.38,ENE,62,4.4,4.4,46,0.00,,,0.00,0.00,VWS V14.01,2013-01-25 00:56:00,
2013-01-24 19:57:00,43.7,24.2,30.38,ENE,58,2.2,5.5,46,0.00,,,0.00,0.00,VWS V14.01,2013-01-25 00:57:00,
2013-01-24 19:58:00,43.7,24.8,30.38,East,98,1.1,3.3,47,0.00,,,0.00,0.00,VWS V14.01,2013-01-25 00:58:00,
2013-01-24 19:59:00,43.5,24.7,30.38,NE,49,3.3,3.3,47,0.00,,,0.00,0.00,VWS V14.01,2013-01-25 00:59:00,
2013-01-24 20:00:00,43.5,24.2,30.38,ENE,60,1.1,3.3,46,0.00,,,0.00,0.00,VWS V14.01,2013-01-25 01:00:00,
2013-01-24 20:01:00,43.5,24.1,30.38,NE,44,0.0,4.4,46,0.00,,,0.00,0.00,VWS V14.01,2013-01-25 01:01:00,
2013-01-24 20:02:00,43.5,24.6,30.38,NE,37,0.0,2.2,47,0.00,,,0.00,0.00,VWS V14.01,2013-01-25 01:02:00,
2013-01-24 20:03:00,43.3,24.5,30.38,NE,37,0.0,2.2,47,0.00,,,0.00,0.00,VWS V14.01,2013-01-25 01:03:00,
2013-01-24 20:04:00,43.3,24.5,30.39,NE,37,0.0,0.0,47,0.00,,,0.00,0.00,VWS V14.01,2013-01-25 01:04:00,
2013-01-24 20:05:00,43.2,24.4,30.39,ENE,57,1.1,4.4,47,0.00,,,0.00,0.00,VWS V14.01,2013-01-25 01:05:00,
2013-01-24 20:06:00,43.2,24.8,30.39,NE,41,0.0,2.2,48,0.00,,,0.00,0.00,VWS V14.01,2013-01-25 01:06:00,
2013-01-24 20:07:00,43.2,24.3,30.39,North,358,4.4,4.4,47,0.00,,,0.00,0.00,VWS V14.01,2013-01-25 01:07:00,
2013-01-24 20:08:00,43.0,24.2,30.39,ENE,69,3.3,4.4,47,0.00,,,0.00,0.00,VWS V14.01,2013-01-25 01:08:00,
2013-01-24 20:09:00,43.0,24.7,30.39,ENE,66,0.0,3.3,48,0.00,,,0.00,0.00,VWS V14.01,2013-01-25 01:09:00,
2013-01-24 20:10:00,43.0,24.6,30.39,North,8,2.2,4.4,48,0.00,,,0.00,0.00,VWS V14.01,2013-01-25 01:10:00,
2013-01-24 20:11:00,43.0,24.1,30.38,NNW,348,5.5,5.5,47,0.00,,,0.00,0.00,VWS V14.01,2013-01-25 01:11:00,
2013-01-24 20:12:00,43.0,24.6,30.39,NNE,30,0.0,1.1,48,0.00,,,0.00,0.00,VWS V14.01,2013-01-25 01:12:00,
2013-01-24 20:13:00,43.0,24.6,30.39,NNE,30,0.0,1.1,48,0.00,,,0.00,0.00,VWS V14.01,2013-01-25 01:13:00,
2013-01-24 20:14:00,42.8,25.0,30.39,NNE,12,2.2,2.2,49,0.00,,,0.00,0.00,VWS V14.01,2013-01-25 01:14:00,
2013-01-24 20:15:00,42.8,25.0,30.39,NE,46,2.2,2.2,49,0.00,,,0.00,0.00,VWS V14.01,2013-01-25 01:15:00,
2013-01-24 20:16:00,42.8,24.4,30.39,NE,42,2.2,5.5,48,0.00,,,0.00,0.00,VWS V14.01,2013-01-25 01:16:00,
2013-01-24 20:17:00,42.7,24.4,30.39,ESE,111,0.0,1.1,48,0.00,,,0.00,0.00,VWS V14.01,2013-01-25 01:17:00,
2013-01-24 20:18:00,42.7,24.4,30.39,ESE,118,0.0,1.1,48,0.00,,,0.00,0.00,VWS V14.01,2013-01-25 01:18:00,
2013-01-24 20:19:00,42.7,24.4,30.39,NNW,348,2.2,3.3,48,0.00,,,0.00,0.00,VWS V14.01,2013-01-25 01:19:00,
2013-01-24 20:20:00,42.5,24.2,30.39,NNE,29,1.1,2.2,48,0.00,,,0.00,0.00,VWS V14.01,2013-01-25 01:20:00,
2013-01-24 20:22:00,42.5,24.2,30.39,NE,40,0.0,1.1,48,0.00,,,0.00,0.00,VWS V14.01,2013-01-25 01:22:00,
2013-01-24 20:23:00,42.5,24.7,30.39,NE,40,0.0,1.1,49,0.00,,,0.00,0.00,VWS V14.01,2013-01-25 01:23:00,
2013-01-24 20:24:00,42.5,24.7,30.39,NE,40,0.0,0.0,49,0.00,,,0.00,0.00,VWS V14.01,2013-01-25 01:24:00,
2013-01-24 20:25:00,42.3,24.6,30.39,NE,40,1.1,1.1,49,0.00,,,0.00,0.00,VWS V14.01,2013-01-25 01:25:00,
2013-01-24 20:26:00,42.2,24.5,30.39,North,5,6.6,7.7,49,0.00,,,0.00,0.00,VWS V14.01,2013-01-25 01:26:00,
2013-01-24 20:27:00,42.2,24.0,30.39,NNE,13,6.6,6.6,48,0.00,,,0.00,0.00,VWS V14.01,2013-01-25 01:27:00,
2013-01-24 20:28:00,42.2,24.0,30.39,NNE,13,4.4,6.6,48,0.00,,,0.00,0.00,VWS V14.01,2013-01-25 01:28:00,
2013-01-24 20:29:00,42.2,24.0,30.40,NE,41,0.0,4.4,48,0.00,,,0.00,0.00,VWS V14.01,2013-01-25 01:29:00,
2013-01-24 20:30:00,42.2,23.9,30.40,North,358,0.0,3.3,48,0.00,,,0.00,0.00,VWS V14.01,2013-01-25 01:30:00,
2013-01-24 20:31:00,42.2,23.9,30.40,NNE,12,3.3,4.4,48,0.00,,,0.00,0.00,VWS V14.01,2013-01-25 01:31:00,
2013-01-24 20:32:00,42.0,23.3,30.40,NE,44,4.4,4.4,47,0.00,,,0.00,0.00,VWS V14.01,2013-01-25 01:32:00,
2013-01-24 20:33:00,42.0,23.3,30.40,ENE,67,3.3,6.6,47,0.00,,,0.00,0.00,VWS V14.01,2013-01-25 01:33:00,
2013-01-24 20:34:00,42.0,23.3,30.40,NNW,330,5.5,6.6,47,0.00,,,0.00,0.00,VWS V14.01,2013-01-25 01:34:00,
2013-01-24 20:35:00,42.0,23.3,30.40,NNE,33,1.1,6.6,47,0.00,,,0.00,0.00,VWS V14.01,2013-01-25 01:35:00,
2013-01-24 20:36:00,42.0,23.2,30.40,NE,44,4.4,8.8,47,0.00,,,0.00,0.00,VWS V14.01,2013-01-25 01:36:00,
2013-01-24 20:37:00,42.0,23.2,30.40,ESE,122,1.1,4.4,47,0.00,,,0.00,0.00,VWS V14.01,2013-01-25 01:37:00,
2013-01-24 20:38:00,42.0,23.2,30.40,NNW,337,1.1,4.4,47,0.00,,,0.00,0.00,VWS V14.01,2013-01-25 01:38:00,
2013-01-24 20:39:00,42.0,23.2,30.40,East,79,2.2,3.3,47,0.00,,,0.00,0.00,VWS V14.01,2013-01-25 01:39:00,
2013-01-24 20:40:00,42.0,23.2,30.41,NNE,21,2.2,2.2,47,0.00,,,0.00,0.00,VWS V14.01,2013-01-25 01:40:00,
2013-01-24 20:41:00,41.8,22.6,30.41,NNE,25,1.1,3.3,46,0.00,,,0.00,0.00,VWS V14.01,2013-01-25 01:41:00,
2013-01-24 20:42:00,41.8,23.1,30.41,NNE,12,1.1,1.1,47,0.00,,,0.00,0.00,VWS V14.01,2013-01-25 01:42:00,
2013-01-24 20:43:00,41.8,23.0,30.41,NNE,30,2.2,2.2,47,0.00,,,0.00,0.00,VWS V14.01,2013-01-25 01:43:00,
2013-01-24 20:44:00,41.8,23.0,30.41,NNE,30,2.2,2.2,47,0.00,,,0.00,0.00,VWS V14.01,2013-01-25 01:44:00,
2013-01-24 20:45:00,41.7,22.9,30.41,NE,46,0.0,5.5,47,0.00,,,0.00,0.00,VWS V14.01,2013-01-25 01:45:00,
2013-01-24 20:46:00,41.7,22.9,30.41,SE,129,3.3,4.4,47,0.00,,,0.00,0.00,VWS V14.01,2013-01-25 01:46:00,
2013-01-24 20:47:00,41.5,22.8,30.41,NE,54,1.1,3.3,47,0.00,,,0.00,0.00,VWS V14.01,2013-01-25 01:47:00,
2013-01-24 20:48:00,41.5,22.8,30.41,ENE,67,3.3,3.3,47,0.00,,,0.00,0.00,VWS V14.01,2013-01-25 01:48:00,
2013-01-24 20:49:00,41.5,22.8,30.41,ENE,69,1.1,3.3,47,0.00,,,0.00,0.00,VWS V14.01,2013-01-25 01:49:00,
2013-01-24 20:50:00,41.5,22.7,30.41,ENE,61,1.1,6.6,47,0.00,,,0.00,0.00,VWS V14.01,2013-01-25 01:50:00,
2013-01-24 20:51:00,41.5,22.7,30.41,ENE,60,0.0,3.3,47,0.00,,,0.00,0.00,VWS V14.01,2013-01-25 01:51:00,
2013-01-24 20:52:00,41.3,22.6,30.42,NE,50,0.0,2.2,47,0.00,,,0.00,0.00,VWS V14.01,2013-01-25 01:52:00,
2013-01-24 20:53:00,41.3,22.6,30.42,NE,48,2.2,3.3,47,0.00,,,0.00,0.00,VWS V14.01,2013-01-25 01:53:00,
2013-01-24 20:54:00,41.2,22.6,30.41,NW,324,4.4,5.5,47,0.00,,,0.00,0.00,VWS V14.01,2013-01-25 01:54:00,
2013-01-24 20:55:00,41.2,22.6,30.41,NNW,348,1.1,4.4,47,0.00,,,0.00,0.00,VWS V14.01,2013-01-25 01:55:00,
2013-01-24 20:56:00,41.2,22.5,30.41,NE,48,2.2,8.8,47,0.00,,,0.00,0.00,VWS V14.01,2013-01-25 01:56:00,
2013-01-24 20:57:00,41.0,22.4,30.41,North,4,2.2,2.2,47,0.00,,,0.00,0.00,VWS V14.01,2013-01-25 01:57:00,
2013-01-24 20:58:00,41.0,22.4,30.41,NE,54,4.4,6.6,47,0.00,,,0.00,0.00,VWS V14.01,2013-01-25 01:58:00,
2013-01-24 20:59:00,41.0,21.9,30.42,NE,42,3.3,6.6,46,0.00,,,0.00,0.00,VWS V14.01,2013-01-25 01:59:00,
2013-01-24 21:00:00,41.0,21.8,30.41,NE,55,0.0,8.8,46,0.00,,,0.00,0.00,VWS V14.01,2013-01-25 02:00:00,
2013-01-24 21:01:00,41.0,21.8,30.41,NNE,29,0.0,3.3,46,0.00,,,0.00,0.00,VWS V14.01,2013-01-25 02:01:00,
2013-01-24 21:02:00,40.8,21.7,30.42,ENE,71,3.3,5.5,46,0.00,,,0.00,0.00,VWS V14.01,2013-01-25 02:02:00,
2013-01-24 21:03:00,40.8,21.6,30.42,NE,46,1.1,5.5,46,0.00,,,0.00,0.00,VWS V14.01,2013-01-25 02:03:00,
2013-01-24 21:04:00,40.8,21.6,30.42,NE,52,0.0,2.2,46,0.00,,,0.00,0.00,VWS V14.01,2013-01-25 02:04:00,
2013-01-24 21:05:00,40.8,21.6,30.42,North,8,6.6,6.6,46,0.00,,,0.00,0.00,VWS V14.01,2013-01-25 02:05:00,
2013-01-24 21:06:00,40.7,21.5,30.42,NE,42,0.0,6.6,46,0.00,,,0.00,0.00,VWS V14.01,2013-01-25 02:06:00,
2013-01-24 21:07:00,40.5,21.4,30.42,NE,35,2.2,2.2,46,0.00,,,0.00,0.00,VWS V14.01,2013-01-25 02:07:00,
2013-01-24 21:08:00,40.5,21.4,30.42,NNE,19,1.1,2.2,46,0.00,,,0.00,0.00,VWS V14.01,2013-01-25 02:08:00,
2013-01-24 21:09:00,40.5,21.4,30.42,NE,54,1.1,7.7,46,0.00,,,0.00,0.00,VWS V14.01,2013-01-25 02:09:00,
2013-01-24 21:10:00,40.5,21.3,30.42,NNE,29,2.2,2.2,46,0.00,,,0.00,0.00,VWS V14.01,2013-01-25 02:10:00,
2013-01-24 21:11:00,40.3,21.2,30.42,North,358,1.1,5.5,46,0.00,,,0.00,0.00,VWS V14.01,2013-01-25 02:11:00,
2013-01-24 21:12:00,40.3,20.7,30.42,North,6,0.0,1.1,45,0.00,,,0.00,0.00,VWS V14.01,2013-01-25 02:12:00,
2013-01-24 21:13:00,40.3,20.7,30.42,North,8,6.6,6.6,45,0.00,,,0.00,0.00,VWS V14.01,2013-01-25 02:13:00,
2013-01-24 21:14:00,40.2,20.6,30.42,North,2,2.2,6.6,45,0.00,,,0.00,0.00,VWS V14.01,2013-01-25 02:14:00,
2013-01-24 21:15:00,40.2,20.6,30.42,North,2,0.0,2.2,45,0.00,,,0.00,0.00,VWS V14.01,2013-01-25 02:15:00,
2013-01-24 21:16:00,40.2,21.1,30.42,North,2,1.1,1.1,46,0.00,,,0.00,0.00,VWS V14.01,2013-01-25 02:16:00,
2013-01-24 21:17:00,40.2,20.5,30.42,North,2,0.0,0.0,45,0.00,,,0.00,0.00,VWS V14.01,2013-01-25 02:17:00,
2013-01-24 21:18:00,40.2,20.5,30.42,North,2,0.0,0.0,45,0.00,,,0.00,0.00,VWS V14.01,2013-01-25 02:18:00,
2013-01-24 21:19:00,40.0,21.0,30.42,North,2,0.0,0.0,46,0.00,,,0.00,0.00,VWS V14.01,2013-01-25 02:19:00,
2013-01-24 21:20:00,40.0,20.9,30.42,North,11,0.0,2.2,46,0.00,,,0.00,0.00,VWS V14.01,2013-01-25 02:20:00,
2013-01-24 21:21:00,40.0,20.3,30.42,NE,51,2.2,2.2,45,0.00,,,0.00,0.00,VWS V14.01,2013-01-25 02:21:00,
2013-01-24 21:22:00,39.8,20.2,30.43,ENE,64,0.0,5.5,45,0.00,,,0.00,0.00,VWS V14.01,2013-01-25 02:22:00,
2013-01-24 21:23:00,39.8,20.2,30.43,ENE,64,0.0,5.5,45,0.00,,,0.00,0.00,VWS V14.01,2013-01-25 02:23:00,
2013-01-24 21:24:00,39.8,20.7,30.42,NE,46,1.1,2.2,46,0.00,,,0.00,0.00,VWS V14.01,2013-01-25 02:24:00,
2013-01-24 21:25:00,39.8,20.7,30.42,North,358,1.1,3.3,46,0.00,,,0.00,0.00,VWS V14.01,2013-01-25 02:25:00,
2013-01-24 21:26:00,39.8,20.7,30.42,North,6,3.3,4.4,46,0.00,,,0.00,0.00,VWS V14.01,2013-01-25 02:26:00,
2013-01-24 21:27:00,39.7,20.1,30.43,NNE,24,2.2,2.2,45,0.00,,,0.00,0.00,VWS V14.01,2013-01-25 02:27:00,
2013-01-24 21:28:00,39.7,20.6,30.43,SSE,162,0.0,2.2,46,0.00,,,0.00,0.00,VWS V14.01,2013-01-25 02:28:00,
2013-01-24 21:29:00,39.7,20.6,30.43,NE,51,2.2,3.3,46,0.00,,,0.00,0.00,VWS V14.01,2013-01-25 02:29:00,
2013-01-24 21:30:00,39.5,20.5,30.43,ENE,60,0.0,2.2,46,0.00,,,0.00,0.00,VWS V14.01,2013-01-25 02:30:00,
2013-01-24 21:31:00,39.5,20.5,30.43,ENE,57,2.2,2.2,46,0.00,,,0.00,0.00,VWS V14.01,2013-01-25 02:31:00,
2013-01-24 21:32:00,39.5,20.4,30.43,NE,50,1.1,3.3,46,0.00,,,0.00,0.00,VWS V14.01,2013-01-25 02:32:00,
2013-01-24 21:33:00,39.5,20.4,30.43,NE,55,2.2,3.3,46,0.00,,,0.00,0.00,VWS V14.01,2013-01-25 02:33:00,
2013-01-24 21:34:00,39.5,20.4,30.43,NE,55,0.0,2.2,46,0.00,,,0.00,0.00,VWS V14.01,2013-01-25 02:34:00,
2013-01-24 21:35:00,39.5,20.4,30.43,NE,56,0.0,1.1,46,0.00,,,0.00,0.00,VWS V14.01,2013-01-25 02:35:00,
2013-01-24 21:36:00,39.3,20.3,30.43,NNE,27,0.0,1.1,46,0.00,,,0.00,0.00,VWS V14.01,2013-01-25 02:36:00,
2013-01-24 21:37:00,39.3,20.8,30.43,NE,36,0.0,4.4,47,0.00,,,0.00,0.00,VWS V14.01,2013-01-25 02:37:00,
2013-01-24 21:38:00,39.3,20.8,30.43,NE,36,0.0,4.4,47,0.00,,,0.00,0.00,VWS V14.01,2013-01-25 02:38:00,
2013-01-24 21:39:00,39.2,20.7,30.43,NE,37,0.0,2.2,47,0.00,,,0.00,0.00,VWS V14.01,2013-01-25 02:39:00,
2013-01-24 21:40:00,39.2,20.7,30.43,NE,38,0.0,1.1,47,0.00,,,0.00,0.00,VWS V14.01,2013-01-25 02:40:00,
2013-01-24 21:41:00,39.2,20.7,30.43,ENE,64,0.0,2.2,47,0.00,,,0.00,0.00,VWS V14.01,2013-01-25 02:41:00,
2013-01-24 21:42:00,39.2,20.6,30.43,ESE,102,0.0,3.3,47,0.00,,,0.00,0.00,VWS V14.01,2013-01-25 02:42:00,
2013-01-24 21:43:00,39.2,20.6,30.43,ESE,102,0.0,3.3,47,0.00,,,0.00,0.00,VWS V14.01,2013-01-25 02:43:00,
2013-01-24 21:44:00,39.2,20.6,30.43,NE,43,0.0,2.2,47,0.00,,,0.00,0.00,VWS V14.01,2013-01-25 02:44:00,
2013-01-24 21:45:00,39.0,21.0,30.43,NE,43,0.0,1.1,48,0.00,,,0.00,0.00,VWS V14.01,2013-01-25 02:45:00,
2013-01-24 21:46:00,39.0,20.9,30.43,NE,56,0.0,2.2,48,0.00,,,0.00,0.00,VWS V14.01,2013-01-25 02:46:00,
2013-01-24 21:47:00,39.0,20.5,30.43,NNE,25,5.5,5.5,47,0.00,,,0.00,0.00,VWS V14.01,2013-01-25 02:47:00,
2013-01-24 21:48:00,39.0,20.5,30.43,North,353,3.3,8.8,47,0.00,,,0.00,0.00,VWS V14.01,2013-01-25 02:48:00,
2013-01-24 21:49:00,39.0,20.5,30.43,NE,51,0.0,4.4,47,0.00,,,0.00,0.00,VWS V14.01,2013-01-25 02:49:00,
2013-01-24 21:50:00,38.8,20.9,30.43,ESE,102,3.3,3.3,48,0.00,,,0.00,0.00,VWS V14.01,2013-01-25 02:50:00,
2013-01-24 21:51:00,38.8,20.9,30.44,NNE,32,5.5,5.5,48,0.00,,,0.00,0.00,VWS V14.01,2013-01-25 02:51:00,
2013-01-24 21:52:00,38.8,20.9,30.44,NNE,20,0.0,0.0,48,0.00,,,0.00,0.00,VWS V14.01,2013-01-25 02:52:00,
2013-01-24 21:53:00,38.8,20.9,30.44,NNE,20,1.1,2.2,48,0.00,,,0.00,0.00,VWS V14.01,2013-01-25 02:53:00,
2013-01-24 21:54:00,38.8,20.8,30.44,NNE,19,0.0,1.1,48,0.00,,,0.00,0.00,VWS V14.01,2013-01-25 02:54:00,
2013-01-24 21:55:00,38.8,21.2,30.44,NNE,22,0.0,0.0,49,0.00,,,0.00,0.00,VWS V14.01,2013-01-25 02:55:00,
2013-01-24 21:56:00,38.7,21.1,30.44,NNE,22,2.2,2.2,49,0.00,,,0.00,0.00,VWS V14.01,2013-01-25 02:56:00,
2013-01-24 21:57:00,38.5,21.1,30.44,ENE,73,2.2,2.2,49,0.00,,,0.00,0.00,VWS V14.01,2013-01-25 02:57:00,
2013-01-24 21:58:00,38.5,21.1,30.44,East,91,1.1,2.2,49,0.00,,,0.00,0.00,VWS V14.01,2013-01-25 02:58:00,
2013-01-24 21:59:00,38.5,20.6,30.44,ENE,67,0.0,1.1,48,0.00,,,0.00,0.00,VWS V14.01,2013-01-25 02:59:00,
2013-01-24 22:00:00,38.5,21.0,30.44,ENE,67,0.0,0.0,49,0.00,,,0.00,0.00,VWS V14.01,2013-01-25 03:00:00,
2013-01-24 22:01:00,38.5,21.4,30.44,NE,50,0.0,2.2,50,0.00,,,0.00,0.00,VWS V14.01,2013-01-25 03:01:00,
2013-01-24 22:02:00,38.3,20.9,30.44,North,353,0.0,3.3,49,0.00,,,0.00,0.00,VWS V14.01,2013-01-25 03:02:00,
2013-01-24 22:03:00,38.3,20.9,30.44,North,353,0.0,3.3,49,0.00,,,0.00,0.00,VWS V14.01,2013-01-25 03:03:00,
2013-01-24 22:04:00,38.3,20.9,30.44,North,353,1.1,1.1,49,0.00,,,0.00,0.00,VWS V14.01,2013-01-25 03:04:00,
2013-01-24 22:05:00,38.2,20.8,30.44,East,84,1.1,2.2,49,0.00,,,0.00,0.00,VWS V14.01,2013-01-25 03:05:00,
2013-01-24 22:06:00,38.2,21.3,30.44,East,84,0.0,1.1,50,0.00,,,0.00,0.00,VWS V14.01,2013-01-25 03:06:00,
2013-01-24 22:07:00,38.2,21.3,30.44,North,5,4.4,4.4,50,0.00,,,0.00,0.00,VWS V14.01,2013-01-25 03:07:00,
2013-01-24 22:08:00,38.2,21.2,30.44,NNE,18,5.5,6.6,50,0.00,,,0.00,0.00,VWS V14.01,2013-01-25 03:08:00,
2013-01-24 22:09:00,38.2,20.7,30.44,NNE,31,1.1,5.5,49,0.00,,,0.00,0.00,VWS V14.01,2013-01-25 03:09:00,
2013-01-24 22:10:00,38.2,20.7,30.44,North,9,2.2,3.3,49,0.00,,,0.00,0.00,VWS V14.01,2013-01-25 03:10:00,
2013-01-24 22:11:00,38.2,20.7,30.44,East,79,2.2,4.4,49,0.00,,,0.00,0.00,VWS V14.01,2013-01-25 03:11:00,
2013-01-24 22:12:00,38.2,21.2,30.44,ENE,67,0.0,0.0,50,0.00,,,0.00,0.00,VWS V14.01,2013-01-25 03:12:00,
2013-01-24 22:13:00,38.2,20.7,30.44,ENE,67,0.0,0.0,49,0.00,,,0.00,0.00,VWS V14.01,2013-01-25 03:13:00,
2013-01-24 22:14:00,38.0,20.6,30.44,NE,46,3.3,3.3,49,0.00,,,0.00,0.00,VWS V14.01,2013-01-25 03:14:00,
2013-01-24 22:15:00,38.0,21.1,30.44,NNE,27,3.3,5.5,50,0.00,,,0.00,0.00,VWS V14.01,2013-01-25 03:15:00,
2013-01-24 22:16:00,38.0,20.6,30.44,NE,40,3.3,3.3,49,0.00,,,0.00,0.00,VWS V14.01,2013-01-25 03:16:00,
2013-01-24 22:17:00,38.0,20.6,30.44,ENE,63,0.0,2.2,49,0.00,,,0.00,0.00,VWS V14.01,2013-01-25 03:17:00,
2013-01-24 22:18:00,38.0,20.6,30.44,ENE,62,0.0,2.2,49,0.00,,,0.00,0.00,VWS V14.01,2013-01-25 03:18:00,
2013-01-24 22:19:00,38.0,21.1,30.44,ENE,62,0.0,0.0,50,0.00,,,0.00,0.00,VWS V14.01,2013-01-25 03:19:00,
2013-01-24 22:20:00,38.0,21.1,30.45,North,6,1.1,3.3,50,0.00,,,0.00,0.00,VWS V14.01,2013-01-25 03:20:00,
2013-01-24 22:21:00,38.0,21.0,30.45,North,6,0.0,1.1,50,0.00,,,0.00,0.00,VWS V14.01,2013-01-25 03:21:00,
2013-01-24 22:22:00,38.0,21.0,30.45,North,7,0.0,0.0,50,0.00,,,0.00,0.00,VWS V14.01,2013-01-25 03:22:00,
2013-01-24 22:23:00,38.0,21.0,30.45,North,7,0.0,0.0,50,0.00,,,0.00,0.00,VWS V14.01,2013-01-25 03:23:00,
2013-01-24 22:24:00,37.8,21.4,30.45,NNE,23,0.0,2.2,51,0.00,,,0.00,0.00,VWS V14.01,2013-01-25 03:24:00,
2013-01-24 22:25:00,37.8,21.4,30.45,NNE,23,0.0,0.0,51,0.00,,,0.00,0.00,VWS V14.01,2013-01-25 03:25:00,
2013-01-24 22:26:00,37.8,21.4,30.44,NNE,23,0.0,1.1,51,0.00,,,0.00,0.00,VWS V14.01,2013-01-25 03:26:00,
2013-01-24 22:27:00,37.7,21.2,30.45,NE,56,1.1,1.1,51,0.00,,,0.00,0.00,VWS V14.01,2013-01-25 03:27:00,
2013-01-24 22:28:00,37.8,21.3,30.45,NE,56,0.0,1.1,51,0.00,,,0.00,0.00,VWS V14.01,2013-01-25 03:28:00,
2013-01-24 22:29:00,37.7,21.6,30.45,NE,48,0.0,1.1,52,0.00,,,0.00,0.00,VWS V14.01,2013-01-25 03:29:00,
2013-01-24 22:30:00,37.7,21.6,30.45,NE,48,1.1,1.1,52,0.00,,,0.00,0.00,VWS V14.01,2013-01-25 03:30:00,
2013-01-24 22:31:00,37.7,21.6,30.45,NE,49,0.0,2.2,52,0.00,,,0.00,0.00,VWS V14.01,2013-01-25 03:31:00,
2013-01-24 22:32:00,37.7,22.1,30.46,NE,50,0.0,1.1,53,0.00,,,0.00,0.00,VWS V14.01,2013-01-25 03:32:00,
2013-01-24 22:33:00,37.7,22.1,30.46,NE,50,0.0,1.1,53,0.00,,,0.00,0.00,VWS V14.01,2013-01-25 03:33:00,
2013-01-24 22:34:00,37.5,22.0,30.46,NE,50,1.1,1.1,53,0.00,,,0.00,0.00,VWS V14.01,2013-01-25 03:34:00,
2013-01-24 22:35:00,37.5,22.0,30.46,ENE,66,1.1,2.2,53,0.00,,,0.00,0.00,VWS V14.01,2013-01-25 03:35:00,
2013-01-24 22:36:00,37.5,22.0,30.46,ENE,71,1.1,3.3,53,0.00,,,0.00,0.00,VWS V14.01,2013-01-25 03:36:00,
2013-01-24 22:37:00,37.5,22.0,30.47,NNE,31,1.1,1.1,53,0.00,,,0.00,0.00,VWS V14.01,2013-01-25 03:37:00,
2013-01-24 22:38:00,37.5,21.9,30.47,NNE,31,2.2,2.2,53,0.00,,,0.00,0.00,VWS V14.01,2013-01-25 03:38:00,
2013-01-24 22:39:00,37.5,21.4,30.47,North,2,2.2,4.4,52,0.00,,,0.00,0.00,VWS V14.01,2013-01-25 03:39:00,
2013-01-24 22:40:00,37.5,21.4,30.47,NE,36,1.1,6.6,52,0.00,,,0.00,0.00,VWS V14.01,2013-01-25 03:40:00,
2013-01-24 22:41:00,37.5,21.9,30.46,NNE,25,0.0,3.3,53,0.00,,,0.00,0.00,VWS V14.01,2013-01-25 03:41:00,
2013-01-24 22:42:00,37.5,21.9,30.46,East,90,0.0,3.3,53,0.00,,,0.00,0.00,VWS V14.01,2013-01-25 03:42:00,
2013-01-24 22:43:00,37.3,21.8,30.46,NE,39,1.1,3.3,53,0.00,,,0.00,0.00,VWS V14.01,2013-01-25 03:43:00,
2013-01-24 22:44:00,37.3,21.8,30.46,ENE,77,0.0,9.9,53,0.00,,,0.00,0.00,VWS V14.01,2013-01-25 03:44:00,
2013-01-24 22:45:00,37.3,21.8,30.46,East,85,0.0,1.1,53,0.00,,,0.00,0.00,VWS V14.01,2013-01-25 03:45:00,
2013-01-24 22:46:00,37.3,22.2,30.46,East,85,0.0,0.0,54,0.00,,,0.00,0.00,VWS V14.01,2013-01-25 03:46:00,
2013-01-24 22:47:00,37.2,22.1,30.45,ENE,59,3.3,4.4,54,0.00,,,0.00,0.00,VWS V14.01,2013-01-25 03:47:00,
2013-01-24 22:48:00,37.2,22.1,30.45,ENE,58,1.1,4.4,54,0.00,,,0.00,0.00,VWS V14.01,2013-01-25 03:48:00,
2013-01-24 22:49:00,37.2,22.1,30.45,ESE,120,2.2,2.2,54,0.00,,,0.00,0.00,VWS V14.01,2013-01-25 03:49:00,
2013-01-24 22:50:00,37.2,22.1,30.45,NE,34,2.2,2.2,54,0.00,,,0.00,0.00,VWS V14.01,2013-01-25 03:50:00,
2013-01-24 22:51:00,37.2,22.1,30.45,NE,46,0.0,3.3,54,0.00,,,0.00,0.00,VWS V14.01,2013-01-25 03:51:00,
2013-01-24 22:52:00,37.0,22.0,30.45,ENE,60,0.0,1.1,54,0.00,,,0.00,0.00,VWS V14.01,2013-01-25 03:52:00,
2013-01-24 22:53:00,37.0,22.0,30.45,ENE,60,0.0,1.1,54,0.00,,,0.00,0.00,VWS V14.01,2013-01-25 03:53:00,
2013-01-24 22:54:00,37.0,22.0,30.45,NE,48,2.2,2.2,54,0.00,,,0.00,0.00,VWS V14.01,2013-01-25 03:54:00,
2013-01-24 22:55:00,37.0,22.0,30.45,ENE,77,0.0,3.3,54,0.00,,,0.00,0.00,VWS V14.01,2013-01-25 03:55:00,
2013-01-24 22:56:00,37.0,21.9,30.45,North,2,1.1,1.1,54,0.00,,,0.00,0.00,VWS V14.01,2013-01-25 03:56:00,
2013-01-24 22:57:00,37.0,22.3,30.46,ENE,60,1.1,3.3,55,0.00,,,0.00,0.00,VWS V14.01,2013-01-25 03:57:00,
2013-01-24 22:58:00,37.0,22.3,30.46,ENE,60,0.0,3.3,55,0.00,,,0.00,0.00,VWS V14.01,2013-01-25 03:58:00,
2013-01-24 22:59:00,36.8,22.2,30.46,ENE,60,0.0,1.1,55,0.00,,,0.00,0.00,VWS V14.01,2013-01-25 03:59:00,
2013-01-24 23:00:00,36.8,22.2,30.46,ENE,60,0.0,0.0,55,0.00,,,0.00,0.00,VWS V14.01,2013-01-25 04:00:00,
2013-01-24 23:01:00,36.8,22.1,30.46,NE,37,2.2,3.3,55,0.00,,,0.00,0.00,VWS V14.01,2013-01-25 04:01:00,
2013-01-24 23:02:00,36.8,22.1,30.46,ENE,62,2.2,3.3,55,0.00,,,0.00,0.00,VWS V14.01,2013-01-25 04:02:00,
2013-01-24 23:03:00,36.8,22.1,30.46,ENE,59,0.0,3.3,55,0.00,,,0.00,0.00,VWS V14.01,2013-01-25 04:03:00,
2013-01-24 23:04:00,36.7,22.0,30.46,NE,55,0.0,2.2,55,0.00,,,0.00,0.00,VWS V14.01,2013-01-25 04:04:00,
2013-01-24 23:05:00,36.7,22.0,30.46,NNE,15,5.5,6.6,55,0.00,,,0.00,0.00,VWS V14.01,2013-01-25 04:05:00,
2013-01-24 23:06:00,36.7,22.0,30.46,ENE,58,2.2,5.5,55,0.00,,,0.00,0.00,VWS V14.01,2013-01-25 04:06:00,
2013-01-24 23:07:00,36.7,22.0,30.46,North,2,1.1,2.2,55,0.00,,,0.00,0.00,VWS V14.01,2013-01-25 04:07:00,
2013-01-24 23:08:00,36.7,22.0,30.46,East,88,0.0,2.2,55,0.00,,,0.00,0.00,VWS V14.01,2013-01-25 04:08:00,
2013-01-24 23:09:00,36.5,21.9,30.46,North,8,4.4,4.4,55,0.00,,,0.00,0.00,VWS V14.01,2013-01-25 04:09:00,
2013-01-24 23:10:00,36.5,22.4,30.46,NE,42,0.0,4.4,56,0.00,,,0.00,0.00,VWS V14.01,2013-01-25 04:10:00,
2013-01-24 23:11:00,36.5,22.3,30.46,NNE,30,5.5,5.5,56,0.00,,,0.00,0.00,VWS V14.01,2013-01-25 04:11:00,
2013-01-24 23:12:00,36.5,21.8,30.46,NE,37,1.1,5.5,55,0.00,,,0.00,0.00,VWS V14.01,2013-01-25 04:12:00,
2013-01-24 23:13:00,36.5,22.3,30.46,NNE,29,0.0,5.5,56,0.00,,,0.00,0.00,VWS V14.01,2013-01-25 04:13:00,
2013-01-24 23:14:00,36.3,22.2,30.46,NE,39,0.0,2.2,56,0.00,,,0.00,0.00,VWS V14.01,2013-01-25 04:14:00,
2013-01-24 23:15:00,36.3,22.2,30.46,NE,39,0.0,1.1,56,0.00,,,0.00,0.00,VWS V14.01,2013-01-25 04:15:00,
2013-01-24 23:16:00,36.3,22.2,30.46,NE,39,0.0,1.1,56,0.00,,,0.00,0.00,VWS V14.01,2013-01-25 04:16:00,
2013-01-24 23:17:00,36.2,22.1,30.46,NNE,29,1.1,2.2,56,0.00,,,0.00,0.00,VWS V14.01,2013-01-25 04:17:00,
2013-01-24 23:18:00,36.2,22.1,30.46,SE,131,0.0,2.2,56,0.00,,,0.00,0.00,VWS V14.01,2013-01-25 04:18:00,
2013-01-24 23:19:00,36.2,22.4,30.46,NNE,27,1.1,2.2,57,0.00,,,0.00,0.00,VWS V14.01,2013-01-25 04:19:00,
2013-01-24 23:20:00,36.2,22.4,30.46,NNE,27,1.1,3.3,57,0.00,,,0.00,0.00,VWS V14.01,2013-01-25 04:20:00,
2013-01-24 23:21:00,36.0,21.9,30.47,NNE,16,1.1,4.4,56,0.00,,,0.00,0.00,VWS V14.01,2013-01-25 04:21:00,
2013-01-24 23:22:00,36.0,21.9,30.46,ENE,67,1.1,2.2,56,0.00,,,0.00,0.00,VWS V14.01,2013-01-25 04:22:00,
2013-01-24 23:23:00,36.0,21.9,30.46,NE,35,2.2,2.2,56,0.00,,,0.00,0.00,VWS V14.01,2013-01-25 04:23:00,
2013-01-24 23:24:00,36.0,22.3,30.46,NNW,348,0.0,5.5,57,0.00,,,0.00,0.00,VWS V14.01,2013-01-25 04:24:00,
2013-01-24 23:25:00,36.0,22.2,30.47,NNW,348,0.0,2.2,57,0.00,,,0.00,0.00,VWS V14.01,2013-01-25 04:25:00,
2013-01-24 23:26:00,35.8,22.1,30.47,NNW,348,0.0,0.0,57,0.00,,,0.00,0.00,VWS V14.01,2013-01-25 04:26:00,
2013-01-24 23:27:00,35.8,22.1,30.46,NE,39,1.1,2.2,57,0.00,,,0.00,0.00,VWS V14.01,2013-01-25 04:27:00,
2013-01-24 23:28:00,35.8,22.1,30.46,NE,39,0.0,2.2,57,0.00,,,0.00,0.00,VWS V14.01,2013-01-25 04:28:00,
2013-01-24 23:29:00,35.8,22.0,30.46,NE,48,1.1,3.3,57,0.00,,,0.00,0.00,VWS V14.01,2013-01-25 04:29:00,
2013-01-24 23:30:00,35.8,22.0,30.46,NE,52,0.0,1.1,57,0.00,,,0.00,0.00,VWS V14.01,2013-01-25 04:30:00,
2013-01-24 23:31:00,35.8,22.0,30.46,NE,52,0.0,1.1,57,0.00,,,0.00,0.00,VWS V14.01,2013-01-25 04:31:00,
2013-01-24 23:32:00,35.7,21.9,30.46,NNE,25,3.3,5.5,57,0.00,,,0.00,0.00,VWS V14.01,2013-01-25 04:32:00,
2013-01-24 23:33:00,35.7,21.9,30.46,NNE,33,3.3,5.5,57,0.00,,,0.00,0.00,VWS V14.01,2013-01-25 04:33:00,
2013-01-24 23:34:00,35.7,21.9,30.46,NE,54,1.1,3.3,57,0.00,,,0.00,0.00,VWS V14.01,2013-01-25 04:34:00,
2013-01-24 23:35:00,35.5,21.8,30.46,NNE,12,3.3,4.4,57,0.00,,,0.00,0.00,VWS V14.01,2013-01-25 04:35:00,
2013-01-24 23:36:00,35.5,21.8,30.46,South,183,1.1,4.4,57,0.00,,,0.00,0.00,VWS V14.01,2013-01-25 04:36:00,
2013-01-24 23:37:00,35.5,21.8,30.46,NE,53,1.1,2.2,57,0.00,,,0.00,0.00,VWS V14.01,2013-01-25 04:37:00,
2013-01-24 23:38:00,35.5,21.8,30.46,NE,53,0.0,2.2,57,0.00,,,0.00,0.00,VWS V14.01,2013-01-25 04:38:00,
2013-01-24 23:39:00,35.5,21.7,30.46,East,81,5.5,6.6,57,0.00,,,0.00,0.00,VWS V14.01,2013-01-25 04:39:00,
2013-01-24 23:40:00,35.5,21.7,30.46,NE,43,0.0,5.5,57,0.00,,,0.00,0.00,VWS V14.01,2013-01-25 04:40:00,
2013-01-24 23:41:00,35.3,21.6,30.46,NNE,33,0.0,1.1,57,0.00,,,0.00,0.00,VWS V14.01,2013-01-25 04:41:00,
2013-01-24 23:42:00,35.3,21.6,30.46,NNE,33,0.0,1.1,57,0.00,,,0.00,0.00,VWS V14.01,2013-01-25 04:42:00,
2013-01-24 23:43:00,35.3,21.6,30.46,NNE,33,0.0,1.1,57,0.00,,,0.00,0.00,VWS V14.01,2013-01-25 04:43:00,
2013-01-24 23:44:00,35.2,21.6,30.46,ENE,64,3.3,4.4,57,0.00,,,0.00,0.00,VWS V14.01,2013-01-25 04:44:00,
2013-01-24 23:45:00,35.2,21.6,30.46,ENE,75,3.3,3.3,57,0.00,,,0.00,0.00,VWS V14.01,2013-01-25 04:45:00,
2013-01-24 23:46:00,35.2,21.5,30.46,NNE,32,1.1,3.3,57,0.00,,,0.00,0.00,VWS V14.01,2013-01-25 04:46:00,
2013-01-24 23:47:00,35.2,21.5,30.45,NNE,31,0.0,3.3,57,0.00,,,0.00,0.00,VWS V14.01,2013-01-25 04:47:00,
2013-01-24 23:48:00,35.0,21.4,30.45,North,10,1.1,3.3,57,0.00,,,0.00,0.00,VWS V14.01,2013-01-25 04:48:00,
2013-01-24 23:49:00,35.0,21.4,30.45,North,2,3.3,4.4,57,0.00,,,0.00,0.00,VWS V14.01,2013-01-25 04:49:00,
2013-01-24 23:50:00,35.0,21.0,30.45,SSE,160,1.1,3.3,56,0.00,,,0.00,0.00,VWS V14.01,2013-01-25 04:50:00,
2013-01-24 23:51:00,35.0,21.3,30.45,NE,39,4.4,4.4,57,0.00,,,0.00,0.00,VWS V14.01,2013-01-25 04:51:00,
2013-01-24 23:52:00,35.0,21.3,30.45,NE,42,0.0,7.7,57,0.00,,,0.00,0.00,VWS V14.01,2013-01-25 04:52:00,
2013-01-24 23:53:00,35.0,20.9,30.45,NE,42,1.1,7.7,56,0.00,,,0.00,0.00,VWS V14.01,2013-01-25 04:53:00,
2013-01-24 23:54:00,34.8,20.8,30.45,NE,45,1.1,1.1,56,0.00,,,0.00,0.00,VWS V14.01,2013-01-25 04:54:00,
2013-01-24 23:55:00,34.8,21.2,30.45,ENE,65,0.0,1.1,57,0.00,,,0.00,0.00,VWS V14.01,2013-01-25 04:55:00,
2013-01-24 23:56:00,34.8,21.2,30.45,North,2,5.5,5.5,57,0.00,,,0.00,0.00,VWS V14.01,2013-01-25 04:56:00,
2013-01-24 23:57:00,34.8,21.1,30.45,NE,42,4.4,6.6,57,0.00,,,0.00,0.00,VWS V14.01,2013-01-25 04:57:00,
2013-01-24 23:58:00,34.8,21.1,30.45,NNE,19,0.0,6.6,57,0.00,,,0.00,0.00,VWS V14.01,2013-01-25 04:58:00,
2013-01-24 23:59:00,34.8,21.1,30.45,NNE,15,1.1,2.2,57,0.00,,,0.00,0.00,VWS V14.01,2013-01-25 04:59:00,